Today

Time Wind Dr Wind Spd
mph
Wind Gust
mph
Hum In
%
Humid
%
TempI
F
Temp
F
Raw Bar
in
Tot Rain
in
UV Solar
W/sqm
DailyRain
in
HourRain
in
24HrRain
in
RainRate
in
05/05/26 12:01:18 AM 36 4.0 5.0 52 80 66.5 55.4 29.983 7.14 0.0 0 0.00 0.00 0.00 0.00
05/05/26 12:02:31 AM 36 5.0 6.0 52 80 66.5 55.4 29.981 7.14 0.0 0 0.00 0.00 0.00 0.00
05/05/26 12:03:22 AM 38 5.0 7.0 52 80 66.6 55.3 29.983 7.14 0.0 0 0.00 0.00 0.00 0.00
05/05/26 12:04:34 AM 38 6.0 9.0 52 80 66.6 55.3 29.981 7.14 0.0 0 0.00 0.00 0.00 0.00
05/05/26 12:05:26 AM 35 6.0 9.0 52 80 66.6 55.2 29.983 7.14 0.0 0 0.00 0.00 0.00 0.00
05/05/26 12:06:35 AM 39 4.0 9.0 52 80 66.6 55.2 29.981 7.14 0.0 0 0.00 0.00 0.00 0.00
05/05/26 12:07:26 AM 34 2.0 9.0 52 80 66.6 55.1 29.980 7.14 0.0 0 0.00 0.00 0.00 0.00
05/05/26 12:08:18 AM 36 2.0 9.0 52 81 66.6 55.1 29.978 7.14 0.0 0 0.00 0.00 0.00 0.00
05/05/26 12:09:18 AM 38 2.0 9.0 52 81 66.6 55.1 29.981 7.14 0.0 0 0.00 0.00 0.00 0.00
05/05/26 12:10:31 AM 34 2.0 9.0 52 81 66.6 55.0 29.978 7.14 0.0 0 0.00 0.00 0.00 0.00
05/05/26 12:11:20 AM 37 3.0 9.0 52 81 66.6 55.0 29.981 7.14 0.0 0 0.00 0.00 0.00 0.00
05/05/26 12:12:29 AM 34 4.0 9.0 52 81 66.6 55.0 29.980 7.14 0.0 0 0.00 0.00 0.00 0.00
05/05/26 12:13:21 AM 40 4.0 9.0 52 81 66.6 55.0 29.981 7.14 0.0 0 0.00 0.00 0.00 0.00
05/05/26 12:14:34 AM 32 4.0 9.0 52 81 66.6 55.0 29.980 7.14 0.0 0 0.00 0.00 0.00 0.00
05/05/26 12:15:29 AM 36 2.0 9.0 52 81 66.7 55.0 29.980 7.14 0.0 0 0.00 0.00 0.00 0.00
05/05/26 12:16:20 AM 34 2.0 9.0 52 81 66.7 55.0 29.981 7.14 0.0 0 0.00 0.00 0.00 0.00
05/05/26 12:17:27 AM 35 1.0 9.0 52 81 66.8 54.9 29.980 7.14 0.0 0 0.00 0.00 0.00 0.00
05/05/26 12:18:19 AM 38 2.0 9.0 52 81 66.7 54.9 29.981 7.14 0.0 0 0.00 0.00 0.00 0.00
05/05/26 12:19:31 AM 37 3.0 9.0 52 81 66.7 55.0 29.980 7.14 0.0 0 0.00 0.00 0.00 0.00
05/05/26 12:20:23 AM 39 3.0 9.0 52 81 66.7 54.9 29.981 7.14 0.0 0 0.00 0.00 0.00 0.00
05/05/26 12:21:18 AM 39 1.0 9.0 52 81 66.7 54.9 29.982 7.14 0.0 0 0.00 0.00 0.00 0.00
05/05/26 12:22:24 AM 38 1.0 9.0 52 81 66.7 54.9 29.983 7.14 0.0 0 0.00 0.00 0.00 0.00
05/05/26 12:23:16 AM 39 1.0 9.0 52 81 66.7 54.9 29.978 7.14 0.0 0 0.00 0.00 0.00 0.00
05/05/26 12:24:29 AM 36 2.0 9.0 52 81 66.7 54.9 29.981 7.14 0.0 0 0.00 0.00 0.00 0.00
05/05/26 12:25:20 AM 36 2.0 9.0 52 81 66.7 54.9 29.981 7.14 0.0 0 0.00 0.00 0.00 0.00
05/05/26 12:26:36 AM 34 2.0 9.0 52 81 66.6 54.9 29.981 7.14 0.0 0 0.00 0.00 0.00 0.00
05/05/26 12:27:22 AM 35 1.0 9.0 52 82 66.8 54.8 29.980 7.14 0.0 0 0.00 0.00 0.00 0.00
05/05/26 12:28:35 AM 31 3.0 9.0 52 82 66.8 54.8 29.978 7.14 0.0 0 0.00 0.00 0.00 0.00
05/05/26 12:29:26 AM 38 3.0 9.0 52 82 66.8 54.8 29.982 7.14 0.0 0 0.00 0.00 0.00 0.00
05/05/26 12:30:21 AM 39 2.0 9.0 52 82 66.7 54.8 29.980 7.14 0.0 0 0.00 0.00 0.00 0.00
05/05/26 12:31:34 AM 34 2.0 9.0 52 82 66.7 54.8 29.981 7.14 0.0 0 0.00 0.00 0.00 0.00
05/05/26 12:32:22 AM 35 3.0 9.0 52 82 66.8 54.8 29.982 7.14 0.0 0 0.00 0.00 0.00 0.00
05/05/26 12:33:32 AM 38 3.0 9.0 52 82 66.7 54.8 29.981 7.14 0.0 0 0.00 0.00 0.00 0.00
05/05/26 12:34:24 AM 38 0.0 9.0 52 82 66.8 54.8 29.981 7.14 0.0 0 0.00 0.00 0.00 0.00
05/05/26 12:35:19 AM 34 0.0 9.0 52 82 66.8 54.8 29.982 7.14 0.0 0 0.00 0.00 0.00 0.00
05/05/26 12:36:31 AM 38 0.0 9.0 52 82 66.8 54.8 29.983 7.14 0.0 0 0.00 0.00 0.00 0.00
05/05/26 12:37:23 AM 34 3.0 9.0 52 82 66.8 54.8 29.981 7.14 0.0 0 0.00 0.00 0.00 0.00
05/05/26 12:38:33 AM 34 2.0 9.0 52 82 66.8 54.8 29.982 7.14 0.0 0 0.00 0.00 0.00 0.00
05/05/26 12:39:24 AM 37 2.0 9.0 52 82 66.8 54.8 29.978 7.14 0.0 0 0.00 0.00 0.00 0.00
05/05/26 12:40:16 AM 38 2.0 9.0 52 82 66.8 54.8 29.981 7.14 0.0 0 0.00 0.00 0.00 0.00
05/05/26 12:41:29 AM 34 4.0 9.0 52 82 66.8 54.8 29.977 7.14 0.0 0 0.00 0.00 0.00 0.00
05/05/26 12:42:21 AM 38 4.0 9.0 52 82 66.9 54.8 29.983 7.14 0.0 0 0.00 0.00 0.00 0.00
05/05/26 12:43:30 AM 34 3.0 9.0 52 82 66.8 54.8 29.980 7.14 0.0 0 0.00 0.00 0.00 0.00
05/05/26 12:44:22 AM 35 3.0 9.0 52 82 66.8 54.8 29.980 7.14 0.0 0 0.00 0.00 0.00 0.00
05/05/26 12:45:35 AM 36 4.0 9.0 52 82 66.8 54.7 29.977 7.14 0.0 0 0.00 0.00 0.00 0.00
05/05/26 12:46:26 AM 38 2.0 9.0 52 82 66.8 54.7 29.978 7.14 0.0 0 0.00 0.00 0.00 0.00
05/05/26 12:47:18 AM 38 1.0 9.0 52 82 66.8 54.6 29.978 7.14 0.0 0 0.00 0.00 0.00 0.00
05/05/26 12:48:31 AM 35 1.0 9.0 52 82 66.8 54.6 29.977 7.14 0.0 0 0.00 0.00 0.00 0.00
05/05/26 12:49:17 AM 36 1.0 9.0 52 82 66.8 54.5 29.974 7.14 0.0 0 0.00 0.00 0.00 0.00
05/05/26 12:50:32 AM 38 0.0 9.0 52 81 66.8 54.5 29.977 7.14 0.0 0 0.00 0.00 0.00 0.00
05/05/26 12:51:24 AM 34 0.0 9.0 52 81 66.8 54.4 29.976 7.14 0.0 0 0.00 0.00 0.00 0.00
05/05/26 12:52:34 AM 36 1.0 9.0 52 81 66.8 54.4 29.976 7.14 0.0 0 0.00 0.00 0.00 0.00
05/05/26 12:53:29 AM 32 0.0 9.0 52 81 66.8 54.4 29.975 7.14 0.0 0 0.00 0.00 0.00 0.00
05/05/26 12:54:35 AM 32 1.0 9.0 52 81 66.8 54.4 29.975 7.14 0.0 0 0.00 0.00 0.00 0.00
05/05/26 12:55:27 AM 38 1.0 9.0 52 81 66.8 54.3 29.975 7.14 0.0 0 0.00 0.00 0.00 0.00
05/05/26 12:56:19 AM 36 0.0 9.0 52 81 66.8 54.3 29.977 7.14 0.0 0 0.00 0.00 0.00 0.00
05/05/26 12:57:31 AM 36 1.0 9.0 52 81 66.8 54.3 29.978 7.14 0.0 0 0.00 0.00 0.00 0.00
05/05/26 12:58:23 AM 37 1.0 9.0 52 81 66.9 54.2 29.977 7.14 0.0 0 0.00 0.00 0.00 0.00
05/05/26 12:59:18 AM 37 1.0 9.0 52 81 66.8 54.2 29.981 7.14 0.0 0 0.00 0.00 0.00 0.00
05/05/26 1:00:46 AM 35 0.0 9.0 52 81 66.8 54.2 29.977 7.14 0.0 0 0.00 0.00 0.00 0.00
05/05/26 1:01:37 AM 37 0.0 9.0 52 81 66.8 54.1 29.977 7.14 0.0 0 0.00 0.00 0.00 0.00
05/05/26 1:02:29 AM 38 1.0 9.0 52 81 66.8 54.2 29.978 7.14 0.0 0 0.00 0.00 0.00 0.00
05/05/26 1:03:21 AM 34 1.0 9.0 52 81 66.8 54.1 29.976 7.14 0.0 0 0.00 0.00 0.00 0.00
05/05/26 1:04:31 AM 37 0.0 9.0 52 82 66.8 54.1 29.975 7.14 0.0 0 0.00 0.00 0.00 0.00
05/05/26 1:05:19 AM 38 0.0 9.0 52 82 66.9 54.1 29.975 7.14 0.0 0 0.00 0.00 0.00 0.00
05/05/26 1:06:32 AM 32 0.0 9.0 52 82 66.9 54.1 29.977 7.14 0.0 0 0.00 0.00 0.00 0.00
05/05/26 1:07:24 AM 38 0.0 9.0 52 82 66.8 54.1 29.975 7.14 0.0 0 0.00 0.00 0.00 0.00
05/05/26 1:08:19 AM 35 0.0 9.0 52 82 66.8 54.1 29.977 7.14 0.0 0 0.00 0.00 0.00 0.00
05/05/26 1:09:28 AM 36 0.0 9.0 52 82 66.8 54.1 29.977 7.14 0.0 0 0.00 0.00 0.00 0.00
05/05/26 1:10:20 AM 37 0.0 9.0 52 82 66.8 54.1 29.977 7.14 0.0 0 0.00 0.00 0.00 0.00
05/05/26 1:11:30 AM 38 0.0 9.0 52 82 66.8 54.1 29.975 7.14 0.0 0 0.00 0.00 0.00 0.00
05/05/26 1:12:22 AM 34 0.0 9.0 52 82 66.8 54.1 29.974 7.14 0.0 0 0.00 0.00 0.00 0.00
05/05/26 1:13:34 AM 38 1.0 9.0 52 82 66.8 54.1 29.975 7.14 0.0 0 0.00 0.00 0.00 0.00
05/05/26 1:14:26 AM 38 2.0 9.0 52 82 66.8 54.1 29.976 7.14 0.0 0 0.00 0.00 0.00 0.00
05/05/26 1:15:18 AM 37 2.0 9.0 52 82 66.8 54.1 29.975 7.14 0.0 0 0.00 0.00 0.00 0.00
05/05/26 1:16:25 AM 38 2.0 9.0 52 82 66.8 54.1 29.972 7.14 0.0 0 0.00 0.00 0.00 0.00
05/05/26 1:17:16 AM 38 2.0 9.0 52 82 66.8 54.1 29.971 7.14 0.0 0 0.00 0.00 0.00 0.00
05/05/26 1:18:29 AM 32 1.0 9.0 52 82 66.8 54.1 29.974 7.14 0.0 0 0.00 0.00 0.00 0.00
05/05/26 1:19:21 AM 38 0.0 9.0 52 83 66.8 54.1 29.971 7.14 0.0 0 0.00 0.00 0.00 0.00
05/05/26 1:20:33 AM 34 0.0 9.0 52 83 66.8 54.1 29.973 7.14 0.0 0 0.00 0.00 0.00 0.00
05/05/26 1:21:22 AM 35 0.0 9.0 52 83 66.8 54.1 29.969 7.14 0.0 0 0.00 0.00 0.00 0.00
05/05/26 1:22:35 AM 38 0.0 9.0 52 83 66.8 54.1 29.969 7.14 0.0 0 0.00 0.00 0.00 0.00
05/05/26 1:23:27 AM 38 0.0 9.0 52 83 66.8 54.1 29.970 7.14 0.0 0 0.00 0.00 0.00 0.00
05/05/26 1:24:18 AM 35 0.0 9.0 52 83 66.8 54.1 29.970 7.14 0.0 0 0.00 0.00 0.00 0.00
05/05/26 1:25:31 AM 32 0.0 9.0 52 83 66.8 54.1 29.969 7.14 0.0 0 0.00 0.00 0.00 0.00
05/05/26 1:26:23 AM 38 0.0 9.0 52 83 66.8 54.1 29.969 7.14 0.0 0 0.00 0.00 0.00 0.00
05/05/26 1:27:33 AM 40 0.0 9.0 52 83 66.9 54.1 29.968 7.14 0.0 0 0.00 0.00 0.00 0.00
05/05/26 1:28:24 AM 38 0.0 9.0 52 83 66.8 54.1 29.968 7.14 0.0 0 0.00 0.00 0.00 0.00
05/05/26 1:29:34 AM 34 0.0 9.0 52 83 66.9 54.1 29.967 7.14 0.0 0 0.00 0.00 0.00 0.00
05/05/26 1:30:26 AM 37 0.0 9.0 52 83 66.9 54.1 29.967 7.14 0.0 0 0.00 0.00 0.00 0.00
05/05/26 1:31:18 AM 38 0.0 9.0 52 83 66.8 54.1 29.968 7.14 0.0 0 0.00 0.00 0.00 0.00
05/05/26 1:32:27 AM 37 0.0 9.0 52 83 66.9 54.1 29.966 7.14 0.0 0 0.00 0.00 0.00 0.00
05/05/26 1:33:19 AM 36 2.0 9.0 52 83 66.9 54.1 29.968 7.14 0.0 0 0.00 0.00 0.00 0.00
05/05/26 1:34:29 AM 36 3.0 9.0 52 83 66.8 54.0 29.968 7.14 0.0 0 0.00 0.00 0.00 0.00
05/05/26 1:35:21 AM 38 1.0 9.0 52 83 66.8 54.0 29.966 7.14 0.0 0 0.00 0.00 0.00 0.00
05/05/26 1:36:31 AM 32 0.0 9.0 52 83 66.9 54.0 29.969 7.14 0.0 0 0.00 0.00 0.00 0.00
05/05/26 1:37:19 AM 34 1.0 9.0 52 83 66.9 54.0 29.968 7.14 0.0 0 0.00 0.00 0.00 0.00
05/05/26 1:38:32 AM 39 3.0 9.0 52 83 66.8 54.0 29.966 7.14 0.0 0 0.00 0.00 0.00 0.00
05/05/26 1:39:24 AM 35 2.0 9.0 52 83 66.9 54.0 29.964 7.14 0.0 0 0.00 0.00 0.00 0.00
05/05/26 1:40:37 AM 36 3.0 9.0 52 83 66.9 54.0 29.966 7.14 0.0 0 0.00 0.00 0.00 0.00
05/05/26 1:41:28 AM 37 4.0 9.0 52 83 66.9 53.9 29.964 7.14 0.0 0 0.00 0.00 0.00 0.00
05/05/26 1:42:20 AM 37 3.0 9.0 52 83 66.9 53.9 29.963 7.14 0.0 0 0.00 0.00 0.00 0.00
05/05/26 1:43:27 AM 34 2.0 9.0 52 83 66.9 53.9 29.963 7.14 0.0 0 0.00 0.00 0.00 0.00
05/05/26 1:44:19 AM 39 2.0 9.0 52 83 66.9 53.9 29.962 7.14 0.0 0 0.00 0.00 0.00 0.00
05/05/26 1:45:35 AM 36 3.0 9.0 52 83 66.9 53.9 29.962 7.14 0.0 0 0.00 0.00 0.00 0.00
05/05/26 1:46:24 AM 35 3.0 9.0 52 83 66.9 53.9 29.964 7.14 0.0 0 0.00 0.00 0.00 0.00
05/05/26 1:47:36 AM 36 2.0 9.0 52 83 66.9 53.9 29.962 7.14 0.0 0 0.00 0.00 0.00 0.00
05/05/26 1:48:25 AM 36 1.0 9.0 52 83 66.9 53.9 29.962 7.14 0.0 0 0.00 0.00 0.00 0.00
05/05/26 1:49:17 AM 34 2.0 9.0 52 83 67.0 53.9 29.964 7.14 0.0 0 0.00 0.00 0.00 0.00
05/05/26 1:50:30 AM 34 2.0 9.0 52 83 66.9 53.8 29.965 7.14 0.0 0 0.00 0.00 0.00 0.00
05/05/26 1:51:21 AM 38 1.0 9.0 52 83 66.9 53.9 29.965 7.14 0.0 0 0.00 0.00 0.00 0.00
05/05/26 1:52:34 AM 36 0.0 9.0 52 83 66.9 53.9 29.962 7.14 0.0 0 0.00 0.00 0.00 0.00
05/05/26 1:53:23 AM 38 0.0 9.0 52 83 66.9 53.8 29.964 7.14 0.0 0 0.00 0.00 0.00 0.00
05/05/26 1:54:33 AM 38 0.0 9.0 52 83 66.9 53.8 29.963 7.14 0.0 0 0.00 0.00 0.00 0.00
05/05/26 1:55:25 AM 35 0.0 9.0 52 83 66.9 53.8 29.962 7.14 0.0 0 0.00 0.00 0.00 0.00
05/05/26 1:56:37 AM 32 0.0 9.0 52 83 67.0 53.8 29.959 7.14 0.0 0 0.00 0.00 0.00 0.00
05/05/26 1:57:29 AM 38 0.0 9.0 52 83 66.9 53.8 29.961 7.14 0.0 0 0.00 0.00 0.00 0.00
05/05/26 1:58:21 AM 36 0.0 9.0 52 83 67.0 53.8 29.961 7.14 0.0 0 0.00 0.00 0.00 0.00
05/05/26 1:59:27 AM 31 1.0 9.0 52 83 67.0 53.8 29.964 7.14 0.0 0 0.00 0.00 0.00 0.00
05/05/26 2:00:22 AM 38 1.0 9.0 52 83 66.9 53.8 29.962 7.14 0.0 0 0.00 0.00 0.00 0.00
05/05/26 2:01:32 AM 32 1.0 9.0 52 83 67.0 53.8 29.963 7.14 0.0 0 0.00 0.00 0.00 0.00
05/05/26 2:02:27 AM 38 0.0 9.0 52 83 66.9 53.8 29.962 7.14 0.0 0 0.00 0.00 0.00 0.00
05/05/26 2:03:16 AM 38 0.0 9.0 52 83 67.0 53.8 29.959 7.14 0.0 0 0.00 0.00 0.00 0.00
05/05/26 2:04:25 AM 36 0.0 9.0 52 83 66.9 53.9 29.959 7.14 0.0 0 0.00 0.00 0.00 0.00
05/05/26 2:05:17 AM 38 0.0 9.0 52 83 66.9 53.8 29.956 7.14 0.0 0 0.00 0.00 0.00 0.00
05/05/26 2:06:30 AM 34 0.0 9.0 52 83 66.9 53.9 29.957 7.14 0.0 0 0.00 0.00 0.00 0.00
05/05/26 2:07:22 AM 36 0.0 9.0 52 83 66.9 53.9 29.956 7.14 0.0 0 0.00 0.00 0.00 0.00
05/05/26 2:08:47 AM 38 0.0 9.0 52 83 66.9 53.8 29.956 7.14 0.0 0 0.00 0.00 0.00 0.00
05/05/26 2:09:17 AM 32 0.0 9.0 52 83 67.0 53.9 29.955 7.14 0.0 0 0.00 0.00 0.00 0.00
05/05/26 2:10:24 AM 39 0.0 9.0 52 83 67.0 53.9 29.956 7.14 0.0 0 0.00 0.00 0.00 0.00
05/05/26 2:11:19 AM 36 0.0 9.0 52 83 67.0 53.9 29.957 7.14 0.0 0 0.00 0.00 0.00 0.00
05/05/26 2:12:29 AM 38 0.0 9.0 52 83 67.0 53.9 29.956 7.14 0.0 0 0.00 0.00 0.00 0.00
05/05/26 2:13:20 AM 37 0.0 9.0 52 83 67.0 53.9 29.955 7.14 0.0 0 0.00 0.00 0.00 0.00
05/05/26 2:14:33 AM 37 0.0 9.0 52 83 67.0 53.9 29.953 7.14 0.0 0 0.00 0.00 0.00 0.00
05/05/26 2:15:43 AM 35 0.0 9.0 52 83 66.9 53.9 29.953 7.14 0.0 0 0.00 0.00 0.00 0.00
05/05/26 2:16:35 AM 32 0.0 9.0 52 83 67.0 53.9 29.953 7.14 0.0 0 0.00 0.00 0.00 0.00
05/05/26 2:17:26 AM 35 0.0 9.0 52 83 66.9 53.9 29.953 7.14 0.0 0 0.00 0.00 0.00 0.00
05/05/26 2:18:18 AM 38 0.0 9.0 52 83 66.9 53.8 29.952 7.14 0.0 0 0.00 0.00 0.00 0.00
05/05/26 2:19:31 AM 37 0.0 9.0 52 83 66.9 53.8 29.954 7.14 0.0 0 0.00 0.00 0.00 0.00
05/05/26 2:20:23 AM 38 0.0 9.0 52 83 66.9 53.8 29.952 7.14 0.0 0 0.00 0.00 0.00 0.00
05/05/26 2:21:32 AM 39 0.0 9.0 52 83 66.9 53.8 29.949 7.14 0.0 0 0.00 0.00 0.00 0.00
05/05/26 2:22:24 AM 35 0.0 9.0 52 83 67.0 53.8 29.953 7.14 0.0 0 0.00 0.00 0.00 0.00
05/05/26 2:23:34 AM 39 2.0 9.0 52 83 67.0 53.8 29.950 7.14 0.0 0 0.00 0.00 0.00 0.00
05/05/26 2:24:26 AM 38 2.0 9.0 52 83 67.0 53.8 29.952 7.14 0.0 0 0.00 0.00 0.00 0.00
05/05/26 2:25:17 AM 38 3.0 9.0 52 83 67.0 53.8 29.951 7.14 0.0 0 0.00 0.00 0.00 0.00
05/05/26 2:26:24 AM 35 1.0 9.0 52 83 67.0 53.8 29.949 7.14 0.0 0 0.00 0.00 0.00 0.00
05/05/26 2:27:16 AM 39 1.0 9.0 52 83 67.0 53.8 29.950 7.14 0.0 0 0.00 0.00 0.00 0.00
05/05/26 2:28:29 AM 32 1.0 9.0 52 83 66.9 53.8 29.948 7.14 0.0 0 0.00 0.00 0.00 0.00
05/05/26 2:29:21 AM 38 2.0 9.0 52 83 66.9 53.8 29.950 7.14 0.0 0 0.00 0.00 0.00 0.00
05/05/26 2:30:33 AM 36 2.0 9.0 52 83 66.9 53.8 29.948 7.14 0.0 0 0.00 0.00 0.00 0.00
05/05/26 2:31:22 AM 38 1.0 9.0 52 83 67.0 53.8 29.948 7.14 0.0 0 0.00 0.00 0.00 0.00
05/05/26 2:32:32 AM 38 0.0 9.0 52 83 66.9 53.8 29.947 7.14 0.0 0 0.00 0.00 0.00 0.00
05/05/26 2:33:24 AM 35 1.0 9.0 52 83 66.9 53.8 29.947 7.14 0.0 0 0.00 0.00 0.00 0.00
05/05/26 2:34:19 AM 38 2.0 9.0 52 83 66.9 53.8 29.947 7.14 0.0 0 0.00 0.00 0.00 0.00
05/05/26 2:35:29 AM 38 1.0 9.0 52 83 66.9 53.8 29.951 7.14 0.0 0 0.00 0.00 0.00 0.00
05/05/26 2:36:23 AM 38 2.0 9.0 52 83 67.0 53.8 29.949 7.14 0.0 0 0.00 0.00 0.00 0.00
05/05/26 2:37:30 AM 32 2.0 9.0 52 83 66.9 53.8 29.949 7.14 0.0 0 0.00 0.00 0.00 0.00
05/05/26 2:38:19 AM 35 2.0 9.0 52 83 67.0 53.8 29.946 7.14 0.0 0 0.00 0.00 0.00 0.00
05/05/26 2:39:32 AM 36 3.0 9.0 52 83 67.0 53.8 29.947 7.14 0.0 0 0.00 0.00 0.00 0.00
05/05/26 2:40:23 AM 31 1.0 9.0 52 83 66.9 53.8 29.948 7.14 0.0 0 0.00 0.00 0.00 0.00
05/05/26 2:41:36 AM 38 1.0 9.0 52 83 67.0 53.8 29.948 7.14 0.0 0 0.00 0.00 0.00 0.00
05/05/26 2:42:22 AM 32 0.0 9.0 52 83 67.0 53.8 29.944 7.14 0.0 0 0.00 0.00 0.00 0.00
05/05/26 2:43:38 AM 36 0.0 9.0 52 83 66.9 53.8 29.947 7.14 0.0 0 0.00 0.00 0.00 0.00
05/05/26 2:44:30 AM 34 0.0 9.0 52 83 67.0 53.8 29.945 7.14 0.0 0 0.00 0.00 0.00 0.00
05/05/26 2:45:45 AM 34 0.0 9.0 52 83 66.9 53.8 29.946 7.14 0.0 0 0.00 0.00 0.00 0.00
05/05/26 2:46:34 AM 37 0.0 9.0 52 83 67.0 53.8 29.943 7.14 0.0 0 0.00 0.00 0.00 0.00
05/05/26 2:47:29 AM 34 0.0 9.0 52 83 66.9 53.8 29.940 7.14 0.0 0 0.00 0.00 0.00 0.00
05/05/26 2:48:36 AM 32 0.0 9.0 52 83 66.9 53.7 29.940 7.14 0.0 0 0.00 0.00 0.00 0.00
05/05/26 2:49:28 AM 36 0.0 9.0 52 83 67.0 53.7 29.943 7.14 0.0 0 0.00 0.00 0.00 0.00
05/05/26 2:50:19 AM 34 0.0 9.0 52 84 67.0 53.8 29.942 7.14 0.0 0 0.00 0.00 0.00 0.00
05/05/26 2:51:29 AM 35 0.0 9.0 52 84 66.9 53.7 29.940 7.14 0.0 0 0.00 0.00 0.00 0.00
05/05/26 2:52:21 AM 36 0.0 9.0 52 84 66.9 53.7 29.943 7.14 0.0 0 0.00 0.00 0.00 0.00
05/05/26 2:53:31 AM 35 0.0 9.0 52 84 66.9 53.7 29.944 7.14 0.0 0 0.00 0.00 0.00 0.00
05/05/26 2:54:23 AM 35 0.0 9.0 52 84 66.9 53.7 29.942 7.14 0.0 0 0.00 0.00 0.00 0.00
05/05/26 2:55:32 AM 38 0.0 9.0 52 84 66.9 53.7 29.942 7.14 0.0 0 0.00 0.00 0.00 0.00
05/05/26 2:56:24 AM 37 0.0 9.0 52 84 66.8 53.7 29.942 7.14 0.0 0 0.00 0.00 0.00 0.00
05/05/26 2:57:16 AM 35 0.0 9.0 52 84 66.8 53.6 29.943 7.14 0.0 0 0.00 0.00 0.00 0.00
05/05/26 2:58:26 AM 35 0.0 9.0 52 84 67.0 53.6 29.942 7.15 0.0 0 0.01 0.00 0.00 0.00
05/05/26 2:59:18 AM 36 0.0 9.0 52 84 66.9 53.6 29.939 7.15 0.0 0 0.01 0.00 0.00 0.00
05/05/26 3:00:55 AM 34 3.0 9.0 52 84 66.9 53.6 29.940 7.15 0.0 0 0.01 0.00 0.00 0.00
05/05/26 3:01:25 AM 34 3.0 9.0 52 84 66.9 53.6 29.940 7.15 0.0 0 0.01 0.00 0.01 0.00
05/05/26 3:02:17 AM 35 3.0 9.0 52 84 66.9 53.6 29.939 7.15 0.0 0 0.01 0.00 0.01 0.00
05/05/26 3:03:27 AM 35 2.0 9.0 52 84 66.9 53.6 29.943 7.15 0.0 0 0.01 0.00 0.01 0.00
05/05/26 3:04:16 AM 35 2.0 9.0 52 84 66.8 53.5 29.943 7.15 0.0 0 0.01 0.00 0.01 0.00
05/05/26 3:05:29 AM 36 2.0 9.0 52 84 66.9 53.5 29.939 7.15 0.0 0 0.01 0.00 0.01 0.00
05/05/26 3:06:20 AM 35 3.0 9.0 52 84 66.8 53.5 29.939 7.15 0.0 0 0.01 0.00 0.01 0.00
05/05/26 3:07:33 AM 35 3.0 9.0 52 84 66.9 53.5 29.939 7.15 0.0 0 0.01 0.00 0.01 0.00
05/05/26 3:08:25 AM 35 2.0 9.0 52 85 66.9 53.5 29.940 7.15 0.0 0 0.01 0.00 0.01 0.00
05/05/26 3:09:17 AM 36 2.0 9.0 52 85 66.9 53.4 29.940 7.15 0.0 0 0.01 0.00 0.01 0.00
05/05/26 3:10:27 AM 35 2.0 9.0 52 85 66.8 53.4 29.942 7.15 0.0 0 0.01 0.00 0.01 0.00
05/05/26 3:11:18 AM 35 2.0 9.0 52 85 66.8 53.4 29.942 7.15 0.0 0 0.01 0.00 0.01 0.00
05/05/26 3:12:28 AM 35 1.0 9.0 52 85 66.8 53.3 29.942 7.15 0.0 0 0.01 0.00 0.01 0.00
05/05/26 3:13:23 AM 36 2.0 9.0 52 85 66.8 53.3 29.938 7.15 0.0 0 0.01 0.00 0.01 0.00
05/05/26 3:14:36 AM 36 1.0 9.0 52 85 66.9 53.3 29.939 7.15 0.0 0 0.01 0.00 0.01 0.00
05/05/26 3:15:25 AM 35 1.0 9.0 52 85 66.8 53.3 29.937 7.15 0.0 0 0.01 0.00 0.01 0.00
05/05/26 3:16:34 AM 35 0.0 9.0 52 85 66.8 53.3 29.938 7.15 0.0 0 0.01 0.00 0.01 0.00
05/05/26 3:17:29 AM 38 0.0 9.0 52 85 66.8 53.2 29.938 7.15 0.0 0 0.01 0.00 0.01 0.00
05/05/26 3:18:21 AM 35 2.0 9.0 52 85 66.8 53.2 29.936 7.15 0.0 0 0.01 0.00 0.01 0.00
05/05/26 3:19:31 AM 35 1.0 9.0 52 85 66.8 53.2 29.936 7.15 0.0 0 0.01 0.00 0.01 0.00
05/05/26 3:20:20 AM 36 0.0 9.0 52 85 66.8 53.2 29.935 7.15 0.0 0 0.01 0.00 0.01 0.00
05/05/26 3:21:33 AM 35 0.0 9.0 52 85 66.8 53.2 29.936 7.15 0.0 0 0.01 0.00 0.01 0.00
05/05/26 3:22:24 AM 35 0.0 9.0 52 85 66.8 53.2 29.934 7.15 0.0 0 0.01 0.00 0.01 0.00
05/05/26 3:23:37 AM 36 2.0 9.0 52 85 66.8 53.2 29.935 7.15 0.0 0 0.01 0.00 0.01 0.00
05/05/26 3:24:29 AM 34 1.0 9.0 52 85 66.8 53.2 29.934 7.15 0.0 0 0.01 0.00 0.01 0.00
05/05/26 3:25:18 AM 36 3.0 9.0 52 85 66.9 53.2 29.935 7.15 0.0 0 0.01 0.00 0.01 0.00
05/05/26 3:26:28 AM 35 4.0 9.0 52 85 66.9 53.1 29.936 7.15 0.0 0 0.01 0.00 0.01 0.00
05/05/26 3:27:20 AM 35 3.0 9.0 52 85 66.8 53.1 29.934 7.15 0.0 0 0.01 0.00 0.01 0.00
05/05/26 3:28:32 AM 34 3.0 9.0 52 85 66.9 53.1 29.932 7.15 0.0 0 0.01 0.00 0.01 0.00
05/05/26 3:29:21 AM 35 2.0 9.0 52 85 66.9 53.1 29.934 7.15 0.0 0 0.01 0.00 0.01 0.00
05/05/26 3:30:58 AM 36 0.0 9.0 52 85 66.8 53.0 29.935 7.15 0.0 0 0.01 0.00 0.01 0.00
05/05/26 3:31:26 AM 36 2.0 9.0 52 86 66.9 53.1 29.933 7.15 0.0 0 0.01 0.00 0.01 0.00
05/05/26 3:32:18 AM 36 2.0 9.0 52 86 66.9 53.0 29.934 7.15 0.0 0 0.01 0.00 0.01 0.00
05/05/26 3:33:31 AM 32 2.0 9.0 52 86 66.9 53.0 29.932 7.15 0.0 0 0.01 0.00 0.01 0.00
05/05/26 3:34:23 AM 36 2.0 9.0 52 86 66.9 53.0 29.934 7.15 0.0 0 0.01 0.00 0.01 0.00
05/05/26 3:35:32 AM 36 3.0 9.0 52 86 66.9 53.0 29.935 7.15 0.0 0 0.01 0.00 0.01 0.00
05/05/26 3:36:27 AM 34 0.0 9.0 52 86 66.9 53.0 29.933 7.15 0.0 0 0.01 0.00 0.01 0.00
05/05/26 3:37:34 AM 36 1.0 9.0 52 86 66.9 53.0 29.935 7.15 0.0 0 0.01 0.00 0.01 0.00
05/05/26 3:38:26 AM 35 1.0 9.0 52 86 66.9 52.9 29.935 7.15 0.0 0 0.01 0.00 0.01 0.00
05/05/26 3:39:18 AM 34 1.0 9.0 52 86 66.9 52.9 29.934 7.15 0.0 0 0.01 0.00 0.01 0.00
05/05/26 3:40:31 AM 34 0.0 9.0 52 86 66.8 52.9 29.934 7.15 0.0 0 0.01 0.00 0.01 0.00
05/05/26 3:41:22 AM 35 0.0 9.0 52 86 66.9 52.9 29.936 7.15 0.0 0 0.01 0.00 0.01 0.00
05/05/26 3:42:29 AM 35 0.0 9.0 52 86 66.9 52.9 29.931 7.15 0.0 0 0.01 0.00 0.01 0.00
05/05/26 3:43:21 AM 36 0.0 9.0 52 86 66.8 52.9 29.934 7.15 0.0 0 0.01 0.00 0.01 0.00
05/05/26 3:44:34 AM 32 0.0 9.0 52 86 67.0 52.9 29.934 7.15 0.0 0 0.01 0.00 0.01 0.00
05/05/26 3:45:29 AM 35 0.0 9.0 52 86 66.9 52.9 29.934 7.15 0.0 0 0.01 0.00 0.01 0.00
05/05/26 3:46:20 AM 35 0.0 9.0 52 86 66.9 52.9 29.934 7.15 0.0 0 0.01 0.00 0.01 0.00
05/05/26 3:47:27 AM 36 0.0 9.0 52 86 66.9 52.9 29.934 7.15 0.0 0 0.01 0.00 0.01 0.00
05/05/26 3:48:19 AM 34 1.0 9.0 52 86 66.9 52.9 29.934 7.15 0.0 0 0.01 0.00 0.01 0.00
05/05/26 3:49:32 AM 36 4.0 9.0 52 86 66.9 52.9 29.935 7.15 0.0 0 0.01 0.00 0.01 0.00
05/05/26 3:50:24 AM 35 3.0 9.0 52 86 66.9 52.9 29.934 7.15 0.0 0 0.01 0.00 0.01 0.00
05/05/26 3:51:18 AM 35 4.0 9.0 52 86 66.9 52.9 29.934 7.15 0.0 0 0.01 0.00 0.01 0.00
05/05/26 3:52:28 AM 34 5.0 9.0 52 86 66.9 52.9 29.935 7.15 0.0 0 0.01 0.00 0.01 0.00
05/05/26 3:53:17 AM 35 2.0 9.0 52 86 66.9 52.8 29.934 7.15 0.0 0 0.01 0.00 0.01 0.00
05/05/26 3:54:30 AM 35 0.0 9.0 52 86 66.9 52.9 29.934 7.15 0.0 0 0.01 0.00 0.01 0.00
05/05/26 3:55:22 AM 35 3.0 9.0 52 86 66.9 52.8 29.934 7.15 0.0 0 0.01 0.00 0.01 0.00
05/05/26 3:56:35 AM 31 3.0 9.0 52 86 66.9 52.8 29.935 7.15 0.0 0 0.01 0.00 0.01 0.00
05/05/26 3:57:26 AM 32 2.0 9.0 52 86 66.9 52.8 29.935 7.15 0.0 0 0.01 0.00 0.01 0.00
05/05/26 3:58:33 AM 35 3.0 9.0 52 86 66.9 52.8 29.935 7.15 0.0 0 0.01 0.00 0.01 0.00
05/05/26 3:59:25 AM 35 3.0 9.0 52 86 66.9 52.8 29.934 7.15 0.0 0 0.01 0.00 0.01 0.00
05/05/26 4:00:20 AM 32 2.0 9.0 52 86 66.9 52.8 29.936 7.15 0.0 0 0.01 0.00 0.01 0.00
05/05/26 4:01:30 AM 36 1.0 9.0 52 86 66.9 52.7 29.936 7.15 0.0 0 0.01 0.00 0.01 0.00
05/05/26 4:02:22 AM 35 0.0 9.0 52 87 66.9 52.8 29.934 7.15 0.0 0 0.01 0.00 0.01 0.00
05/05/26 4:03:31 AM 36 0.0 9.0 52 87 66.9 52.7 29.936 7.15 0.0 0 0.01 0.00 0.01 0.00
05/05/26 4:04:23 AM 34 0.0 9.0 52 87 67.0 52.7 29.936 7.15 0.0 0 0.01 0.00 0.01 0.00
05/05/26 4:05:36 AM 32 0.0 9.0 52 87 66.9 52.7 29.933 7.15 0.0 0 0.01 0.00 0.01 0.00
05/05/26 4:06:28 AM 34 2.0 9.0 52 87 66.9 52.7 29.937 7.15 0.0 0 0.01 0.00 0.01 0.00
05/05/26 4:07:20 AM 34 0.0 9.0 52 87 66.9 52.7 29.938 7.15 0.0 0 0.01 0.00 0.01 0.00
05/05/26 4:08:45 AM 36 0.0 9.0 52 87 66.9 52.7 29.935 7.15 0.0 0 0.01 0.00 0.01 0.00
05/05/26 4:09:31 AM 34 0.0 9.0 52 87 66.9 52.7 29.935 7.15 0.0 0 0.01 0.00 0.01 0.00
05/05/26 4:10:23 AM 35 0.0 9.0 52 87 67.0 52.7 29.934 7.15 0.0 0 0.01 0.00 0.01 0.00
05/05/26 4:11:35 AM 32 0.0 9.0 52 87 67.0 52.7 29.936 7.15 0.0 0 0.01 0.00 0.01 0.00
05/05/26 4:12:27 AM 36 0.0 9.0 52 87 66.9 52.7 29.937 7.15 0.0 0 0.01 0.00 0.01 0.00
05/05/26 4:13:19 AM 36 0.0 9.0 52 87 66.9 52.7 29.936 7.15 0.0 0 0.01 0.00 0.01 0.00
05/05/26 4:14:26 AM 36 0.0 9.0 52 87 66.9 52.7 29.937 7.15 0.0 0 0.01 0.00 0.01 0.00
05/05/26 4:15:21 AM 31 0.0 9.0 52 87 66.8 52.7 29.934 7.15 0.0 0 0.01 0.00 0.01 0.00
05/05/26 4:16:31 AM 35 0.0 9.0 52 87 67.0 52.7 29.934 7.15 0.0 0 0.01 0.00 0.01 0.00
05/05/26 4:17:22 AM 35 0.0 9.0 52 87 66.9 52.7 29.933 7.15 0.0 0 0.01 0.00 0.01 0.00
05/05/26 4:18:35 AM 36 0.0 9.0 52 87 66.9 52.6 29.936 7.15 0.0 0 0.01 0.00 0.01 0.00
05/05/26 4:19:27 AM 34 0.0 9.0 52 87 66.9 52.6 29.936 7.15 0.0 0 0.01 0.00 0.01 0.00
05/05/26 4:20:34 AM 36 0.0 9.0 52 87 66.9 52.6 29.936 7.15 0.0 0 0.01 0.00 0.01 0.00
05/05/26 4:21:26 AM 32 0.0 9.0 52 87 66.9 52.6 29.936 7.15 0.0 0 0.01 0.00 0.01 0.00
05/05/26 4:22:18 AM 32 0.0 9.0 52 87 67.0 52.6 29.935 7.15 0.0 0 0.01 0.00 0.01 0.00
05/05/26 4:23:28 AM 34 0.0 9.0 52 87 66.9 52.6 29.936 7.15 0.0 0 0.01 0.00 0.01 0.00
05/05/26 4:24:19 AM 35 0.0 9.0 52 87 66.9 52.6 29.934 7.15 0.0 0 0.01 0.00 0.01 0.00
05/05/26 4:25:29 AM 30 0.0 9.0 52 87 66.9 52.6 29.936 7.15 0.0 0 0.01 0.00 0.01 0.00
05/05/26 4:26:21 AM 36 0.0 9.0 52 87 66.9 52.6 29.934 7.15 0.0 0 0.01 0.00 0.01 0.00
05/05/26 4:27:34 AM 35 0.0 9.0 52 87 67.0 52.6 29.936 7.15 0.0 0 0.01 0.00 0.01 0.00
05/05/26 4:28:26 AM 35 2.0 9.0 52 87 66.9 52.6 29.936 7.15 0.0 0 0.01 0.00 0.01 0.00
05/05/26 4:29:18 AM 34 2.0 9.0 52 87 66.9 52.6 29.935 7.15 0.0 0 0.01 0.00 0.01 0.00
05/05/26 4:30:48 AM 38 2.0 9.0 52 87 67.0 52.6 29.936 7.15 0.0 0 0.01 0.00 0.01 0.00
05/05/26 4:31:19 AM 34 1.0 9.0 52 87 67.0 52.6 29.934 7.15 0.0 0 0.01 0.00 0.01 0.00
05/05/26 4:32:29 AM 34 1.0 9.0 52 87 67.0 52.6 29.937 7.15 0.0 0 0.01 0.00 0.01 0.00
05/05/26 4:33:21 AM 35 1.0 9.0 52 87 67.0 52.6 29.934 7.15 0.0 0 0.01 0.00 0.01 0.00
05/05/26 4:34:34 AM 36 2.0 9.0 52 87 66.9 52.5 29.935 7.15 0.0 0 0.01 0.00 0.01 0.00
05/05/26 4:35:26 AM 36 2.0 9.0 52 87 67.0 52.5 29.936 7.15 0.0 0 0.01 0.00 0.01 0.00
05/05/26 4:36:32 AM 36 1.0 9.0 52 87 66.9 52.5 29.935 7.15 0.0 0 0.01 0.00 0.01 0.00
05/05/26 4:37:24 AM 38 1.0 9.0 53 87 66.9 52.5 29.936 7.15 0.0 0 0.01 0.00 0.01 0.00
05/05/26 4:38:37 AM 35 0.0 9.0 53 87 67.0 52.5 29.933 7.15 0.0 0 0.01 0.00 0.01 0.00
05/05/26 4:39:29 AM 38 1.0 9.0 53 87 66.9 52.5 29.936 7.15 0.0 0 0.01 0.00 0.01 0.00
05/05/26 4:40:21 AM 36 1.0 9.0 53 87 67.0 52.5 29.935 7.15 0.0 0 0.01 0.00 0.01 0.00
05/05/26 4:41:28 AM 36 1.0 9.0 53 87 67.0 52.5 29.935 7.15 0.0 0 0.01 0.00 0.01 0.00
05/05/26 4:42:20 AM 38 2.0 9.0 53 87 67.0 52.5 29.934 7.15 0.0 0 0.01 0.00 0.01 0.00
05/05/26 4:43:33 AM 38 0.0 9.0 53 87 66.9 52.5 29.936 7.15 0.0 0 0.01 0.00 0.01 0.00
05/05/26 4:44:25 AM 35 0.0 9.0 53 87 67.0 52.5 29.934 7.15 0.0 0 0.01 0.00 0.01 0.00
05/05/26 4:45:37 AM 35 0.0 9.0 53 87 67.0 52.5 29.934 7.15 0.0 0 0.01 0.00 0.01 0.00
05/05/26 4:46:29 AM 32 0.0 9.0 53 87 67.0 52.5 29.936 7.15 0.0 0 0.01 0.00 0.01 0.00
05/05/26 4:47:15 AM 36 1.0 9.0 53 87 67.0 52.5 29.936 7.15 0.0 0 0.01 0.00 0.01 0.00
05/05/26 4:48:28 AM 35 2.0 9.0 53 87 66.9 52.5 29.934 7.15 0.0 0 0.01 0.00 0.01 0.00
05/05/26 4:49:20 AM 32 3.0 9.0 53 88 67.0 52.5 29.934 7.15 0.0 0 0.01 0.00 0.01 0.00
05/05/26 4:50:33 AM 34 3.0 9.0 53 88 67.0 52.5 29.934 7.15 0.0 0 0.01 0.00 0.01 0.00
05/05/26 4:51:24 AM 34 3.0 9.0 53 88 67.0 52.5 29.933 7.15 0.0 0 0.01 0.00 0.01 0.00
05/05/26 4:52:31 AM 35 2.0 9.0 53 88 67.0 52.5 29.933 7.15 0.0 0 0.01 0.00 0.01 0.00
05/05/26 4:53:23 AM 32 1.0 9.0 53 88 66.9 52.5 29.935 7.15 0.0 0 0.01 0.00 0.01 0.00
05/05/26 4:54:33 AM 35 0.0 9.0 53 88 67.0 52.5 29.932 7.15 0.0 0 0.01 0.00 0.01 0.00
05/05/26 4:55:25 AM 35 0.0 9.0 53 88 67.0 52.5 29.932 7.15 0.0 0 0.01 0.00 0.01 0.00
05/05/26 4:56:17 AM 32 2.0 9.0 53 88 66.9 52.5 29.935 7.15 0.0 0 0.01 0.00 0.01 0.00
05/05/26 4:57:27 AM 35 2.0 9.0 53 88 67.0 52.5 29.932 7.15 0.0 0 0.01 0.00 0.01 0.00
05/05/26 4:58:18 AM 35 2.0 9.0 53 88 67.0 52.5 29.934 7.16 0.0 0 0.02 0.00 0.01 0.00
05/05/26 4:59:31 AM 35 2.0 9.0 53 88 67.0 52.5 29.934 7.16 0.0 0 0.02 0.00 0.01 0.00
05/05/26 5:00:23 AM 36 3.0 9.0 53 88 67.0 52.5 29.932 7.16 0.0 0 0.02 0.00 0.01 0.00
05/05/26 5:01:36 AM 36 1.0 9.0 53 88 67.0 52.5 29.932 7.16 0.0 0 0.02 0.00 0.01 0.00
05/05/26 5:02:28 AM 34 2.0 9.0 53 88 67.0 52.5 29.933 7.16 0.0 0 0.02 0.00 0.01 0.00
05/05/26 5:03:35 AM 36 2.0 9.0 53 88 67.0 52.5 29.932 7.16 0.0 0 0.02 0.00 0.01 0.00
05/05/26 5:04:27 AM 36 2.0 9.0 53 88 67.0 52.5 29.932 7.16 0.0 0 0.02 0.00 0.01 0.00
05/05/26 5:05:19 AM 35 1.0 9.0 53 88 67.0 52.5 29.931 7.16 0.0 0 0.02 0.00 0.01 0.00
05/05/26 5:06:32 AM 36 3.0 9.0 53 88 66.9 52.5 29.932 7.16 0.0 0 0.02 0.00 0.01 0.00
05/05/26 5:07:24 AM 35 3.0 9.0 53 88 66.8 52.5 29.931 7.16 0.0 0 0.02 0.00 0.01 0.00
05/05/26 5:08:34 AM 39 2.0 9.0 53 88 66.8 52.5 29.930 7.16 0.0 0 0.02 0.00 0.01 0.00
05/05/26 5:09:25 AM 39 3.0 9.0 53 88 66.8 52.5 29.930 7.17 0.0 0 0.03 0.06 0.06 0.06
05/05/26 5:10:17 AM 38 2.0 9.0 54 88 66.8 52.5 29.931 7.17 0.0 0 0.03 0.06 0.06 0.06
05/05/26 5:11:27 AM 37 1.0 9.0 54 88 66.6 52.5 29.931 7.17 0.0 0 0.03 0.06 0.06 0.06
05/05/26 5:12:19 AM 38 2.0 9.0 54 88 66.5 52.4 29.932 7.17 0.0 0 0.03 0.17 0.17 0.17
05/05/26 5:13:26 AM 40 4.0 9.0 54 88 66.5 52.4 29.931 7.18 0.0 0 0.04 0.17 0.17 0.17
05/05/26 5:14:21 AM 38 2.0 9.0 55 88 66.4 52.4 29.930 7.18 0.0 0 0.04 0.17 0.17 0.17
05/05/26 5:15:34 AM 38 3.0 9.0 55 88 66.3 52.4 29.931 7.18 0.0 0 0.04 0.17 0.17 0.17
05/05/26 5:16:26 AM 38 3.0 9.0 55 88 66.2 52.4 29.929 7.19 0.0 0 0.05 0.18 0.18 0.18
05/05/26 5:17:17 AM 38 4.0 9.0 55 88 66.1 52.4 29.931 7.19 0.0 0 0.05 0.18 0.18 0.18
05/05/26 5:18:30 AM 39 4.0 9.0 55 88 66.0 52.4 29.930 7.19 0.0 0 0.05 0.21 0.21 0.21
05/05/26 5:19:16 AM 40 5.0 9.0 55 88 65.9 52.3 29.931 7.20 0.0 0 0.06 0.21 0.21 0.21
05/05/26 5:20:29 AM 40 3.0 9.0 56 88 65.8 52.3 29.931 7.20 0.0 0 0.06 0.21 0.30 0.30
05/05/26 5:21:21 AM 40 3.0 9.0 56 88 65.7 52.3 29.933 7.21 0.0 0 0.07 0.30 0.30 0.30
05/05/26 5:22:34 AM 40 2.0 9.0 56 88 65.7 52.3 29.930 7.21 0.0 0 0.07 0.29 0.30 0.30
05/05/26 5:23:26 AM 40 4.0 9.0 56 88 65.6 52.3 29.932 7.21 0.0 0 0.07 0.20 0.30 0.30
05/05/26 5:24:36 AM 38 2.0 9.0 56 88 65.5 52.2 29.929 7.22 0.0 0 0.08 0.20 0.30 0.30
05/05/26 5:25:27 AM 40 1.0 9.0 56 88 65.5 52.2 29.930 7.22 0.0 0 0.08 0.20 0.30 0.30
05/05/26 5:26:19 AM 39 4.0 9.0 57 88 65.4 52.2 29.929 7.22 0.0 0 0.08 0.20 0.30 0.30
05/05/26 5:27:29 AM 39 2.0 9.0 57 88 65.3 52.1 29.930 7.22 0.0 0 0.08 0.15 0.30 0.30
05/05/26 5:28:24 AM 38 1.0 9.0 57 88 65.2 52.1 29.929 7.23 0.0 0 0.09 0.14 0.30 0.30
05/05/26 5:29:31 AM 38 1.0 9.0 57 88 65.2 52.1 29.930 7.23 0.0 0 0.09 0.14 0.30 0.30
05/05/26 5:30:26 AM 36 1.0 9.0 57 88 65.0 52.1 29.926 7.24 0.0 0 0.10 0.27 0.30 0.30
05/05/26 5:31:36 AM 39 0.0 9.0 57 88 65.0 52.1 29.930 7.24 0.0 0 0.10 0.27 0.30 0.30
05/05/26 5:32:28 AM 39 0.0 9.0 57 88 64.9 52.1 29.926 7.24 0.0 0 0.10 0.24 0.30 0.30
05/05/26 5:33:19 AM 40 0.0 9.0 57 88 64.9 52.1 29.928 7.24 0.0 0 0.10 0.20 0.30 0.30
05/05/26 5:34:32 AM 40 1.0 9.0 57 88 64.7 52.1 29.928 7.24 0.0 0 0.10 0.13 0.30 0.30
05/05/26 5:35:21 AM 39 1.0 9.0 58 88 64.7 52.1 29.925 7.24 0.0 0 0.10 0.11 0.30 0.30
05/05/26 5:36:31 AM 39 0.0 9.0 58 89 64.6 52.1 29.927 7.24 0.0 0 0.10 0.09 0.30 0.30
05/05/26 5:37:23 AM 39 2.0 9.0 58 89 64.6 52.1 29.927 7.25 0.0 0 0.11 0.09 0.30 0.30
05/05/26 5:38:18 AM 39 2.0 9.0 58 89 64.5 52.1 29.929 7.25 0.0 0 0.11 0.09 0.30 0.30
05/05/26 5:39:31 AM 40 2.0 9.0 58 89 64.4 52.1 29.929 7.25 0.0 0 0.11 0.09 0.30 0.30
05/05/26 5:40:16 AM 40 3.0 9.0 58 89 64.4 52.1 29.931 7.25 0.0 0 0.11 0.09 0.30 0.30
05/05/26 5:41:29 AM 39 1.0 9.0 58 89 64.3 52.1 29.931 7.25 0.0 0 0.11 0.09 0.30 0.30
05/05/26 5:42:24 AM 38 0.0 9.0 58 89 64.3 52.0 29.934 7.25 0.0 0 0.11 0.09 0.30 0.30
05/05/26 5:43:37 AM 40 0.0 9.0 59 89 64.2 52.0 29.934 7.25 0.0 0 0.11 0.09 0.30 0.30
05/05/26 5:44:29 AM 39 0.0 9.0 59 89 64.2 52.1 29.935 7.25 0.0 0 0.11 0.08 0.30 0.30
05/05/26 5:45:21 AM 40 0.0 9.0 59 89 64.2 52.0 29.937 7.25 0.0 0 0.11 0.07 0.30 0.30
05/05/26 5:46:31 AM 39 0.0 9.0 59 89 64.1 52.1 29.936 7.25 0.0 0 0.11 0.06 0.30 0.30
05/05/26 5:47:20 AM 39 0.0 9.0 59 89 64.1 52.0 29.936 7.25 0.0 0 0.11 0.06 0.30 0.30
05/05/26 5:48:33 AM 40 1.0 9.0 59 89 64.0 52.0 29.937 7.25 0.0 0 0.11 0.05 0.30 0.30
05/05/26 5:49:27 AM 40 0.0 9.0 59 89 64.0 52.0 29.936 7.25 0.0 0 0.11 0.05 0.30 0.30
05/05/26 5:50:16 AM 39 0.0 9.0 59 89 64.0 52.0 29.934 7.25 0.0 0 0.11 0.04 0.30 0.30
05/05/26 5:51:26 AM 39 0.0 9.0 59 89 63.9 52.1 29.934 7.25 0.0 0 0.11 0.04 0.30 0.30
05/05/26 5:52:18 AM 39 0.0 9.0 59 89 63.9 52.0 29.933 7.25 0.0 0 0.11 0.04 0.30 0.30
05/05/26 5:53:31 AM 39 0.0 9.0 59 89 63.8 52.0 29.933 7.25 0.0 0 0.11 0.04 0.30 0.30
05/05/26 5:54:20 AM 38 0.0 9.0 59 89 63.7 52.0 29.934 7.25 0.0 0 0.11 0.00 0.30 0.30
05/05/26 5:55:33 AM 39 0.0 9.0 59 89 63.8 52.0 29.934 7.25 0.0 0 0.11 0.00 0.30 0.30
05/05/26 5:56:22 AM 38 0.0 9.0 59 89 63.7 52.0 29.933 7.25 0.0 0 0.11 0.00 0.30 0.30
05/05/26 5:57:35 AM 40 0.0 9.0 60 89 63.7 52.1 29.933 7.26 0.0 0 0.12 0.00 0.30 0.30
05/05/26 5:58:24 AM 38 0.0 9.0 60 89 63.6 52.0 29.933 7.26 0.0 0 0.12 0.00 0.30 0.30
05/05/26 5:59:15 AM 39 0.0 9.0 60 89 63.6 52.0 29.933 7.26 0.0 0 0.12 0.00 0.30 0.30
05/05/26 6:00:31 AM 39 0.0 9.0 60 89 63.6 52.1 29.936 7.26 0.0 0 0.12 0.00 0.30 0.30
05/05/26 6:01:20 AM 40 1.0 9.0 60 89 63.5 52.0 29.936 7.26 0.0 0 0.12 0.00 0.30 0.00
05/05/26 6:02:30 AM 40 2.0 9.0 60 89 63.5 52.0 29.934 7.26 0.0 0 0.12 0.00 0.30 0.00
05/05/26 6:03:22 AM 38 2.0 9.0 61 89 63.5 52.1 29.935 7.26 0.0 0 0.12 0.00 0.30 0.00
05/05/26 6:04:35 AM 38 2.0 9.0 61 89 63.4 52.1 29.935 7.26 0.0 0 0.12 0.00 0.30 0.00
05/05/26 6:05:27 AM 38 1.0 9.0 61 89 63.5 52.1 29.936 7.26 0.0 0 0.12 0.00 0.30 0.00
05/05/26 6:06:19 AM 38 2.0 9.0 61 89 63.4 52.1 29.934 7.26 0.0 0 0.12 0.00 0.30 0.00
05/05/26 6:07:26 AM 38 1.0 9.0 61 89 63.4 52.1 29.936 7.26 0.0 0 0.12 0.00 0.30 0.00
05/05/26 6:08:17 AM 40 0.0 9.0 61 89 63.4 52.1 29.935 7.26 0.0 0 0.12 0.00 0.30 0.00
05/05/26 6:09:21 AM 38 0.0 9.0 61 89 63.4 52.1 29.934 7.26 0.0 0 0.12 0.00 0.30 0.00
05/05/26 6:10:31 AM 40 0.0 9.0 61 89 63.3 52.1 29.935 7.26 0.0 0 0.12 0.00 0.30 0.00
05/05/26 6:11:26 AM 39 1.0 9.0 61 89 63.3 52.1 29.935 7.26 0.0 5 0.12 0.00 0.30 0.00
05/05/26 6:12:30 AM 39 1.0 9.0 61 89 63.2 52.1 29.935 7.26 0.0 5 0.12 0.00 0.30 0.00
05/05/26 6:13:22 AM 39 0.0 9.0 61 89 63.2 52.1 29.936 7.26 0.0 7 0.12 0.00 0.30 0.00
05/05/26 6:14:35 AM 39 0.0 9.0 61 89 63.2 52.1 29.936 7.26 0.0 7 0.12 0.00 0.30 0.00
05/05/26 6:15:27 AM 39 0.0 9.0 61 89 63.2 52.1 29.936 7.26 0.0 7 0.12 0.00 0.30 0.00
05/05/26 6:16:19 AM 40 0.0 9.0 61 89 63.2 52.1 29.936 7.26 0.0 7 0.12 0.00 0.30 0.00
05/05/26 6:17:29 AM 38 0.0 9.0 61 89 63.2 52.1 29.937 7.26 0.0 7 0.12 0.00 0.30 0.00
05/05/26 6:18:17 AM 40 0.0 9.0 61 89 63.1 52.1 29.937 7.26 0.0 9 0.12 0.00 0.30 0.00
05/05/26 6:19:30 AM 40 3.0 9.0 61 89 63.2 52.1 29.937 7.26 0.0 9 0.12 0.00 0.30 0.00
05/05/26 6:20:22 AM 40 4.0 9.0 61 89 63.1 52.1 29.937 7.26 0.0 9 0.12 0.00 0.30 0.00
05/05/26 6:21:35 AM 38 4.0 9.0 61 89 63.1 52.1 29.937 7.26 0.0 9 0.12 0.00 0.30 0.00
05/05/26 6:22:27 AM 40 3.0 9.0 61 89 63.1 52.1 29.935 7.26 0.0 11 0.12 0.00 0.30 0.00
05/05/26 6:23:37 AM 38 3.0 9.0 61 89 63.1 52.1 29.937 7.26 0.0 12 0.12 0.00 0.30 0.00
05/05/26 6:24:29 AM 38 1.0 9.0 61 89 63.0 52.0 29.934 7.26 0.0 12 0.12 0.00 0.30 0.00
05/05/26 6:25:21 AM 38 2.0 9.0 61 89 63.1 52.0 29.937 7.26 0.0 14 0.12 0.00 0.30 0.00
05/05/26 6:26:31 AM 38 1.0 9.0 61 89 63.0 52.0 29.934 7.26 0.0 16 0.12 0.00 0.30 0.00
05/05/26 6:27:23 AM 39 2.0 9.0 61 89 63.0 52.0 29.935 7.26 0.0 18 0.12 0.00 0.30 0.00
05/05/26 6:28:32 AM 38 1.0 9.0 61 89 63.1 51.9 29.932 7.26 0.0 19 0.12 0.00 0.30 0.00
05/05/26 6:29:24 AM 38 1.0 9.0 61 89 63.0 51.9 29.936 7.26 0.0 23 0.12 0.00 0.30 0.00
05/05/26 6:30:37 AM 38 0.0 9.0 61 89 63.0 51.9 29.936 7.26 0.0 26 0.12 0.00 0.30 0.00
05/05/26 6:31:29 AM 39 1.0 9.0 61 89 62.9 51.9 29.936 7.26 0.0 28 0.12 0.00 0.30 0.00
05/05/26 6:32:21 AM 39 1.0 9.0 61 89 63.0 51.9 29.935 7.26 0.0 30 0.12 0.00 0.30 0.00
05/05/26 6:33:34 AM 39 1.0 9.0 61 89 62.9 51.9 29.934 7.26 0.0 30 0.12 0.00 0.30 0.00
05/05/26 6:34:20 AM 39 0.0 9.0 61 89 62.9 51.9 29.934 7.26 0.0 32 0.12 0.00 0.30 0.00
05/05/26 6:35:36 AM 39 0.0 9.0 61 89 62.9 51.9 29.935 7.26 0.0 32 0.12 0.00 0.30 0.00
05/05/26 6:36:25 AM 39 0.0 9.0 61 89 62.9 51.9 29.934 7.26 0.0 32 0.12 0.00 0.30 0.00
05/05/26 6:37:17 AM 39 0.0 9.0 61 89 62.8 51.9 29.932 7.26 0.0 32 0.12 0.00 0.30 0.00
05/05/26 6:38:30 AM 38 0.0 9.0 61 89 62.8 51.9 29.932 7.26 0.0 32 0.12 0.00 0.30 0.00
05/05/26 6:39:18 AM 38 0.0 9.0 61 89 62.8 51.9 29.931 7.26 0.0 32 0.12 0.00 0.30 0.00
05/05/26 6:40:31 AM 40 0.0 9.0 61 89 62.7 51.9 29.935 7.26 0.0 35 0.12 0.00 0.30 0.00
05/05/26 6:41:20 AM 38 0.0 9.0 61 89 62.8 51.9 29.931 7.26 0.0 35 0.12 0.00 0.30 0.00
05/05/26 6:42:33 AM 39 0.0 9.0 61 89 62.7 51.9 29.933 7.26 0.0 37 0.12 0.00 0.30 0.00
05/05/26 6:43:25 AM 39 0.0 9.0 61 89 62.7 51.9 29.932 7.26 0.0 40 0.12 0.00 0.30 0.00
05/05/26 6:44:17 AM 39 0.0 9.0 62 89 62.7 51.9 29.933 7.26 0.0 42 0.12 0.00 0.30 0.00
05/05/26 6:45:48 AM 38 2.0 9.0 62 89 62.7 51.9 29.934 7.26 0.0 42 0.12 0.00 0.30 0.00
05/05/26 6:46:19 AM 39 1.0 9.0 62 89 62.7 51.9 29.932 7.26 0.0 42 0.12 0.00 0.30 0.00
05/05/26 6:47:29 AM 39 0.0 9.0 62 89 62.6 52.0 29.933 7.26 0.0 40 0.12 0.00 0.30 0.00
05/05/26 6:48:20 AM 38 0.0 9.0 62 89 62.7 52.0 29.933 7.26 0.0 37 0.12 0.00 0.30 0.00
05/05/26 6:49:34 AM 38 0.0 9.0 62 90 62.7 52.0 29.934 7.26 0.0 33 0.12 0.00 0.30 0.00
05/05/26 6:50:22 AM 38 0.0 9.0 62 90 62.6 52.0 29.937 7.26 0.0 30 0.12 0.00 0.30 0.00
05/05/26 6:51:32 AM 39 0.0 9.0 62 90 62.6 52.1 29.936 7.26 0.0 26 0.12 0.00 0.30 0.00
05/05/26 6:52:24 AM 38 0.0 9.0 62 90 62.7 52.1 29.937 7.26 0.0 26 0.12 0.00 0.30 0.00
05/05/26 6:53:16 AM 39 0.0 9.0 62 90 62.6 52.1 29.935 7.26 0.0 26 0.12 0.00 0.30 0.00
05/05/26 6:54:32 AM 39 0.0 9.0 62 90 62.6 52.1 29.936 7.26 0.0 26 0.12 0.00 0.30 0.00
05/05/26 6:55:21 AM 38 0.0 9.0 62 90 62.6 52.1 29.937 7.26 0.0 26 0.12 0.00 0.30 0.00
05/05/26 6:56:31 AM 38 0.0 9.0 62 90 62.6 52.1 29.936 7.26 0.0 25 0.12 0.00 0.30 0.00
05/05/26 6:57:23 AM 39 1.0 9.0 62 90 62.6 52.1 29.938 7.26 0.0 25 0.12 0.00 0.30 0.00
05/05/26 6:58:33 AM 39 0.0 9.0 62 90 62.6 52.1 29.939 7.26 0.0 23 0.12 0.00 0.30 0.00
05/05/26 6:59:28 AM 40 0.0 9.0 62 90 62.6 52.2 29.935 7.26 0.0 23 0.12 0.00 0.30 0.00
05/05/26 7:00:20 AM 38 0.0 9.0 62 90 62.5 52.2 29.937 7.26 0.0 21 0.12 0.00 0.30 0.00
05/05/26 7:01:27 AM 38 0.0 9.0 62 90 62.6 52.2 29.939 7.26 0.0 21 0.12 0.00 0.30 0.00
05/05/26 7:02:18 AM 38 0.0 9.0 62 90 62.6 52.2 29.938 7.26 0.0 21 0.12 0.00 0.30 0.00
05/05/26 7:03:31 AM 38 0.0 9.0 62 90 62.6 52.2 29.939 7.26 0.0 21 0.12 0.00 0.30 0.00
05/05/26 7:04:23 AM 38 0.0 9.0 62 90 62.5 52.2 29.936 7.26 0.0 23 0.12 0.00 0.30 0.00
05/05/26 7:05:33 AM 38 0.0 9.0 62 90 62.5 52.2 29.939 7.26 0.0 23 0.12 0.00 0.30 0.00
05/05/26 7:06:22 AM 38 0.0 9.0 62 90 62.5 52.2 29.939 7.26 0.0 26 0.12 0.00 0.30 0.00
05/05/26 7:07:35 AM 39 0.0 9.0 62 90 62.5 52.2 29.939 7.26 0.0 28 0.12 0.00 0.30 0.00
05/05/26 7:08:27 AM 38 0.0 9.0 62 90 62.5 52.2 29.937 7.26 0.0 30 0.12 0.00 0.30 0.00
05/05/26 7:09:19 AM 38 0.0 9.0 62 90 62.5 52.3 29.937 7.26 0.0 30 0.12 0.00 0.30 0.00
05/05/26 7:10:29 AM 39 0.0 9.0 62 90 62.5 52.2 29.937 7.26 0.0 26 0.12 0.00 0.30 0.00
05/05/26 7:11:21 AM 40 0.0 9.0 62 90 62.5 52.2 29.939 7.26 0.0 26 0.12 0.00 0.30 0.00
05/05/26 7:12:31 AM 39 0.0 9.0 62 90 62.5 52.2 29.942 7.26 0.0 18 0.12 0.00 0.30 0.00
05/05/26 7:13:23 AM 38 0.0 9.0 63 90 62.5 52.2 29.938 7.26 0.0 14 0.12 0.00 0.30 0.00
05/05/26 7:14:36 AM 38 0.0 9.0 63 90 62.5 52.3 29.938 7.26 0.0 12 0.12 0.00 0.30 0.00
05/05/26 7:15:31 AM 38 4.0 9.0 63 90 62.5 52.3 29.940 7.26 0.0 12 0.12 0.00 0.30 0.00
05/05/26 7:16:19 AM 38 3.0 9.0 64 90 62.5 52.3 29.942 7.26 0.0 12 0.12 0.00 0.30 0.00
05/05/26 7:17:30 AM 38 3.0 9.0 64 90 62.4 52.3 29.944 7.26 0.0 19 0.12 0.00 0.30 0.00
05/05/26 7:18:21 AM 38 5.0 9.0 64 90 62.5 52.3 29.942 7.26 0.0 25 0.12 0.00 0.30 0.00
05/05/26 7:19:34 AM 39 4.0 9.0 64 90 62.5 52.3 29.943 7.26 0.0 30 0.12 0.00 0.30 0.00
05/05/26 7:20:23 AM 36 3.0 9.0 64 90 62.5 52.3 29.943 7.26 0.0 37 0.12 0.00 0.30 0.00
05/05/26 7:21:18 AM 34 3.0 9.0 64 90 62.4 52.3 29.946 7.26 0.0 44 0.12 0.00 0.30 0.00
05/05/26 7:22:25 AM 38 3.0 9.0 64 90 62.4 52.3 29.943 7.26 0.0 51 0.12 0.00 0.30 0.00
05/05/26 7:23:17 AM 38 2.0 9.0 64 90 62.4 52.3 29.942 7.26 0.0 56 0.12 0.00 0.30 0.00
05/05/26 7:24:27 AM 36 1.0 9.0 64 90 62.4 52.3 29.944 7.26 0.0 58 0.12 0.00 0.30 0.00
05/05/26 7:25:22 AM 36 0.0 9.0 64 90 62.4 52.3 29.943 7.26 0.0 60 0.12 0.00 0.30 0.00
05/05/26 7:26:32 AM 36 0.0 9.0 64 90 62.4 52.3 29.945 7.26 0.0 62 0.12 0.00 0.30 0.00
05/05/26 7:27:27 AM 36 0.0 9.0 64 90 62.4 52.3 29.943 7.26 0.0 62 0.12 0.00 0.30 0.00
05/05/26 7:28:34 AM 38 2.0 9.0 64 90 62.4 52.3 29.942 7.26 0.0 58 0.12 0.00 0.30 0.00
05/05/26 7:29:26 AM 35 2.0 9.0 64 90 62.4 52.4 29.945 7.26 0.0 58 0.12 0.00 0.30 0.00
05/05/26 7:30:39 AM 32 3.0 9.0 64 90 62.4 52.4 29.946 7.26 0.0 60 0.12 0.00 0.30 0.00
05/05/26 7:31:31 AM 34 1.0 9.0 64 90 62.4 52.4 29.944 7.26 0.0 60 0.12 0.00 0.30 0.00
05/05/26 7:32:22 AM 34 0.0 9.0 64 90 62.4 52.4 29.943 7.26 0.0 62 0.12 0.00 0.30 0.00
05/05/26 7:33:29 AM 32 0.0 9.0 64 90 62.4 52.4 29.944 7.26 0.0 63 0.12 0.00 0.30 0.00
05/05/26 7:34:21 AM 31 0.0 9.0 64 90 62.4 52.4 29.944 7.26 0.0 65 0.12 0.00 0.30 0.00
05/05/26 7:35:34 AM 32 0.0 9.0 64 90 62.4 52.4 29.942 7.26 0.0 67 0.12 0.00 0.30 0.00
05/05/26 7:36:26 AM 32 0.0 9.0 64 90 62.3 52.4 29.944 7.26 0.0 67 0.12 0.00 0.30 0.00
05/05/26 7:37:18 AM 34 1.0 9.0 64 90 62.3 52.4 29.940 7.26 0.0 69 0.12 0.00 0.30 0.00
05/05/26 7:38:31 AM 36 1.0 9.0 64 90 62.3 52.4 29.940 7.26 0.0 70 0.12 0.00 0.30 0.00
05/05/26 7:39:17 AM 35 1.0 9.0 64 90 62.4 52.4 29.947 7.26 0.0 72 0.12 0.00 0.30 0.00
05/05/26 7:40:30 AM 35 2.0 9.0 64 90 62.3 52.4 29.945 7.26 0.0 77 0.12 0.00 0.30 0.00
05/05/26 7:41:19 AM 34 1.0 9.0 64 90 62.3 52.5 29.944 7.26 0.0 77 0.12 0.00 0.30 0.00
05/05/26 7:42:32 AM 32 1.0 9.0 64 90 62.3 52.5 29.945 7.26 0.0 77 0.12 0.00 0.30 0.00
05/05/26 7:43:24 AM 32 2.0 9.0 64 90 62.3 52.5 29.945 7.26 0.0 76 0.12 0.00 0.30 0.00
05/05/26 7:44:31 AM 31 1.0 9.0 64 90 62.3 52.5 29.945 7.26 0.0 74 0.12 0.00 0.30 0.00
05/05/26 7:45:26 AM 36 2.0 9.0 64 90 62.3 52.5 29.945 7.26 0.0 72 0.12 0.00 0.30 0.00
05/05/26 7:46:18 AM 28 1.0 9.0 64 90 62.3 52.5 29.945 7.26 0.0 72 0.12 0.00 0.30 0.00
05/05/26 7:47:28 AM 32 2.0 9.0 64 90 62.3 52.5 29.948 7.26 0.0 69 0.12 0.00 0.30 0.00
05/05/26 7:48:20 AM 35 2.0 9.0 64 90 62.3 52.6 29.947 7.26 0.0 67 0.12 0.00 0.30 0.00
05/05/26 7:49:27 AM 34 2.0 9.0 64 90 62.3 52.6 29.946 7.26 0.0 67 0.12 0.00 0.30 0.00
05/05/26 7:50:19 AM 31 2.0 9.0 64 90 62.3 52.6 29.945 7.26 0.0 67 0.12 0.00 0.30 0.00
05/05/26 7:51:29 AM 34 2.0 9.0 64 90 62.3 52.6 29.947 7.26 0.0 69 0.12 0.00 0.30 0.00
05/05/26 7:52:23 AM 32 2.0 9.0 64 90 62.3 52.6 29.948 7.26 0.0 69 0.12 0.00 0.30 0.00
05/05/26 7:53:33 AM 35 2.0 9.0 64 90 62.3 52.6 29.947 7.26 0.0 69 0.12 0.00 0.30 0.00
05/05/26 7:54:25 AM 35 2.0 9.0 64 90 62.3 52.6 29.946 7.26 0.0 67 0.12 0.00 0.30 0.00
05/05/26 7:55:35 AM 30 2.0 9.0 64 90 62.3 52.6 29.947 7.26 0.0 62 0.12 0.00 0.30 0.00
05/05/26 7:56:27 AM 31 2.0 9.0 64 90 62.3 52.6 29.950 7.26 0.0 58 0.12 0.00 0.30 0.00
05/05/26 7:57:16 AM 32 3.0 9.0 64 90 62.3 52.6 29.949 7.26 0.0 58 0.12 0.00 0.30 0.00
05/05/26 7:58:29 AM 32 2.0 9.0 64 90 62.3 52.6 29.948 7.26 0.0 54 0.12 0.00 0.30 0.00
05/05/26 7:59:21 AM 35 1.0 9.0 64 90 62.3 52.6 29.947 7.26 0.0 49 0.12 0.00 0.30 0.00
05/05/26 8:00:52 AM 35 2.0 9.0 64 90 62.3 52.6 29.950 7.26 0.0 47 0.12 0.00 0.30 0.00
05/05/26 8:01:26 AM 34 1.0 9.0 64 90 62.3 52.6 29.952 7.26 0.0 47 0.12 0.00 0.30 0.00
05/05/26 8:02:18 AM 32 1.0 9.0 64 90 62.3 52.6 29.951 7.26 0.0 47 0.12 0.00 0.30 0.00
05/05/26 8:03:28 AM 35 0.0 9.0 64 90 62.3 52.7 29.948 7.26 0.0 46 0.12 0.00 0.30 0.00
05/05/26 8:04:20 AM 39 3.0 9.0 64 90 62.3 52.7 29.950 7.26 0.0 46 0.12 0.00 0.30 0.00
05/05/26 8:05:33 AM 34 2.0 9.0 64 90 62.3 52.8 29.950 7.26 0.0 58 0.12 0.00 0.30 0.00
05/05/26 8:06:19 AM 35 2.0 9.0 64 90 62.3 52.8 29.949 7.26 0.0 69 0.12 0.00 0.30 0.00
05/05/26 8:07:32 AM 31 3.0 9.0 64 90 62.3 52.8 29.949 7.26 0.0 84 0.12 0.00 0.30 0.00
05/05/26 8:08:36 AM 35 1.0 9.0 64 90 62.3 52.8 29.949 7.26 0.0 84 0.12 0.00 0.30 0.00
05/05/26 8:09:24 AM 32 1.0 9.0 64 90 62.3 52.7 29.949 7.26 0.0 111 0.12 0.00 0.30 0.00
05/05/26 8:10:19 AM 31 1.0 9.0 64 90 62.3 52.8 29.950 7.26 0.0 120 0.12 0.00 0.30 0.00
05/05/26 8:11:26 AM 36 1.0 9.0 64 90 62.3 52.8 29.950 7.26 0.0 120 0.12 0.00 0.30 0.00
05/05/26 8:12:18 AM 31 0.0 9.0 64 90 62.3 52.8 29.951 7.26 0.0 120 0.12 0.00 0.30 0.00
05/05/26 8:13:31 AM 35 0.0 9.0 64 90 62.3 52.8 29.951 7.26 0.0 120 0.12 0.00 0.30 0.00
05/05/26 8:14:23 AM 34 0.0 9.0 64 90 62.3 52.8 29.952 7.26 0.0 120 0.12 0.00 0.30 0.00
05/05/26 8:15:36 AM 31 0.0 9.0 64 90 62.3 52.8 29.955 7.26 0.0 105 0.12 0.00 0.30 0.00
05/05/26 8:16:28 AM 34 0.0 9.0 64 90 62.3 52.9 29.951 7.26 0.0 105 0.12 0.00 0.30 0.00
05/05/26 8:17:17 AM 35 0.0 9.0 64 90 62.3 52.9 29.953 7.26 0.0 114 0.12 0.00 0.30 0.00
05/05/26 8:18:27 AM 35 0.0 9.0 64 90 62.3 52.9 29.953 7.26 0.0 114 0.12 0.00 0.30 0.00
05/05/26 8:19:19 AM 34 0.0 9.0 64 90 62.3 53.0 29.955 7.26 0.0 125 0.12 0.00 0.30 0.00
05/05/26 8:20:32 AM 34 0.0 9.0 64 90 62.3 53.0 29.955 7.26 0.0 123 0.12 0.00 0.30 0.00
05/05/26 8:21:24 AM 31 0.0 9.0 64 90 62.3 53.0 29.953 7.26 0.0 120 0.12 0.00 0.30 0.00
05/05/26 8:22:31 AM 32 0.0 9.0 64 90 62.3 53.0 29.954 7.26 0.0 120 0.12 0.00 0.30 0.00
05/05/26 8:23:23 AM 36 0.0 9.0 64 90 62.3 53.0 29.953 7.26 0.0 116 0.12 0.00 0.30 0.00
05/05/26 8:24:36 AM 35 0.0 9.0 64 90 62.3 52.9 29.954 7.26 0.0 93 0.12 0.00 0.30 0.00
05/05/26 8:25:27 AM 34 0.0 9.0 64 90 62.3 53.0 29.955 7.26 0.0 79 0.12 0.00 0.30 0.00
05/05/26 8:26:19 AM 35 0.0 9.0 64 90 62.3 53.0 29.954 7.26 0.0 79 0.12 0.00 0.30 0.00
05/05/26 8:27:29 AM 35 2.0 9.0 64 90 62.3 53.0 29.956 7.26 0.0 54 0.12 0.00 0.30 0.00
05/05/26 8:28:18 AM 32 2.0 9.0 64 90 62.3 53.0 29.957 7.26 0.0 47 0.12 0.00 0.30 0.00
05/05/26 8:29:31 AM 35 1.0 9.0 64 90 62.3 53.0 29.955 7.26 0.0 47 0.12 0.00 0.30 0.00
05/05/26 8:30:47 AM 35 0.0 9.0 64 90 62.3 53.1 29.955 7.26 0.0 42 0.12 0.00 0.30 0.00
05/05/26 8:31:18 AM 35 3.0 9.0 64 90 62.3 53.1 29.957 7.26 0.0 42 0.12 0.00 0.30 0.00
05/05/26 8:32:31 AM 32 3.0 9.0 64 90 62.3 53.1 29.956 7.26 0.0 62 0.12 0.00 0.30 0.00
05/05/26 8:33:20 AM 30 2.0 9.0 64 90 62.3 53.1 29.956 7.26 0.0 79 0.12 0.00 0.30 0.00
05/05/26 8:34:33 AM 34 0.0 9.0 64 89 62.3 53.1 29.955 7.26 0.0 100 0.12 0.00 0.30 0.00
05/05/26 8:35:25 AM 38 4.0 9.0 64 89 62.3 53.1 29.955 7.26 0.0 120 0.12 0.00 0.30 0.00
05/05/26 8:36:17 AM 35 4.0 9.0 64 89 62.3 53.1 29.954 7.26 0.0 120 0.12 0.00 0.30 0.00
05/05/26 8:37:30 AM 36 3.0 9.0 64 89 62.3 53.2 29.955 7.26 0.0 134 0.12 0.00 0.30 0.00
05/05/26 8:38:22 AM 34 1.0 9.0 64 89 62.3 53.2 29.954 7.26 0.0 130 0.12 0.00 0.30 0.00
05/05/26 8:39:29 AM 30 0.0 9.0 64 89 62.3 53.2 29.958 7.26 0.0 127 0.12 0.00 0.30 0.00
05/05/26 8:40:21 AM 34 0.0 9.0 64 89 62.3 53.2 29.955 7.26 0.0 118 0.12 0.00 0.30 0.00
05/05/26 8:41:34 AM 32 1.0 9.0 64 89 62.3 53.3 29.958 7.26 0.0 86 0.12 0.00 0.30 0.00
05/05/26 8:42:26 AM 36 2.0 9.0 64 89 62.3 53.3 29.955 7.26 0.0 77 0.12 0.00 0.30 0.00
05/05/26 8:43:18 AM 38 1.0 9.0 64 89 62.3 53.3 29.958 7.26 0.0 69 0.12 0.00 0.30 0.00
05/05/26 8:44:25 AM 32 2.0 9.0 64 89 62.3 53.3 29.958 7.26 0.0 62 0.12 0.00 0.30 0.00
05/05/26 8:45:17 AM 34 1.0 9.0 64 89 62.3 53.4 29.954 7.26 0.0 56 0.12 0.00 0.30 0.00
05/05/26 8:46:30 AM 34 1.0 9.0 64 90 62.3 53.4 29.957 7.26 0.0 56 0.12 0.00 0.30 0.00
05/05/26 8:47:22 AM 35 3.0 9.0 64 90 62.4 53.4 29.957 7.26 0.0 56 0.12 0.00 0.30 0.00
05/05/26 8:48:32 AM 34 3.0 9.0 64 89 62.4 53.4 29.956 7.26 0.0 42 0.12 0.00 0.30 0.00
05/05/26 8:49:21 AM 35 6.0 9.0 64 89 62.3 53.4 29.955 7.26 0.0 40 0.12 0.00 0.30 0.00
05/05/26 8:50:31 AM 32 4.0 9.0 64 89 62.4 53.4 29.956 7.26 0.0 46 0.12 0.00 0.30 0.00
05/05/26 8:51:23 AM 34 8.0 9.0 64 89 62.3 53.5 29.958 7.26 0.0 54 0.12 0.00 0.30 0.00
05/05/26 8:52:18 AM 32 5.0 9.0 64 89 62.3 53.5 29.959 7.26 0.0 67 0.12 0.00 0.30 0.00
05/05/26 8:53:28 AM 34 4.0 9.0 64 89 62.3 53.4 29.961 7.26 0.0 84 0.12 0.00 0.30 0.00
05/05/26 8:54:23 AM 35 3.0 9.0 64 89 62.3 53.4 29.958 7.26 0.0 105 0.12 0.00 0.30 0.00
05/05/26 8:55:30 AM 35 9.0 9.0 64 89 62.3 53.4 29.962 7.26 0.0 149 0.12 0.00 0.30 0.00
05/05/26 8:56:22 AM 34 4.0 9.0 64 89 62.3 53.4 29.962 7.26 0.5 149 0.12 0.00 0.30 0.00
05/05/26 8:57:32 AM 35 7.0 9.0 64 89 62.3 53.5 29.958 7.26 0.6 178 0.12 0.00 0.30 0.00
05/05/26 8:58:24 AM 32 6.0 9.0 64 89 62.3 53.5 29.961 7.26 0.6 192 0.12 0.00 0.30 0.00
05/05/26 8:59:37 AM 35 5.0 9.0 64 89 62.4 53.5 29.962 7.26 0.7 204 0.12 0.00 0.30 0.00
05/05/26 9:00:26 AM 36 9.0 9.0 64 89 62.3 53.5 29.961 7.26 0.8 221 0.12 0.00 0.30 0.00
05/05/26 9:01:36 AM 36 6.0 9.0 64 89 62.3 53.5 29.961 7.26 0.9 221 0.12 0.00 0.30 0.00
05/05/26 9:02:28 AM 35 3.0 9.0 64 89 62.3 53.5 29.958 7.26 0.9 239 0.12 0.00 0.30 0.00
05/05/26 9:03:20 AM 32 5.0 9.0 64 89 62.4 53.6 29.959 7.26 0.9 248 0.12 0.00 0.30 0.00
05/05/26 9:04:33 AM 36 7.0 9.0 64 88 62.3 53.6 29.962 7.26 0.9 267 0.12 0.00 0.30 0.00
05/05/26 9:05:22 AM 32 6.0 9.0 64 88 62.3 53.7 29.964 7.26 1.0 290 0.12 0.00 0.30 0.00
05/05/26 9:06:32 AM 34 5.0 9.0 64 88 62.3 53.7 29.964 7.26 0.9 299 0.12 0.00 0.30 0.00
05/05/26 9:07:24 AM 30 4.0 9.0 64 88 62.3 53.8 29.961 7.26 0.9 295 0.12 0.00 0.30 0.00
05/05/26 9:08:15 AM 36 3.0 9.0 64 89 62.3 53.8 29.962 7.26 0.9 295 0.12 0.00 0.30 0.00
05/05/26 9:09:28 AM 32 3.0 9.0 64 88 62.3 53.9 29.966 7.26 0.9 308 0.12 0.00 0.30 0.00
05/05/26 9:10:21 AM 32 2.0 9.0 64 88 62.3 53.9 29.965 7.26 0.9 279 0.12 0.00 0.30 0.00
05/05/26 9:11:28 AM 36 5.0 9.0 64 88 62.3 53.9 29.966 7.26 0.6 176 0.12 0.00 0.30 0.00
05/05/26 9:12:19 AM 35 6.0 9.0 64 88 62.4 54.0 29.967 7.26 0.5 176 0.12 0.00 0.30 0.00
05/05/26 9:13:33 AM 38 7.0 9.0 64 88 62.3 54.0 29.969 7.26 0.0 102 0.12 0.00 0.30 0.00
05/05/26 9:14:25 AM 36 6.0 9.0 64 88 62.4 54.1 29.967 7.26 0.0 90 0.12 0.00 0.30 0.00
05/05/26 9:15:38 AM 36 3.0 9.0 64 88 62.3 54.0 29.967 7.26 0.0 84 0.12 0.00 0.30 0.00
05/05/26 9:16:24 AM 36 5.0 9.0 64 87 62.3 54.0 29.968 7.26 0.0 84 0.12 0.00 0.30 0.00
05/05/26 9:17:34 AM 35 6.0 9.0 64 87 62.4 54.0 29.967 7.26 0.0 86 0.12 0.00 0.30 0.00
05/05/26 9:18:25 AM 37 7.0 9.0 64 87 62.4 54.0 29.970 7.26 0.0 90 0.12 0.00 0.30 0.00
05/05/26 9:19:18 AM 32 6.0 10.0 64 87 62.4 54.0 29.975 7.26 0.0 91 0.12 0.00 0.30 0.00
05/05/26 9:20:34 AM 32 6.0 10.0 64 87 62.4 53.9 29.971 7.26 0.0 93 0.12 0.00 0.30 0.00
05/05/26 9:21:20 AM 36 5.0 10.0 64 87 62.4 53.9 29.971 7.26 0.0 95 0.12 0.00 0.30 0.00
05/05/26 9:22:33 AM 32 6.0 10.0 64 87 62.4 53.9 29.971 7.26 0.0 97 0.12 0.00 0.30 0.00
05/05/26 9:23:25 AM 36 7.0 10.0 64 87 62.4 53.9 29.973 7.26 0.0 98 0.12 0.00 0.30 0.00
05/05/26 9:24:17 AM 35 6.0 10.0 64 87 62.4 53.9 29.973 7.26 0.0 104 0.12 0.00 0.30 0.00
05/05/26 9:25:30 AM 37 4.0 10.0 64 86 62.4 53.9 29.973 7.26 0.0 123 0.12 0.00 0.30 0.00
05/05/26 9:26:22 AM 36 3.0 10.0 64 86 62.4 53.8 29.973 7.26 0.5 123 0.12 0.00 0.30 0.00
05/05/26 9:27:29 AM 36 4.0 10.0 64 86 62.4 53.8 29.975 7.26 0.5 146 0.12 0.00 0.30 0.00
05/05/26 9:28:21 AM 36 4.0 10.0 64 87 62.4 53.9 29.973 7.26 0.6 156 0.12 0.00 0.30 0.00
05/05/26 9:29:34 AM 36 2.0 10.0 64 87 62.4 53.9 29.975 7.26 0.7 169 0.12 0.00 0.30 0.00
05/05/26 9:30:29 AM 38 1.0 10.0 64 87 62.4 53.9 29.974 7.26 0.8 181 0.12 0.00 0.30 0.00
05/05/26 9:31:18 AM 31 2.0 10.0 64 87 62.4 54.0 29.975 7.26 0.8 181 0.12 0.00 0.30 0.00
05/05/26 9:32:25 AM 32 4.0 10.0 64 87 62.4 54.0 29.975 7.26 0.9 200 0.12 0.00 0.30 0.00
05/05/26 9:33:17 AM 36 2.0 10.0 64 87 62.4 54.1 29.975 7.26 0.9 209 0.12 0.00 0.30 0.00
05/05/26 9:34:30 AM 32 2.0 10.0 64 87 62.4 54.1 29.975 7.26 0.9 216 0.12 0.00 0.30 0.00
05/05/26 9:35:22 AM 36 3.0 10.0 64 87 62.4 54.1 29.975 7.26 1.0 229 0.12 0.00 0.30 0.00
05/05/26 9:36:32 AM 32 3.0 10.0 64 87 62.4 54.2 29.977 7.26 1.0 237 0.12 0.00 0.30 0.00
05/05/26 9:37:21 AM 35 3.0 10.0 64 87 62.4 54.2 29.975 7.26 1.1 248 0.12 0.00 0.30 0.00
05/05/26 9:38:31 AM 38 9.0 10.0 64 87 62.4 54.4 29.976 7.26 1.1 255 0.12 0.00 0.30 0.00
05/05/26 9:39:23 AM 35 5.0 10.0 64 87 62.4 54.5 29.974 7.26 1.1 262 0.12 0.00 0.30 0.00
05/05/26 9:40:33 AM 32 3.0 10.0 64 86 62.4 54.5 29.975 7.26 1.2 285 0.12 0.00 0.30 0.00
05/05/26 9:41:28 AM 34 3.0 10.0 64 86 62.4 54.5 29.977 7.26 1.2 306 0.12 0.00 0.30 0.00
05/05/26 9:42:20 AM 35 4.0 10.0 64 86 62.4 54.5 29.974 7.26 1.3 306 0.12 0.00 0.30 0.00
05/05/26 9:43:27 AM 36 4.0 10.0 64 86 62.4 54.5 29.977 7.26 1.3 367 0.12 0.00 0.30 0.00
05/05/26 9:44:19 AM 35 2.0 10.0 64 86 62.4 54.6 29.977 7.26 1.4 408 0.12 0.00 0.30 0.00
05/05/26 9:45:32 AM 36 4.0 10.0 64 86 62.4 54.6 29.976 7.26 1.4 399 0.12 0.00 0.30 0.00
05/05/26 9:46:24 AM 36 6.0 10.0 64 86 62.4 54.7 29.976 7.26 1.4 399 0.12 0.00 0.30 0.00
05/05/26 9:47:16 AM 34 3.0 10.0 64 86 62.4 54.7 29.980 7.26 1.5 410 0.12 0.00 0.30 0.00
05/05/26 9:48:23 AM 32 3.0 10.0 64 86 62.4 54.8 29.978 7.26 1.4 404 0.12 0.00 0.30 0.00
05/05/26 9:49:36 AM 34 3.0 10.0 64 86 62.4 54.9 29.978 7.26 1.4 404 0.12 0.00 0.30 0.00
05/05/26 9:50:25 AM 35 4.0 10.0 64 86 62.5 55.0 29.976 7.26 1.4 410 0.12 0.00 0.30 0.00
05/05/26 9:51:20 AM 36 3.0 10.0 64 86 62.5 55.1 29.978 7.26 1.2 346 0.12 0.00 0.30 0.00
05/05/26 9:52:30 AM 36 1.0 10.0 64 86 62.5 55.2 29.979 7.26 1.1 302 0.12 0.00 0.30 0.00
05/05/26 9:53:19 AM 35 5.0 10.0 64 85 62.5 55.2 29.978 7.26 1.0 274 0.12 0.00 0.30 0.00
05/05/26 9:54:29 AM 36 2.0 10.0 64 85 62.5 55.2 29.979 7.26 1.0 264 0.12 0.00 0.30 0.00
05/05/26 9:55:24 AM 35 6.0 10.0 64 85 62.5 55.2 29.979 7.26 1.1 265 0.12 0.00 0.30 0.00
05/05/26 9:56:34 AM 37 3.0 10.0 64 85 62.5 55.3 29.978 7.26 1.1 262 0.12 0.00 0.30 0.00
05/05/26 9:57:26 AM 37 4.0 10.0 64 85 62.5 55.3 29.979 7.26 1.2 264 0.12 0.00 0.30 0.00
05/05/26 9:58:33 AM 35 4.0 10.0 64 85 62.6 55.3 29.977 7.26 1.3 274 0.12 0.00 0.30 0.00
05/05/26 9:59:25 AM 36 7.0 10.0 64 85 62.5 55.4 29.977 7.26 1.3 279 0.12 0.00 0.30 0.00
05/05/26 10:00:38 AM 34 5.0 10.0 64 84 62.5 55.5 29.975 7.26 1.4 287 0.12 0.00 0.30 0.00
05/05/26 10:01:27 AM 37 4.0 10.0 64 84 62.6 55.5 29.975 7.26 1.4 287 0.12 0.00 0.30 0.00
05/05/26 10:02:22 AM 29 6.0 10.0 64 84 62.5 55.5 29.977 7.26 1.5 322 0.12 0.00 0.30 0.00
05/05/26 10:03:32 AM 31 4.0 10.0 64 84 62.5 55.4 29.978 7.26 1.5 352 0.12 0.00 0.30 0.00
05/05/26 10:04:18 AM 36 5.0 10.0 64 83 62.5 55.5 29.979 7.26 1.5 383 0.12 0.00 0.30 0.00
05/05/26 10:05:31 AM 34 4.0 10.0 64 84 62.5 55.5 29.980 7.26 1.5 422 0.12 0.00 0.30 0.00
05/05/26 10:06:23 AM 32 3.0 10.0 64 84 62.5 55.6 29.979 7.26 1.9 497 0.12 0.00 0.30 0.00
05/05/26 10:07:36 AM 35 4.0 10.0 64 84 62.6 55.8 29.979 7.26 1.9 554 0.12 0.00 0.30 0.00
05/05/26 10:08:37 AM 37 3.0 10.0 64 84 62.6 55.9 29.980 7.26 1.9 527 0.12 0.00 0.30 0.00
05/05/26 10:09:26 AM 36 4.0 10.0 64 83 62.6 55.9 29.981 7.26 1.9 527 0.12 0.00 0.30 0.00
05/05/26 10:10:18 AM 35 1.0 10.0 64 83 62.6 56.0 29.980 7.26 2.0 489 0.12 0.00 0.30 0.00
05/05/26 10:11:31 AM 36 5.0 10.0 64 83 62.6 56.0 29.981 7.26 2.0 489 0.12 0.00 0.30 0.00
05/05/26 10:12:23 AM 34 4.0 10.0 64 83 62.6 56.1 29.981 7.26 1.7 490 0.12 0.00 0.30 0.00
05/05/26 10:13:33 AM 34 1.0 10.0 64 82 62.6 56.2 29.982 7.26 1.7 510 0.12 0.00 0.30 0.00
05/05/26 10:14:25 AM 36 4.0 10.0 64 82 62.6 56.3 29.982 7.26 1.7 483 0.12 0.00 0.30 0.00
05/05/26 10:15:57 AM 35 2.0 10.0 64 82 62.6 56.4 29.981 7.26 1.6 427 0.12 0.00 0.30 0.00
05/05/26 10:16:27 AM 38 3.0 10.0 64 82 62.6 56.5 29.979 7.26 1.5 417 0.12 0.00 0.30 0.00
05/05/26 10:17:20 AM 34 8.0 10.0 64 82 62.6 56.6 29.980 7.26 1.5 410 0.12 0.00 0.30 0.00
05/05/26 10:18:30 AM 36 2.0 10.0 64 81 62.7 56.7 29.982 7.26 1.4 369 0.12 0.00 0.30 0.00
05/05/26 10:19:22 AM 35 5.0 10.0 64 81 62.7 56.7 29.981 7.26 1.3 353 0.12 0.00 0.30 0.00
05/05/26 10:20:32 AM 34 3.0 10.0 64 81 62.7 56.8 29.982 7.26 1.3 339 0.12 0.00 0.30 0.00
05/05/26 10:21:24 AM 34 6.0 10.0 64 80 62.7 56.8 29.981 7.26 1.3 313 0.12 0.00 0.30 0.00
05/05/26 10:22:37 AM 36 2.0 10.0 64 80 62.8 56.9 29.981 7.26 1.3 304 0.12 0.00 0.30 0.00
05/05/26 10:23:26 AM 37 1.0 10.0 64 80 62.7 56.9 29.983 7.26 1.2 299 0.12 0.00 0.30 0.00
05/05/26 10:24:18 AM 35 1.0 10.0 64 79 62.8 56.9 29.981 7.26 1.2 299 0.12 0.00 0.30 0.00
05/05/26 10:25:31 AM 36 3.0 10.0 64 80 62.8 56.9 29.981 7.26 1.3 297 0.12 0.00 0.30 0.00
05/05/26 10:26:20 AM 35 3.0 10.0 64 79 62.8 56.9 29.981 7.26 1.2 297 0.12 0.00 0.30 0.00
05/05/26 10:27:30 AM 35 4.0 10.0 64 79 62.8 57.0 29.985 7.26 1.1 269 0.12 0.00 0.30 0.00
05/05/26 10:28:26 AM 32 5.0 10.0 64 80 62.8 57.1 29.983 7.26 1.1 246 0.12 0.00 0.30 0.00
05/05/26 10:29:36 AM 36 4.0 10.0 64 79 62.8 57.2 29.981 7.26 0.9 229 0.12 0.00 0.30 0.00
05/05/26 10:30:49 AM 36 2.0 10.0 64 78 62.8 57.2 29.983 7.26 0.9 211 0.12 0.00 0.30 0.00
05/05/26 10:31:20 AM 31 4.0 10.0 64 77 62.9 57.2 29.983 7.26 0.9 197 0.12 0.00 0.30 0.00
05/05/26 10:32:27 AM 35 6.0 10.0 64 77 62.9 57.2 29.984 7.26 0.8 183 0.12 0.00 0.30 0.00
05/05/26 10:33:19 AM 36 5.0 10.0 64 77 62.9 57.2 29.985 7.26 0.8 176 0.12 0.00 0.30 0.00
05/05/26 10:34:29 AM 37 5.0 10.0 64 76 62.9 57.2 29.984 7.26 0.9 174 0.12 0.00 0.30 0.00
05/05/26 10:35:21 AM 36 3.0 10.0 64 76 63.0 57.2 29.982 7.26 0.9 178 0.12 0.00 0.30 0.00
05/05/26 10:36:34 AM 36 4.0 10.0 64 77 63.0 57.2 29.983 7.26 1.0 178 0.12 0.00 0.30 0.00
05/05/26 10:37:23 AM 35 5.0 10.0 64 76 63.0 57.2 29.983 7.26 1.1 193 0.12 0.00 0.30 0.00
05/05/26 10:38:33 AM 32 5.0 10.0 64 76 63.0 57.2 29.982 7.26 1.2 204 0.12 0.00 0.30 0.00
05/05/26 10:39:26 AM 36 5.0 10.0 64 76 63.0 57.2 29.982 7.26 1.3 221 0.12 0.00 0.30 0.00
05/05/26 10:40:18 AM 34 4.0 10.0 64 76 63.0 57.1 29.983 7.26 1.3 241 0.12 0.00 0.30 0.00
05/05/26 10:41:31 AM 36 7.0 10.0 64 75 63.0 57.1 29.987 7.26 1.4 295 0.12 0.00 0.30 0.00
05/05/26 10:42:17 AM 38 6.0 10.0 64 75 63.0 57.0 29.987 7.26 1.4 295 0.12 0.00 0.30 0.00
05/05/26 10:43:30 AM 38 4.0 10.0 64 75 63.0 57.0 29.983 7.26 2.0 322 0.12 0.00 0.30 0.00
05/05/26 10:44:22 AM 37 6.0 10.0 64 76 63.0 57.0 29.986 7.26 2.0 417 0.12 0.00 0.30 0.00
05/05/26 10:45:35 AM 38 4.0 10.0 64 76 63.0 57.1 29.985 7.26 1.5 417 0.12 0.00 0.30 0.00
05/05/26 10:46:27 AM 36 5.0 10.0 64 76 63.0 57.0 29.987 7.26 1.5 279 0.12 0.00 0.30 0.00
05/05/26 10:47:16 AM 34 4.0 10.0 64 76 63.1 57.1 29.988 7.26 1.5 281 0.12 0.00 0.30 0.00
05/05/26 10:48:26 AM 36 5.0 10.0 64 76 63.1 57.1 29.988 7.26 1.6 287 0.12 0.00 0.30 0.00
05/05/26 10:49:18 AM 38 6.0 10.0 64 76 63.0 57.1 29.987 7.26 1.7 297 0.12 0.00 0.30 0.00
05/05/26 10:50:31 AM 31 3.0 10.0 64 75 63.1 57.1 29.988 7.26 1.8 318 0.12 0.00 0.30 0.00
05/05/26 10:51:23 AM 35 2.0 10.0 64 75 63.1 57.1 29.991 7.26 1.8 364 0.12 0.00 0.30 0.00
05/05/26 10:52:36 AM 35 5.0 10.0 64 75 63.1 57.2 29.988 7.26 2.2 415 0.12 0.00 0.30 0.00
05/05/26 10:53:22 AM 35 5.0 10.0 64 76 63.1 57.3 29.987 7.26 3.4 415 0.12 0.00 0.30 0.00
05/05/26 10:54:36 AM 36 5.0 10.0 64 75 63.1 57.3 29.989 7.26 2.3 450 0.12 0.00 0.30 0.00
05/05/26 10:55:28 AM 35 6.0 10.0 64 75 63.1 57.4 29.991 7.26 2.5 450 0.12 0.00 0.30 0.00
05/05/26 10:56:19 AM 35 4.0 10.0 64 75 63.2 57.4 29.990 7.26 2.3 420 0.12 0.00 0.30 0.00
05/05/26 10:57:33 AM 36 6.0 10.0 64 75 63.2 57.4 29.992 7.26 4.0 385 0.12 0.00 0.30 0.00
05/05/26 10:58:19 AM 36 4.0 10.0 64 75 63.2 57.5 29.993 7.26 4.0 385 0.12 0.00 0.30 0.00
05/05/26 10:59:32 AM 34 6.0 10.0 64 75 63.2 57.5 29.991 7.26 4.1 1132 0.12 0.00 0.30 0.00
05/05/26 11:00:27 AM 35 5.0 10.0 64 75 63.2 57.7 29.992 7.26 4.3 1151 0.12 0.00 0.30 0.00
05/05/26 11:01:16 AM 39 4.0 10.0 64 76 63.2 57.7 29.991 7.26 4.3 1172 0.12 0.00 0.30 0.00
05/05/26 11:02:29 AM 38 1.0 10.0 64 76 63.2 57.9 29.993 7.26 3.2 1172 0.12 0.00 0.30 0.00
05/05/26 11:03:21 AM 35 2.0 10.0 64 76 63.3 58.1 29.991 7.26 2.7 1172 0.12 0.00 0.30 0.00
05/05/26 11:04:28 AM 35 3.0 10.0 64 76 63.3 58.4 29.989 7.26 2.8 497 0.12 0.00 0.30 0.00
05/05/26 11:05:20 AM 34 5.0 10.0 64 75 63.3 58.6 29.988 7.26 2.9 497 0.12 0.00 0.30 0.00
05/05/26 11:06:33 AM 37 4.0 10.0 64 74 63.3 58.6 29.988 7.26 2.9 441 0.12 0.00 0.30 0.00
05/05/26 11:07:25 AM 38 4.0 10.0 64 73 63.3 58.7 29.987 7.26 3.6 441 0.12 0.00 0.30 0.00
05/05/26 11:08:17 AM 38 5.0 10.0 64 73 63.4 58.9 29.987 7.26 3.9 441 0.12 0.00 0.30 0.00
05/05/26 11:09:24 AM 36 4.0 10.0 64 73 63.4 59.1 29.987 7.26 4.3 441 0.12 0.00 0.30 0.00
05/05/26 11:10:16 AM 36 3.0 10.0 64 72 63.4 59.2 29.987 7.26 4.3 1092 0.12 0.00 0.30 0.00
05/05/26 11:11:30 AM 37 3.0 10.0 64 72 63.5 59.4 29.987 7.26 4.2 1111 0.12 0.00 0.30 0.00
05/05/26 11:12:22 AM 35 2.0 10.0 64 71 63.5 59.5 29.987 7.26 4.3 1042 0.12 0.00 0.30 0.00
05/05/26 11:13:32 AM 38 2.0 10.0 64 70 63.5 59.5 29.986 7.26 4.1 1042 0.12 0.00 0.30 0.00
05/05/26 11:14:21 AM 35 4.0 10.0 64 71 63.6 59.6 29.986 7.26 4.1 1137 0.12 0.00 0.30 0.00
05/05/26 11:15:55 AM 36 4.0 10.0 64 70 63.6 59.6 29.989 7.26 3.1 1137 0.12 0.00 0.30 0.00
05/05/26 11:16:26 AM 36 5.0 10.0 64 69 63.6 59.6 29.987 7.26 2.1 1137 0.12 0.00 0.30 0.00
05/05/26 11:17:18 AM 35 3.0 10.0 64 68 63.7 59.6 29.988 7.26 2.0 308 0.12 0.00 0.30 0.00
05/05/26 11:18:28 AM 37 6.0 10.0 64 68 63.6 59.7 29.988 7.26 1.9 294 0.12 0.00 0.30 0.00
05/05/26 11:19:20 AM 34 4.0 10.0 64 67 63.7 59.7 29.987 7.26 1.9 281 0.12 0.00 0.30 0.00
05/05/26 11:20:30 AM 34 8.0 10.0 64 68 63.8 59.7 29.988 7.26 1.9 272 0.12 0.00 0.30 0.00
05/05/26 11:21:22 AM 36 5.0 10.0 64 68 63.8 59.8 29.988 7.26 2.0 281 0.12 0.00 0.30 0.00
05/05/26 11:22:36 AM 36 2.0 10.0 64 67 63.8 59.7 29.988 7.26 2.1 295 0.12 0.00 0.30 0.00
05/05/26 11:23:24 AM 34 0.0 10.0 64 67 63.8 59.7 29.990 7.26 2.4 343 0.12 0.00 0.30 0.00
05/05/26 11:24:17 AM 34 0.0 10.0 64 67 63.8 59.6 29.987 7.26 3.6 343 0.12 0.00 0.30 0.00
05/05/26 11:25:27 AM 36 0.0 10.0 64 68 63.8 59.8 29.986 7.26 4.4 1118 0.12 0.00 0.30 0.00
05/05/26 11:26:19 AM 36 9.0 11.0 64 69 63.9 59.9 29.990 7.26 4.5 1102 0.12 0.00 0.30 0.00
05/05/26 11:27:29 AM 37 4.0 11.0 64 68 63.9 60.2 29.987 7.26 4.7 1141 0.12 0.00 0.30 0.00
05/05/26 11:28:21 AM 37 4.0 11.0 64 67 64.0 60.4 29.987 7.26 4.8 1162 0.12 0.00 0.30 0.00
05/05/26 11:29:31 AM 35 3.0 11.0 64 68 64.0 60.8 29.986 7.26 4.9 1190 0.12 0.00 0.30 0.00
05/05/26 11:30:26 AM 36 2.0 11.0 64 67 64.0 60.9 29.985 7.26 4.8 1202 0.12 0.00 0.30 0.00
05/05/26 11:31:33 AM 36 2.0 11.0 64 66 64.0 61.1 29.986 7.26 4.8 1202 0.12 0.00 0.30 0.00
05/05/26 11:32:25 AM 38 7.0 11.0 64 66 64.1 61.3 29.985 7.26 4.8 1183 0.12 0.00 0.30 0.00
05/05/26 11:33:17 AM 35 4.0 11.0 64 65 64.1 61.4 29.986 7.26 4.7 1190 0.12 0.00 0.30 0.00
05/05/26 11:34:30 AM 32 6.0 13.0 64 62 64.1 61.4 29.986 7.26 4.6 1185 0.12 0.00 0.30 0.00
05/05/26 11:35:22 AM 38 4.0 13.0 64 62 64.1 61.4 29.985 7.26 4.6 1185 0.12 0.00 0.30 0.00
05/05/26 11:36:30 AM 35 3.0 13.0 64 63 64.2 61.5 29.987 7.26 3.3 1185 0.12 0.00 0.30 0.00
05/05/26 11:37:22 AM 34 1.0 13.0 64 63 64.2 61.6 29.987 7.26 2.7 563 0.12 0.00 0.30 0.00
05/05/26 11:38:35 AM 32 1.0 13.0 64 63 64.3 61.8 29.988 7.26 1.9 357 0.12 0.00 0.30 0.00
05/05/26 11:39:24 AM 34 3.0 13.0 64 62 64.3 61.9 29.987 7.26 1.7 294 0.12 0.00 0.30 0.00
05/05/26 11:40:19 AM 38 5.0 13.0 64 62 64.3 62.0 29.986 7.26 1.6 265 0.12 0.00 0.30 0.00
05/05/26 11:41:26 AM 37 5.0 13.0 64 61 64.3 62.1 29.989 7.26 1.4 241 0.12 0.00 0.30 0.00
05/05/26 11:42:18 AM 38 2.0 13.0 64 60 64.4 62.0 29.987 7.26 1.3 220 0.12 0.00 0.30 0.00
05/05/26 11:43:28 AM 34 2.0 13.0 64 60 64.4 61.9 29.989 7.26 1.2 192 0.12 0.00 0.30 0.00
05/05/26 11:44:20 AM 38 2.0 13.0 64 60 64.4 61.7 29.990 7.26 1.2 186 0.12 0.00 0.30 0.00
05/05/26 11:45:33 AM 32 1.0 13.0 64 60 64.5 61.6 29.988 7.26 1.2 186 0.12 0.00 0.30 0.00
05/05/26 11:46:25 AM 35 3.0 13.0 64 61 64.4 61.5 29.989 7.26 1.2 186 0.12 0.00 0.30 0.00
05/05/26 11:47:32 AM 38 3.0 13.0 64 61 64.5 61.5 29.989 7.26 1.2 195 0.12 0.00 0.30 0.00
05/05/26 11:48:25 AM 36 2.0 13.0 64 61 64.4 61.4 29.987 7.26 1.4 200 0.12 0.00 0.30 0.00
05/05/26 11:49:17 AM 38 3.0 13.0 64 61 64.4 61.4 29.989 7.26 1.5 207 0.12 0.00 0.30 0.00
05/05/26 11:50:33 AM 37 5.0 13.0 64 62 64.4 61.4 29.988 7.26 1.5 221 0.12 0.00 0.30 0.00
05/05/26 11:51:31 AM 34 2.0 13.0 64 62 64.5 61.3 29.990 7.26 1.6 232 0.12 0.00 0.30 0.00
05/05/26 11:52:20 AM 29 5.0 13.0 64 62 64.5 61.3 29.989 7.26 1.6 241 0.12 0.00 0.30 0.00
05/05/26 11:53:33 AM 35 6.0 13.0 64 62 64.4 61.2 29.990 7.26 1.6 248 0.12 0.00 0.30 0.00
05/05/26 11:54:25 AM 38 3.0 13.0 64 61 64.4 61.2 29.988 7.26 1.6 250 0.12 0.00 0.30 0.00
05/05/26 11:55:35 AM 36 3.0 13.0 64 61 64.4 61.1 29.988 7.26 1.6 251 0.12 0.00 0.30 0.00
05/05/26 11:56:27 AM 38 4.0 13.0 64 61 64.4 61.0 29.987 7.26 1.6 248 0.12 0.00 0.30 0.00
05/05/26 11:57:19 AM 38 4.0 13.0 64 61 64.4 61.0 29.988 7.26 1.5 248 0.12 0.00 0.30 0.00
05/05/26 11:58:26 AM 34 6.0 13.0 64 61 64.4 60.9 29.987 7.26 1.4 241 0.12 0.00 0.30 0.00
05/05/26 11:59:19 AM 37 4.0 13.0 64 61 64.4 60.9 29.990 7.26 1.4 241 0.12 0.00 0.30 0.00
05/05/26 12:00:32 PM 38 6.0 13.0 64 60 64.4 60.8 29.987 7.26 1.2 220 0.12 0.00 0.30 0.00
05/05/26 12:01:24 PM 38 6.0 13.0 64 60 64.4 60.7 29.989 7.26 1.1 211 0.12 0.00 0.30 0.00
05/05/26 12:02:34 PM 34 4.0 13.0 64 60 64.4 60.6 29.991 7.26 1.1 202 0.12 0.00 0.30 0.00
05/05/26 12:03:23 PM 37 6.0 13.0 64 60 64.5 60.6 29.990 7.26 1.1 192 0.12 0.00 0.30 0.00
05/05/26 12:04:33 PM 36 4.0 13.0 64 61 64.4 60.5 29.991 7.26 1.0 183 0.12 0.00 0.30 0.00
05/05/26 12:05:25 PM 36 2.0 13.0 64 61 64.5 60.5 29.992 7.26 0.9 176 0.12 0.00 0.30 0.00
05/05/26 12:06:17 PM 38 4.0 13.0 64 61 64.5 60.4 29.992 7.26 0.9 171 0.12 0.00 0.30 0.00
05/05/26 12:07:30 PM 36 4.0 13.0 64 61 64.5 60.4 29.990 7.26 0.9 171 0.12 0.00 0.30 0.00
05/05/26 12:08:16 PM 32 4.0 13.0 64 61 64.5 60.3 29.989 7.26 0.9 172 0.12 0.00 0.30 0.00
05/05/26 12:09:21 PM 35 5.0 13.0 64 61 64.5 60.3 29.991 7.26 0.9 172 0.12 0.00 0.30 0.00
05/05/26 12:10:31 PM 34 8.0 13.0 64 61 64.4 60.2 29.991 7.26 0.9 165 0.12 0.00 0.30 0.00
05/05/26 12:11:23 PM 38 3.0 13.0 64 62 64.5 60.2 29.992 7.26 0.9 165 0.12 0.00 0.30 0.00
05/05/26 12:12:36 PM 32 6.0 13.0 64 62 64.5 60.1 29.990 7.26 0.9 169 0.12 0.00 0.30 0.00
05/05/26 12:13:28 PM 38 2.0 13.0 64 61 64.5 60.1 29.989 7.26 0.9 171 0.12 0.00 0.30 0.00
05/05/26 12:14:35 PM 34 6.0 13.0 64 61 64.5 60.1 29.989 7.26 1.0 174 0.12 0.00 0.30 0.00
05/05/26 12:15:51 PM 34 2.0 13.0 64 61 64.5 60.0 29.990 7.26 1.0 178 0.12 0.00 0.30 0.00
05/05/26 12:16:22 PM 36 0.0 13.0 64 61 64.5 60.0 29.989 7.26 1.1 185 0.12 0.00 0.30 0.00
05/05/26 12:17:35 PM 34 0.0 13.0 64 62 64.5 60.0 29.989 7.26 1.1 192 0.12 0.00 0.30 0.00
05/05/26 12:18:27 PM 38 0.0 13.0 64 61 64.5 60.0 29.990 7.26 1.1 197 0.12 0.00 0.30 0.00
05/05/26 12:19:19 PM 36 4.0 13.0 64 62 64.5 60.0 29.987 7.26 1.1 195 0.12 0.00 0.30 0.00
05/05/26 12:20:26 PM 36 0.0 13.0 64 62 64.5 60.0 29.990 7.26 1.1 193 0.12 0.00 0.30 0.00
05/05/26 12:21:19 PM 32 0.0 13.0 64 62 64.6 60.0 29.989 7.26 1.1 193 0.12 0.00 0.30 0.00
05/05/26 12:22:29 PM 39 2.0 13.0 64 62 64.5 60.1 29.989 7.26 1.1 200 0.12 0.00 0.30 0.00
05/05/26 12:23:21 PM 36 3.0 13.0 64 62 64.6 60.1 29.990 7.26 1.2 207 0.12 0.00 0.30 0.00
05/05/26 12:24:34 PM 32 1.0 13.0 64 61 64.5 60.1 29.988 7.26 1.2 220 0.12 0.00 0.30 0.00
05/05/26 12:25:23 PM 36 5.0 13.0 64 61 64.5 60.1 29.989 7.26 1.2 220 0.12 0.00 0.30 0.00
05/05/26 12:26:36 PM 37 2.0 13.0 64 61 64.5 60.1 29.990 7.26 1.3 230 0.12 0.00 0.30 0.00
05/05/26 12:27:28 PM 37 5.0 13.0 64 61 64.5 60.1 29.989 7.26 1.3 230 0.12 0.00 0.30 0.00
05/05/26 12:28:20 PM 38 4.0 13.0 64 60 64.5 60.1 29.988 7.26 1.3 230 0.12 0.00 0.30 0.00
05/05/26 12:29:30 PM 36 4.0 13.0 64 61 64.5 60.1 29.989 7.26 1.3 229 0.12 0.00 0.30 0.00
05/05/26 12:30:20 PM 37 5.0 13.0 64 61 64.5 60.1 29.991 7.26 1.3 207 0.12 0.00 0.30 0.00
05/05/26 12:31:30 PM 36 4.0 13.0 64 60 64.5 60.0 29.988 7.26 1.0 185 0.12 0.00 0.30 0.00
05/05/26 12:32:22 PM 36 4.0 13.0 64 60 64.5 60.0 29.987 7.26 1.0 174 0.12 0.00 0.30 0.00
05/05/26 12:33:35 PM 35 5.0 13.0 64 60 64.5 60.0 29.990 7.26 0.9 163 0.12 0.00 0.30 0.00
05/05/26 12:34:27 PM 37 3.0 13.0 64 60 64.6 59.9 29.990 7.26 0.8 153 0.12 0.00 0.30 0.00
05/05/26 12:35:19 PM 36 1.0 13.0 64 61 64.6 59.9 29.990 7.26 0.8 153 0.12 0.00 0.30 0.00
05/05/26 12:36:26 PM 36 4.0 13.0 64 61 64.6 59.9 29.991 7.26 0.8 141 0.12 0.00 0.30 0.00
05/05/26 12:37:18 PM 37 2.0 13.0 64 61 64.6 59.9 29.988 7.26 0.8 141 0.12 0.00 0.30 0.00
05/05/26 12:38:29 PM 35 3.0 13.0 64 61 64.6 59.9 29.991 7.26 0.8 141 0.12 0.00 0.30 0.00
05/05/26 12:39:21 PM 32 4.0 13.0 64 61 64.6 59.9 29.988 7.26 0.8 141 0.12 0.00 0.30 0.00
05/05/26 12:40:34 PM 38 2.0 13.0 64 61 64.6 60.0 29.989 7.26 0.8 162 0.12 0.00 0.30 0.00
05/05/26 12:41:20 PM 31 1.0 13.0 64 61 64.6 60.0 29.988 7.26 0.9 162 0.12 0.00 0.30 0.00
05/05/26 12:42:33 PM 38 4.0 13.0 64 61 64.6 60.0 29.988 7.26 0.9 171 0.12 0.00 0.30 0.00
05/05/26 12:43:25 PM 36 3.0 13.0 64 61 64.7 60.1 29.987 7.26 0.9 174 0.12 0.00 0.30 0.00
05/05/26 12:44:17 PM 34 4.0 13.0 64 60 64.7 60.1 29.984 7.26 1.0 179 0.12 0.00 0.30 0.00
05/05/26 12:45:51 PM 38 3.0 13.0 64 60 64.6 60.1 29.987 7.26 1.0 179 0.12 0.00 0.30 0.00
05/05/26 12:46:19 PM 35 3.0 13.0 64 60 64.6 60.0 29.985 7.26 1.1 190 0.12 0.00 0.30 0.00
05/05/26 12:47:29 PM 37 5.0 13.0 64 60 64.7 60.0 29.987 7.26 1.1 200 0.12 0.00 0.30 0.00
05/05/26 12:48:21 PM 38 4.0 13.0 64 60 64.6 60.0 29.987 7.26 1.2 218 0.12 0.00 0.30 0.00
05/05/26 12:49:32 PM 38 2.0 13.0 64 60 64.7 60.0 29.987 7.26 1.3 243 0.12 0.00 0.30 0.00
05/05/26 12:50:24 PM 35 0.0 13.0 64 60 64.6 60.0 29.984 7.26 1.7 243 0.12 0.00 0.30 0.00
05/05/26 12:51:34 PM 34 1.0 13.0 64 60 64.6 60.0 29.984 7.26 3.0 680 0.12 0.00 0.30 0.00
05/05/26 12:52:23 PM 31 2.0 13.0 64 61 64.6 60.1 29.983 7.26 2.1 694 0.12 0.00 0.30 0.00
05/05/26 12:53:33 PM 37 3.0 13.0 64 60 64.7 60.1 29.986 7.26 1.8 694 0.12 0.00 0.30 0.00
05/05/26 12:54:28 PM 38 2.0 13.0 64 61 64.7 60.2 29.984 7.26 1.9 332 0.12 0.00 0.30 0.00
05/05/26 12:55:17 PM 35 4.0 13.0 64 61 64.7 60.3 29.986 7.26 2.1 371 0.12 0.00 0.30 0.00
05/05/26 12:56:31 PM 36 3.0 13.0 64 60 64.7 60.4 29.985 7.26 2.3 448 0.12 0.00 0.30 0.00
05/05/26 12:57:20 PM 36 3.0 13.0 64 59 64.7 60.4 29.983 7.26 3.1 448 0.12 0.00 0.30 0.00
05/05/26 12:58:30 PM 32 8.0 13.0 64 59 64.7 60.4 29.983 7.26 2.3 534 0.12 0.00 0.30 0.00
05/05/26 12:59:22 PM 36 5.0 13.0 64 60 64.7 60.5 29.982 7.26 2.3 483 0.12 0.00 0.30 0.00
05/05/26 1:00:35 PM 32 6.0 13.0 64 59 64.7 60.5 29.982 7.26 1.6 483 0.12 0.00 0.30 0.00
05/05/26 1:01:27 PM 34 5.0 13.0 64 59 64.8 60.6 29.982 7.26 1.5 267 0.12 0.00 0.30 0.00
05/05/26 1:02:19 PM 35 6.0 13.0 64 59 64.8 60.6 29.983 7.26 1.3 239 0.12 0.00 0.30 0.00
05/05/26 1:03:26 PM 36 4.0 13.0 64 59 64.8 60.6 29.983 7.26 1.2 220 0.12 0.00 0.30 0.00
05/05/26 1:04:18 PM 35 4.0 13.0 64 59 64.8 60.7 29.982 7.26 1.2 206 0.12 0.00 0.30 0.00
05/05/26 1:05:32 PM 38 5.0 13.0 64 59 64.9 60.6 29.983 7.26 1.1 206 0.12 0.00 0.30 0.00
05/05/26 1:06:21 PM 37 7.0 13.0 64 59 64.8 60.6 29.982 7.26 1.0 206 0.12 0.00 0.30 0.00
05/05/26 1:07:34 PM 37 6.0 13.0 64 59 64.9 60.5 29.985 7.26 0.9 206 0.12 0.00 0.30 0.00
05/05/26 1:08:23 PM 32 4.0 13.0 64 59 64.9 60.5 29.984 7.26 0.9 206 0.12 0.00 0.30 0.00
05/05/26 1:09:33 PM 35 4.0 13.0 64 59 64.9 60.5 29.980 7.26 0.9 141 0.12 0.00 0.30 0.00
05/05/26 1:10:22 PM 35 5.0 13.0 64 59 64.9 60.5 29.984 7.26 0.8 141 0.12 0.00 0.30 0.00
05/05/26 1:11:35 PM 38 1.0 13.0 64 59 64.9 60.4 29.982 7.26 0.8 142 0.12 0.00 0.30 0.00
05/05/26 1:12:27 PM 36 2.0 13.0 64 59 64.9 60.4 29.983 7.26 0.8 148 0.12 0.00 0.30 0.00
05/05/26 1:13:16 PM 36 2.0 13.0 64 59 64.9 60.3 29.984 7.26 0.8 148 0.12 0.00 0.30 0.00
05/05/26 1:14:27 PM 35 2.0 13.0 64 59 64.9 60.3 29.983 7.26 0.8 142 0.12 0.00 0.30 0.00
05/05/26 1:15:43 PM 38 4.0 13.0 64 59 64.9 60.3 29.982 7.26 0.8 142 0.12 0.00 0.30 0.00
05/05/26 1:16:32 PM 38 6.0 13.0 64 59 64.9 60.3 29.983 7.26 0.8 132 0.12 0.00 0.30 0.00
05/05/26 1:17:27 PM 35 6.0 13.0 64 60 64.9 60.3 29.981 7.26 0.7 123 0.12 0.00 0.30 0.00
05/05/26 1:18:16 PM 36 6.0 13.0 64 59 64.9 60.2 29.981 7.26 0.6 116 0.12 0.00 0.30 0.00
05/05/26 1:19:26 PM 38 7.0 13.0 64 59 64.9 60.2 29.979 7.26 0.6 111 0.12 0.00 0.30 0.00
05/05/26 1:20:15 PM 38 6.0 13.0 64 60 64.8 60.2 29.979 7.26 0.6 104 0.12 0.00 0.30 0.00
05/05/26 1:21:31 PM 35 4.0 13.0 64 60 64.8 60.1 29.980 7.26 0.5 98 0.12 0.00 0.30 0.00
05/05/26 1:22:24 PM 35 4.0 13.0 64 60 64.8 60.1 29.982 7.26 0.5 98 0.12 0.00 0.30 0.00
05/05/26 1:23:34 PM 38 5.0 13.0 64 60 64.8 60.0 29.980 7.26 0.5 98 0.12 0.00 0.30 0.00
05/05/26 1:24:23 PM 35 3.0 13.0 64 60 64.8 60.0 29.981 7.26 0.5 84 0.12 0.00 0.30 0.00
05/05/26 1:25:36 PM 38 7.0 13.0 64 60 64.8 60.0 29.982 7.26 0.0 81 0.12 0.00 0.30 0.00
05/05/26 1:26:28 PM 36 4.0 13.0 64 60 64.7 60.0 29.979 7.26 0.0 77 0.12 0.00 0.30 0.00
05/05/26 1:27:20 PM 39 5.0 13.0 64 61 64.7 60.0 29.983 7.26 0.0 77 0.12 0.00 0.30 0.00
05/05/26 1:28:33 PM 32 8.0 13.0 64 61 64.7 59.9 29.979 7.26 0.0 76 0.12 0.00 0.30 0.00
05/05/26 1:29:22 PM 35 7.0 13.0 64 60 64.7 59.9 29.982 7.26 0.0 72 0.12 0.00 0.30 0.00
05/05/26 1:30:33 PM 36 5.0 13.0 64 60 64.7 59.8 29.981 7.26 0.0 70 0.12 0.00 0.30 0.00
05/05/26 1:31:25 PM 38 6.0 13.0 64 60 64.7 59.9 29.980 7.26 0.0 70 0.12 0.00 0.30 0.00
05/05/26 1:32:35 PM 38 9.0 13.0 64 61 64.7 59.8 29.981 7.26 0.0 69 0.12 0.00 0.30 0.00
05/05/26 1:33:30 PM 34 9.0 13.0 64 61 64.7 59.8 29.981 7.26 0.0 67 0.12 0.00 0.30 0.00
05/05/26 1:34:19 PM 35 6.0 13.0 64 60 64.7 59.8 29.979 7.26 0.0 65 0.12 0.00 0.30 0.00
05/05/26 1:35:29 PM 34 9.0 13.0 64 61 64.7 59.8 29.978 7.26 0.0 65 0.12 0.00 0.30 0.00
05/05/26 1:36:21 PM 35 9.0 13.0 64 61 64.6 59.7 29.980 7.26 0.0 65 0.12 0.00 0.30 0.00
05/05/26 1:37:35 PM 38 7.0 13.0 64 61 64.7 59.7 29.978 7.26 0.0 65 0.12 0.00 0.30 0.00
05/05/26 1:38:27 PM 36 6.0 13.0 64 61 64.6 59.6 29.979 7.26 0.0 65 0.12 0.00 0.30 0.00
05/05/26 1:39:19 PM 39 6.0 13.0 64 61 64.6 59.6 29.981 7.26 0.0 65 0.12 0.00 0.30 0.00
05/05/26 1:40:29 PM 38 4.0 13.0 64 61 64.7 59.6 29.980 7.26 0.0 65 0.12 0.00 0.30 0.00
05/05/26 1:41:18 PM 38 4.0 13.0 64 61 64.6 59.6 29.979 7.26 0.0 65 0.12 0.00 0.30 0.00
05/05/26 1:42:31 PM 37 5.0 13.0 64 62 64.6 59.5 29.980 7.26 0.0 67 0.12 0.00 0.30 0.00
05/05/26 1:43:23 PM 36 4.0 13.0 64 61 64.6 59.5 29.981 7.26 0.0 69 0.12 0.00 0.30 0.00
05/05/26 1:44:16 PM 37 5.0 13.0 64 61 64.6 59.5 29.983 7.26 0.0 70 0.12 0.00 0.30 0.00
05/05/26 1:45:50 PM 36 3.0 13.0 64 61 64.5 59.5 29.981 7.26 0.0 70 0.12 0.00 0.30 0.00
05/05/26 1:46:18 PM 35 4.0 13.0 64 61 64.6 59.5 29.981 7.26 0.0 70 0.12 0.00 0.30 0.00
05/05/26 1:47:31 PM 38 2.0 13.0 64 61 64.6 59.5 29.980 7.26 0.0 70 0.12 0.00 0.30 0.00
05/05/26 1:48:20 PM 35 1.0 13.0 64 62 64.5 59.5 29.983 7.26 0.0 74 0.12 0.00 0.30 0.00
05/05/26 1:49:33 PM 36 0.0 13.0 64 62 64.6 59.5 29.982 7.26 0.0 76 0.12 0.00 0.30 0.00
05/05/26 1:50:29 PM 36 0.0 13.0 64 62 64.5 59.5 29.981 7.26 0.0 79 0.12 0.00 0.30 0.00
05/05/26 1:51:18 PM 36 1.0 13.0 64 62 64.5 59.6 29.979 7.26 0.0 83 0.12 0.00 0.30 0.00
05/05/26 1:52:28 PM 32 2.0 13.0 64 62 64.5 59.6 29.979 7.26 0.5 86 0.12 0.00 0.30 0.00
05/05/26 1:53:20 PM 35 1.0 13.0 64 62 64.5 59.6 29.981 7.26 0.5 91 0.12 0.00 0.30 0.00
05/05/26 1:54:33 PM 37 0.0 13.0 64 62 64.5 59.6 29.981 7.26 0.5 98 0.12 0.00 0.30 0.00
05/05/26 1:55:22 PM 35 2.0 13.0 64 62 64.5 59.6 29.978 7.26 0.6 105 0.12 0.00 0.30 0.00
05/05/26 1:56:36 PM 37 3.0 13.0 64 62 64.5 59.6 29.982 7.26 0.6 121 0.12 0.00 0.30 0.00
05/05/26 1:57:25 PM 35 3.0 13.0 64 62 64.5 59.7 29.980 7.26 0.6 128 0.12 0.00 0.30 0.00
05/05/26 1:58:35 PM 36 3.0 13.0 64 62 64.5 59.6 29.980 7.26 0.7 134 0.12 0.00 0.30 0.00
05/05/26 1:59:27 PM 38 3.0 13.0 64 61 64.5 59.7 29.980 7.26 0.7 139 0.12 0.00 0.30 0.00
05/05/26 2:00:19 PM 35 3.0 13.0 64 61 64.5 59.7 29.980 7.26 0.7 142 0.12 0.00 0.30 0.00
05/05/26 2:01:32 PM 36 3.0 13.0 64 61 64.5 59.7 29.978 7.26 0.8 144 0.12 0.00 0.30 0.00
05/05/26 2:02:18 PM 35 2.0 13.0 64 61 64.4 59.7 29.984 7.26 0.8 146 0.12 0.00 0.30 0.00
05/05/26 2:03:32 PM 32 3.0 13.0 64 61 64.5 59.8 29.983 7.26 0.8 148 0.12 0.00 0.30 0.00
05/05/26 2:04:24 PM 32 1.0 13.0 64 61 64.4 59.8 29.981 7.26 0.8 149 0.12 0.00 0.30 0.00
05/05/26 2:05:34 PM 34 3.0 13.0 64 60 64.5 59.8 29.978 7.26 0.8 149 0.12 0.00 0.30 0.00
05/05/26 2:06:26 PM 37 2.0 13.0 64 60 64.5 59.8 29.984 7.26 0.8 149 0.12 0.00 0.30 0.00
05/05/26 2:07:18 PM 36 2.0 13.0 64 60 64.5 59.8 29.981 7.26 0.8 148 0.12 0.00 0.30 0.00
05/05/26 2:08:37 PM 38 2.0 13.0 64 60 64.5 59.8 29.979 7.26 0.8 148 0.12 0.00 0.30 0.00
05/05/26 2:09:29 PM 36 1.0 13.0 64 60 64.5 59.9 29.982 7.26 0.8 148 0.12 0.00 0.30 0.00
05/05/26 2:10:22 PM 34 1.0 13.0 64 60 64.5 59.9 29.981 7.26 0.8 144 0.12 0.00 0.30 0.00
05/05/26 2:11:32 PM 38 2.0 13.0 64 60 64.5 60.0 29.983 7.26 0.7 137 0.12 0.00 0.30 0.00
05/05/26 2:12:24 PM 35 2.0 13.0 64 60 64.5 60.0 29.980 7.26 0.7 130 0.12 0.00 0.30 0.00
05/05/26 2:13:35 PM 36 0.0 13.0 64 60 64.5 60.0 29.981 7.26 0.6 130 0.12 0.00 0.30 0.00
05/05/26 2:14:24 PM 38 2.0 13.0 64 60 64.5 60.1 29.981 7.26 0.6 120 0.12 0.00 0.30 0.00
05/05/26 2:15:19 PM 38 2.0 13.0 64 60 64.6 60.1 29.983 7.26 0.6 116 0.12 0.00 0.30 0.00
05/05/26 2:16:29 PM 34 1.0 13.0 64 60 64.6 60.2 29.982 7.26 0.6 114 0.12 0.00 0.30 0.00
05/05/26 2:17:21 PM 34 1.0 13.0 64 60 64.6 60.2 29.980 7.26 0.6 113 0.12 0.00 0.30 0.00
05/05/26 2:18:29 PM 32 2.0 13.0 64 60 64.6 60.3 29.982 7.26 0.5 109 0.12 0.00 0.30 0.00
05/05/26 2:19:21 PM 35 3.0 13.0 64 60 64.6 60.3 29.981 7.26 0.5 104 0.12 0.00 0.30 0.00
05/05/26 2:20:34 PM 38 3.0 13.0 64 61 64.6 60.4 29.979 7.26 0.5 100 0.12 0.00 0.30 0.00
05/05/26 2:21:26 PM 35 6.0 13.0 64 61 64.7 60.4 29.980 7.26 0.5 100 0.12 0.00 0.30 0.00
05/05/26 2:22:18 PM 36 5.0 13.0 64 62 64.6 60.4 29.979 7.26 0.0 90 0.12 0.00 0.30 0.00
05/05/26 2:23:31 PM 32 2.0 13.0 64 62 64.6 60.4 29.981 7.26 0.0 90 0.12 0.00 0.30 0.00
05/05/26 2:24:20 PM 37 1.0 13.0 64 63 64.6 60.4 29.980 7.26 0.0 83 0.12 0.00 0.30 0.00
05/05/26 2:25:30 PM 38 6.0 13.0 64 63 64.6 60.5 29.981 7.26 0.0 76 0.12 0.00 0.30 0.00
05/05/26 2:26:23 PM 38 4.0 13.0 64 62 64.6 60.5 29.978 7.26 0.0 76 0.12 0.00 0.30 0.00
05/05/26 2:27:36 PM 36 5.0 13.0 64 62 64.6 60.4 29.980 7.26 0.0 72 0.12 0.00 0.30 0.00
05/05/26 2:28:28 PM 34 5.0 13.0 64 62 64.6 60.4 29.979 7.26 0.0 72 0.12 0.00 0.30 0.00
05/05/26 2:29:35 PM 32 8.0 13.0 64 62 64.6 60.3 29.981 7.26 0.0 74 0.12 0.00 0.30 0.00
05/05/26 2:30:27 PM 32 8.0 13.0 64 62 64.6 60.2 29.978 7.26 0.0 77 0.12 0.00 0.30 0.00
05/05/26 2:31:20 PM 36 5.0 13.0 64 61 64.6 60.2 29.979 7.26 0.0 79 0.12 0.00 0.30 0.00
05/05/26 2:32:30 PM 38 6.0 13.0 64 61 64.6 60.1 29.978 7.26 0.0 81 0.12 0.00 0.30 0.00
05/05/26 2:33:19 PM 34 4.0 13.0 64 61 64.5 60.1 29.977 7.26 0.0 83 0.12 0.00 0.30 0.00
05/05/26 2:34:29 PM 38 9.0 13.0 64 62 64.5 60.1 29.977 7.26 0.0 84 0.12 0.00 0.30 0.00
05/05/26 2:35:21 PM 35 7.0 13.0 64 62 64.6 60.0 29.978 7.26 0.0 86 0.12 0.00 0.30 0.00
05/05/26 2:36:35 PM 38 5.0 13.0 64 62 64.5 60.0 29.977 7.26 0.0 88 0.12 0.00 0.30 0.00
05/05/26 2:37:27 PM 36 4.0 13.0 64 62 64.5 60.0 29.979 7.26 0.0 90 0.12 0.00 0.30 0.00
05/05/26 2:38:19 PM 38 3.0 13.0 64 62 64.6 60.0 29.977 7.26 0.0 91 0.12 0.00 0.30 0.00
05/05/26 2:39:29 PM 37 7.0 13.0 64 62 64.5 59.9 29.977 7.26 0.5 93 0.12 0.00 0.30 0.00
05/05/26 2:40:18 PM 35 3.0 13.0 64 62 64.5 59.9 29.979 7.26 0.5 95 0.12 0.00 0.30 0.00
05/05/26 2:41:31 PM 37 3.0 13.0 64 62 64.6 59.9 29.978 7.26 0.5 105 0.12 0.00 0.30 0.00
05/05/26 2:42:23 PM 30 2.0 13.0 64 62 64.6 59.9 29.979 7.26 0.5 111 0.12 0.00 0.30 0.00
05/05/26 2:43:34 PM 39 3.0 13.0 64 63 64.6 59.9 29.975 7.26 0.6 120 0.12 0.00 0.30 0.00
05/05/26 2:44:26 PM 38 5.0 13.0 64 63 64.5 59.9 29.976 7.26 0.6 128 0.12 0.00 0.30 0.00
05/05/26 2:45:36 PM 32 4.0 13.0 64 63 64.5 59.9 29.978 7.26 0.7 139 0.12 0.00 0.30 0.00
05/05/26 2:46:28 PM 36 2.0 13.0 64 63 64.5 59.9 29.978 7.26 0.7 149 0.12 0.00 0.30 0.00
05/05/26 2:47:20 PM 34 6.0 13.0 64 63 64.6 59.9 29.977 7.26 0.8 156 0.12 0.00 0.30 0.00
05/05/26 2:48:34 PM 38 6.0 13.0 64 63 64.5 59.9 29.975 7.26 0.8 163 0.12 0.00 0.30 0.00
05/05/26 2:49:26 PM 38 2.0 13.0 64 63 64.5 59.9 29.976 7.26 0.8 172 0.12 0.00 0.30 0.00
05/05/26 2:50:16 PM 38 9.0 13.0 64 63 64.5 59.9 29.976 7.26 0.9 181 0.12 0.00 0.30 0.00
05/05/26 2:51:26 PM 32 5.0 13.0 64 63 64.5 59.9 29.977 7.26 0.9 192 0.12 0.00 0.30 0.00
05/05/26 2:52:15 PM 35 3.0 13.0 64 63 64.5 59.9 29.975 7.26 1.0 202 0.12 0.00 0.30 0.00
05/05/26 2:53:29 PM 38 10.0 13.0 64 63 64.5 59.9 29.974 7.26 1.0 202 0.12 0.00 0.30 0.00
05/05/26 2:54:21 PM 32 4.0 13.0 64 63 64.5 59.9 29.976 7.26 1.0 221 0.12 0.00 0.30 0.00
05/05/26 2:55:34 PM 35 4.0 13.0 64 63 64.6 59.9 29.977 7.26 1.1 237 0.12 0.00 0.30 0.00
05/05/26 2:56:21 PM 35 4.0 13.0 64 63 64.6 59.9 29.977 7.26 1.1 237 0.12 0.00 0.30 0.00
05/05/26 2:57:34 PM 32 4.0 13.0 64 64 64.5 59.9 29.977 7.26 1.2 248 0.12 0.00 0.30 0.00
05/05/26 2:58:23 PM 36 4.0 13.0 64 63 64.5 59.9 29.976 7.26 1.2 248 0.12 0.00 0.30 0.00
05/05/26 2:59:37 PM 35 6.0 13.0 64 64 64.5 59.9 29.979 7.26 1.2 258 0.12 0.00 0.30 0.00
05/05/26 3:00:50 PM 38 6.0 13.0 64 64 64.5 59.9 29.977 7.26 1.2 264 0.12 0.00 0.30 0.00
05/05/26 3:01:21 PM 36 10.0 13.0 64 63 64.5 60.0 29.978 7.26 1.3 274 0.12 0.00 0.30 0.00
05/05/26 3:02:29 PM 35 6.0 13.0 64 63 64.6 60.0 29.975 7.26 1.4 290 0.12 0.00 0.30 0.00
05/05/26 3:03:21 PM 34 6.0 13.0 64 63 64.5 60.0 29.974 7.26 1.4 308 0.12 0.00 0.30 0.00
05/05/26 3:04:35 PM 32 3.0 13.0 64 63 64.6 60.0 29.975 7.26 1.5 323 0.12 0.00 0.30 0.00
05/05/26 3:05:24 PM 36 4.0 13.0 64 63 64.6 60.1 29.975 7.26 1.6 336 0.12 0.00 0.30 0.00
05/05/26 3:06:37 PM 35 5.0 13.0 64 62 64.6 60.1 29.974 7.26 1.6 346 0.12 0.00 0.30 0.00
05/05/26 3:07:23 PM 35 4.0 13.0 64 62 64.6 60.1 29.973 7.26 1.7 357 0.12 0.00 0.30 0.00
05/05/26 3:08:16 PM 36 1.0 13.0 64 62 64.6 60.1 29.974 7.26 1.7 366 0.12 0.00 0.30 0.00
05/05/26 3:09:29 PM 36 4.0 13.0 64 63 64.6 60.2 29.975 7.26 1.7 366 0.12 0.00 0.30 0.00
05/05/26 3:10:19 PM 36 2.0 13.0 64 63 64.6 60.3 29.974 7.26 1.7 374 0.12 0.00 0.30 0.00
05/05/26 3:11:32 PM 36 3.0 13.0 64 63 64.6 60.4 29.974 7.26 1.7 374 0.12 0.00 0.30 0.00
05/05/26 3:12:21 PM 35 6.0 13.0 64 63 64.7 60.4 29.974 7.26 1.7 374 0.12 0.00 0.30 0.00
05/05/26 3:13:32 PM 38 6.0 13.0 64 63 64.7 60.5 29.973 7.26 1.7 374 0.12 0.00 0.30 0.00
05/05/26 3:14:24 PM 36 5.0 13.0 64 62 64.7 60.6 29.974 7.26 1.7 371 0.12 0.00 0.30 0.00
05/05/26 3:15:37 PM 36 3.0 13.0 64 61 64.7 60.7 29.973 7.26 1.7 371 0.12 0.00 0.30 0.00
05/05/26 3:16:27 PM 35 4.0 13.0 64 62 64.7 60.8 29.973 7.26 1.8 380 0.12 0.00 0.30 0.00
05/05/26 3:17:22 PM 35 4.0 13.0 64 61 64.8 60.8 29.974 7.26 1.8 392 0.12 0.00 0.30 0.00
05/05/26 3:18:26 PM 38 5.0 13.0 64 62 64.7 60.9 29.970 7.26 1.9 406 0.12 0.00 0.30 0.00
05/05/26 3:19:22 PM 34 5.0 13.0 64 61 64.8 60.9 29.971 7.26 2.0 415 0.12 0.00 0.30 0.00
05/05/26 3:20:32 PM 37 4.0 13.0 64 60 64.7 61.0 29.970 7.26 2.0 420 0.12 0.00 0.30 0.00
05/05/26 3:21:24 PM 35 5.0 13.0 64 61 64.8 61.0 29.970 7.26 2.0 425 0.12 0.00 0.30 0.00
05/05/26 3:22:35 PM 37 2.0 13.0 64 60 64.8 61.1 29.972 7.26 2.0 443 0.12 0.00 0.30 0.00
05/05/26 3:23:24 PM 34 3.0 13.0 64 60 64.9 61.1 29.971 7.26 2.2 443 0.12 0.00 0.30 0.00
05/05/26 3:24:17 PM 35 3.0 13.0 64 61 64.9 61.2 29.971 7.26 2.4 547 0.12 0.00 0.30 0.00
05/05/26 3:25:30 PM 37 4.0 13.0 64 60 64.9 61.3 29.970 7.26 2.9 547 0.12 0.00 0.30 0.00
05/05/26 3:26:20 PM 36 6.0 13.0 64 61 64.9 61.4 29.969 7.26 3.2 547 0.12 0.00 0.30 0.00
05/05/26 3:27:33 PM 38 5.0 13.0 64 62 64.9 61.7 29.968 7.26 3.2 547 0.12 0.00 0.30 0.00
05/05/26 3:28:19 PM 34 3.0 13.0 64 60 65.0 61.8 29.969 7.26 3.1 939 0.12 0.00 0.30 0.00
05/05/26 3:29:33 PM 37 4.0 13.0 64 61 65.0 62.1 29.968 7.26 2.5 902 0.12 0.00 0.30 0.00
05/05/26 3:30:28 PM 38 1.0 13.0 64 59 65.0 62.2 29.967 7.26 2.2 902 0.12 0.00 0.30 0.00
05/05/26 3:31:17 PM 38 3.0 13.0 64 59 65.0 62.4 29.968 7.26 2.2 492 0.12 0.00 0.30 0.00
05/05/26 3:32:31 PM 36 3.0 13.0 64 59 65.1 62.5 29.968 7.26 2.2 473 0.12 0.00 0.30 0.00
05/05/26 3:33:23 PM 38 5.0 13.0 64 58 65.1 62.6 29.966 7.26 2.2 548 0.12 0.00 0.30 0.00
05/05/26 3:34:31 PM 36 9.0 13.0 64 57 65.1 62.7 29.961 7.26 2.8 642 0.12 0.00 0.30 0.00
05/05/26 3:35:23 PM 34 8.0 13.0 64 57 65.2 62.7 29.963 7.26 2.9 642 0.12 0.00 0.30 0.00
05/05/26 3:36:36 PM 36 7.0 13.0 64 56 65.2 62.6 29.962 7.26 3.0 886 0.12 0.00 0.30 0.00
05/05/26 3:37:26 PM 37 9.0 13.0 64 56 65.2 62.6 29.963 7.26 2.9 872 0.12 0.00 0.30 0.00
05/05/26 3:38:18 PM 36 6.0 13.0 64 56 65.2 62.6 29.958 7.26 2.9 844 0.12 0.00 0.30 0.00
05/05/26 3:39:29 PM 38 5.0 13.0 64 57 65.3 62.5 29.960 7.26 2.8 824 0.12 0.00 0.30 0.00
05/05/26 3:40:18 PM 36 5.0 13.0 64 57 65.3 62.5 29.957 7.26 2.8 805 0.12 0.00 0.30 0.00
05/05/26 3:41:31 PM 35 6.0 13.0 64 57 65.4 62.8 29.961 7.26 2.8 816 0.12 0.00 0.30 0.00
05/05/26 3:42:24 PM 38 4.0 13.0 64 57 65.4 62.9 29.961 7.26 2.7 837 0.12 0.00 0.30 0.00
05/05/26 3:43:34 PM 34 4.0 13.0 64 57 65.5 63.0 29.958 7.26 2.7 826 0.12 0.00 0.30 0.00
05/05/26 3:44:24 PM 36 5.0 13.0 64 58 65.5 63.1 29.960 7.26 2.7 863 0.12 0.00 0.30 0.00
05/05/26 3:45:58 PM 36 3.0 13.0 64 57 65.5 63.2 29.960 7.26 2.7 853 0.12 0.00 0.30 0.00
05/05/26 3:46:29 PM 38 5.0 13.0 64 57 65.5 63.4 29.958 7.26 2.7 846 0.12 0.00 0.30 0.00
05/05/26 3:47:19 PM 35 7.0 13.0 64 56 65.5 63.4 29.958 7.26 2.4 846 0.12 0.00 0.30 0.00
05/05/26 3:48:32 PM 34 5.0 13.0 64 56 65.6 63.4 29.960 7.26 2.4 570 0.12 0.00 0.30 0.00
05/05/26 3:49:22 PM 32 9.0 13.0 64 56 65.6 63.4 29.957 7.26 2.6 793 0.12 0.00 0.30 0.00
05/05/26 3:50:29 PM 38 7.0 13.0 64 57 65.6 63.5 29.957 7.26 2.5 761 0.12 0.00 0.30 0.00
05/05/26 3:51:22 PM 38 12.0 17.0 64 57 65.6 63.5 29.960 7.26 2.4 707 0.12 0.00 0.30 0.00
05/05/26 3:52:35 PM 32 9.0 17.0 64 56 65.6 63.4 29.959 7.26 2.4 694 0.12 0.00 0.30 0.00
05/05/26 3:53:24 PM 38 5.0 17.0 64 56 65.7 63.4 29.957 7.26 2.4 724 0.12 0.00 0.30 0.00
05/05/26 3:54:17 PM 38 7.0 17.0 64 56 65.7 63.5 29.961 7.26 2.3 687 0.12 0.00 0.30 0.00
05/05/26 3:55:24 PM 34 6.0 17.0 64 56 65.7 63.5 29.957 7.26 2.3 687 0.12 0.00 0.30 0.00
05/05/26 3:56:37 PM 37 5.0 17.0 64 56 65.7 63.5 29.959 7.26 2.3 733 0.12 0.00 0.30 0.00
05/05/26 3:57:30 PM 34 5.0 17.0 64 56 65.7 63.6 29.959 7.26 2.4 731 0.12 0.00 0.30 0.00
05/05/26 3:58:19 PM 32 4.0 17.0 64 55 65.7 63.6 29.960 7.26 2.4 782 0.12 0.00 0.30 0.00
05/05/26 3:59:33 PM 32 3.0 17.0 64 56 65.7 63.7 29.960 7.26 2.3 782 0.12 0.00 0.30 0.00
05/05/26 4:00:28 PM 38 2.0 17.0 64 56 65.7 63.8 29.959 7.26 2.2 738 0.12 0.00 0.30 0.00
05/05/26 4:01:32 PM 32 8.0 17.0 64 57 65.7 64.0 29.957 7.26 2.3 724 0.12 0.00 0.30 0.00
05/05/26 4:02:25 PM 36 6.0 17.0 64 57 65.8 64.1 29.959 7.26 2.3 737 0.12 0.00 0.30 0.00
05/05/26 4:03:17 PM 37 6.0 17.0 64 56 65.8 64.2 29.960 7.26 2.3 724 0.12 0.00 0.30 0.00
05/05/26 4:04:31 PM 35 4.0 17.0 64 55 65.9 64.3 29.957 7.26 2.2 724 0.12 0.00 0.30 0.00
05/05/26 4:05:20 PM 37 6.0 17.0 64 55 65.9 64.3 29.957 7.26 2.2 703 0.12 0.00 0.30 0.00
05/05/26 4:06:30 PM 32 9.0 17.0 64 54 65.8 64.3 29.956 7.26 2.1 663 0.12 0.00 0.30 0.00
05/05/26 4:07:20 PM 34 6.0 17.0 64 53 65.9 64.1 29.959 7.26 2.0 570 0.12 0.00 0.30 0.00
05/05/26 4:08:45 PM 35 3.0 17.0 64 53 65.9 63.9 29.957 7.26 1.9 410 0.12 0.00 0.30 0.00
05/05/26 4:09:16 PM 35 7.0 17.0 64 54 65.9 63.9 29.960 7.26 1.8 410 0.12 0.00 0.30 0.00
05/05/26 4:10:27 PM 36 11.0 17.0 64 53 65.9 63.7 29.955 7.26 1.8 410 0.12 0.00 0.30 0.00
05/05/26 4:11:19 PM 34 6.0 17.0 64 53 65.9 63.6 29.954 7.26 2.1 679 0.12 0.00 0.30 0.00
05/05/26 4:12:27 PM 36 10.0 17.0 64 54 65.9 63.5 29.955 7.26 2.0 654 0.12 0.00 0.30 0.00
05/05/26 4:13:19 PM 36 6.0 17.0 64 54 66.0 63.4 29.955 7.26 2.0 650 0.12 0.00 0.30 0.00
05/05/26 4:14:29 PM 35 10.0 17.0 64 54 66.0 63.4 29.956 7.26 2.0 638 0.12 0.00 0.30 0.00
05/05/26 4:15:25 PM 36 7.0 17.0 64 55 66.0 63.4 29.952 7.26 2.0 640 0.12 0.00 0.30 0.00
05/05/26 4:16:35 PM 32 6.0 17.0 64 54 66.0 63.4 29.955 7.26 1.9 624 0.12 0.00 0.30 0.00
05/05/26 4:17:22 PM 34 5.0 17.0 64 53 66.0 63.4 29.955 7.26 1.9 622 0.12 0.00 0.30 0.00
05/05/26 4:18:35 PM 36 7.0 17.0 64 54 66.0 63.5 29.954 7.26 1.9 598 0.12 0.00 0.30 0.00
05/05/26 4:19:28 PM 34 8.0 17.0 64 54 66.1 63.5 29.955 7.26 1.7 501 0.12 0.00 0.30 0.00
05/05/26 4:20:20 PM 36 7.0 17.0 64 54 66.1 63.5 29.955 7.26 1.8 533 0.12 0.00 0.30 0.00
05/05/26 4:21:31 PM 34 8.0 17.0 64 53 66.1 63.5 29.954 7.26 1.8 612 0.12 0.00 0.30 0.00
05/05/26 4:22:17 PM 37 5.0 17.0 64 54 66.1 63.5 29.954 7.26 1.8 613 0.12 0.00 0.30 0.00
05/05/26 4:23:30 PM 37 11.0 17.0 64 53 66.1 63.5 29.958 7.26 1.8 617 0.12 0.00 0.30 0.00
05/05/26 4:24:23 PM 36 7.0 17.0 64 54 66.2 63.5 29.952 7.26 1.8 617 0.12 0.00 0.30 0.00
05/05/26 4:25:36 PM 32 1.0 17.0 64 53 66.2 63.6 29.955 7.26 1.8 617 0.12 0.00 0.30 0.00
05/05/26 4:26:28 PM 35 5.0 17.0 64 53 66.2 63.6 29.955 7.26 1.8 613 0.12 0.00 0.30 0.00
05/05/26 4:27:21 PM 36 7.0 17.0 64 53 66.2 63.6 29.955 7.26 1.8 613 0.12 0.00 0.30 0.00
05/05/26 4:28:28 PM 35 5.0 17.0 64 53 66.2 63.6 29.956 7.26 1.8 596 0.12 0.00 0.30 0.00
05/05/26 4:29:21 PM 34 4.0 17.0 64 53 66.2 63.6 29.953 7.26 1.7 566 0.12 0.00 0.30 0.00
05/05/26 4:30:34 PM 35 5.0 17.0 64 54 66.2 63.7 29.958 7.26 1.2 603 0.12 0.00 0.30 0.00
05/05/26 4:31:27 PM 36 11.0 17.0 64 53 66.2 63.7 29.954 7.26 1.2 603 0.12 0.00 0.30 0.00
05/05/26 4:32:19 PM 35 7.0 17.0 64 53 66.2 63.7 29.955 7.26 1.6 603 0.12 0.00 0.30 0.00
05/05/26 4:33:26 PM 37 4.0 17.0 64 53 66.2 63.6 29.956 7.26 1.6 613 0.12 0.00 0.30 0.00
05/05/26 4:34:19 PM 36 11.0 17.0 64 53 66.3 63.6 29.955 7.26 1.6 610 0.12 0.00 0.30 0.00
05/05/26 4:35:32 PM 35 10.0 17.0 64 53 66.3 63.7 29.960 7.26 1.6 603 0.12 0.00 0.30 0.00
05/05/26 4:36:25 PM 38 6.0 17.0 64 52 66.2 63.7 29.959 7.26 1.6 598 0.12 0.00 0.30 0.00
05/05/26 4:37:35 PM 38 6.0 17.0 64 53 66.3 63.7 29.957 7.26 1.5 592 0.12 0.00 0.30 0.00
05/05/26 4:38:25 PM 35 5.0 17.0 64 53 66.3 63.7 29.958 7.26 1.5 587 0.12 0.00 0.30 0.00
05/05/26 4:39:35 PM 38 7.0 17.0 64 53 66.3 63.8 29.959 7.26 1.5 573 0.12 0.00 0.30 0.00
05/05/26 4:40:30 PM 32 10.0 17.0 64 53 66.3 63.8 29.954 7.26 1.5 573 0.12 0.00 0.30 0.00
05/05/26 4:41:20 PM 38 4.0 17.0 64 52 66.4 63.8 29.958 7.26 1.5 573 0.12 0.00 0.30 0.00
05/05/26 4:42:33 PM 35 1.0 17.0 64 52 66.4 63.8 29.955 7.26 1.4 563 0.12 0.00 0.30 0.00
05/05/26 4:43:26 PM 35 6.0 17.0 64 53 66.4 63.8 29.955 7.26 1.4 559 0.12 0.00 0.30 0.00
05/05/26 4:44:33 PM 34 9.0 17.0 64 52 66.5 63.9 29.955 7.26 1.4 559 0.12 0.00 0.30 0.00
05/05/26 4:45:29 PM 32 9.0 17.0 64 52 66.4 63.9 29.955 7.26 1.4 563 0.12 0.00 0.30 0.00
05/05/26 4:46:18 PM 36 9.0 17.0 64 52 66.4 63.9 29.958 7.26 1.4 571 0.12 0.00 0.30 0.00
05/05/26 4:47:28 PM 35 6.0 17.0 64 52 66.5 63.9 29.957 7.26 1.4 571 0.12 0.00 0.30 0.00
05/05/26 4:48:21 PM 38 10.0 17.0 64 52 66.5 63.9 29.958 7.26 1.3 571 0.12 0.00 0.30 0.00
05/05/26 4:49:31 PM 32 10.0 17.0 64 53 66.5 63.8 29.959 7.26 1.3 527 0.12 0.00 0.30 0.00
05/05/26 4:50:21 PM 35 6.0 17.0 64 53 66.5 63.8 29.958 7.26 1.3 566 0.12 0.00 0.30 0.00
05/05/26 4:51:34 PM 37 9.0 17.0 64 53 66.5 63.7 29.955 7.26 1.3 566 0.12 0.00 0.30 0.00
05/05/26 4:52:27 PM 35 10.0 17.0 64 53 66.5 63.7 29.958 7.26 1.1 494 0.12 0.00 0.30 0.00
05/05/26 4:53:19 PM 38 5.0 17.0 64 52 66.5 63.6 29.958 7.26 1.3 304 0.12 0.00 0.30 0.00
05/05/26 4:54:26 PM 36 7.0 17.0 64 53 66.5 63.6 29.958 7.26 1.2 304 0.12 0.00 0.30 0.00
05/05/26 4:55:19 PM 35 7.0 17.0 64 52 66.5 63.6 29.958 7.26 1.2 504 0.12 0.00 0.30 0.00
05/05/26 4:56:29 PM 38 7.0 17.0 64 52 66.6 63.5 29.953 7.26 1.2 522 0.12 0.00 0.30 0.00
05/05/26 4:57:22 PM 34 6.0 17.0 64 52 66.6 63.5 29.957 7.26 1.2 547 0.12 0.00 0.30 0.00
05/05/26 4:58:35 PM 35 13.0 17.0 64 52 66.6 63.5 29.957 7.26 1.2 547 0.12 0.00 0.30 0.00
05/05/26 4:59:27 PM 34 11.0 17.0 64 53 66.6 63.5 29.958 7.26 1.2 568 0.12 0.00 0.30 0.00
05/05/26 5:00:35 PM 38 9.0 17.0 64 53 66.7 63.5 29.957 7.26 1.2 566 0.12 0.00 0.30 0.00
05/05/26 5:01:27 PM 32 13.0 17.0 64 53 66.7 63.5 29.959 7.26 1.2 555 0.12 0.00 0.30 0.00
05/05/26 5:02:17 PM 36 9.0 17.0 64 52 66.7 63.5 29.957 7.26 1.2 520 0.12 0.00 0.30 0.00
05/05/26 5:03:30 PM 37 11.0 18.0 64 51 66.7 63.5 29.958 7.26 1.0 434 0.12 0.00 0.30 0.00
05/05/26 5:04:23 PM 35 9.0 18.0 64 52 66.7 63.4 29.954 7.26 1.1 526 0.12 0.00 0.30 0.00
05/05/26 5:05:30 PM 38 9.0 18.0 64 52 66.7 63.3 29.957 7.26 1.1 584 0.12 0.00 0.30 0.00
05/05/26 5:06:23 PM 35 5.0 18.0 64 52 66.8 63.3 29.959 7.26 1.1 584 0.12 0.00 0.30 0.00
05/05/26 5:07:33 PM 34 10.0 18.0 64 52 66.8 63.2 29.959 7.26 1.0 592 0.12 0.00 0.30 0.00
05/05/26 5:08:26 PM 38 4.0 18.0 64 52 66.8 63.2 29.959 7.26 1.0 594 0.12 0.00 0.30 0.00
05/05/26 5:09:18 PM 35 6.0 18.0 64 53 66.8 63.2 29.961 7.26 1.0 587 0.12 0.00 0.30 0.00
05/05/26 5:10:28 PM 35 5.0 18.0 64 52 66.8 63.3 29.959 7.26 1.0 575 0.12 0.00 0.30 0.00
05/05/26 5:11:18 PM 36 5.0 18.0 64 52 66.8 63.3 29.961 7.26 1.0 563 0.12 0.00 0.30 0.00
05/05/26 5:12:31 PM 31 6.0 18.0 64 52 66.8 63.3 29.959 7.26 1.0 520 0.12 0.00 0.30 0.00
05/05/26 5:13:24 PM 32 6.0 18.0 64 52 66.8 63.3 29.961 7.26 0.9 508 0.12 0.00 0.30 0.00
05/05/26 5:14:34 PM 38 6.0 18.0 64 52 66.8 63.3 29.960 7.26 0.9 508 0.12 0.00 0.30 0.00
05/05/26 5:15:30 PM 38 5.0 18.0 64 52 66.8 63.3 29.960 7.26 0.9 478 0.12 0.00 0.30 0.00
05/05/26 5:16:37 PM 38 7.0 18.0 64 52 66.8 63.4 29.958 7.26 0.9 487 0.12 0.00 0.30 0.00
05/05/26 5:17:30 PM 37 4.0 18.0 64 52 66.8 63.4 29.961 7.26 0.9 487 0.12 0.00 0.30 0.00
05/05/26 5:18:19 PM 36 5.0 18.0 64 52 66.8 63.4 29.964 7.26 0.9 494 0.12 0.00 0.30 0.00
05/05/26 5:19:33 PM 34 4.0 18.0 64 52 66.9 63.4 29.960 7.26 0.9 501 0.12 0.00 0.30 0.00
05/05/26 5:20:22 PM 38 11.0 18.0 64 52 66.8 63.5 29.962 7.26 0.8 504 0.12 0.00 0.30 0.00
05/05/26 5:21:33 PM 38 3.0 18.0 64 52 66.9 63.5 29.963 7.26 0.8 512 0.12 0.00 0.30 0.00
05/05/26 5:22:25 PM 36 7.0 18.0 64 52 67.0 63.5 29.963 7.26 0.8 512 0.12 0.00 0.30 0.00
05/05/26 5:23:35 PM 36 6.0 18.0 64 51 67.0 63.4 29.960 7.26 0.8 529 0.12 0.00 0.30 0.00
05/05/26 5:24:28 PM 37 2.0 18.0 64 51 66.9 63.4 29.963 7.26 0.8 522 0.12 0.00 0.30 0.00
05/05/26 5:25:20 PM 35 5.0 18.0 64 52 66.9 63.4 29.962 7.26 0.7 522 0.12 0.00 0.30 0.00
05/05/26 5:26:28 PM 36 6.0 18.0 64 51 66.9 63.4 29.961 7.26 0.7 371 0.12 0.00 0.30 0.00
05/05/26 5:27:20 PM 36 6.0 18.0 64 51 66.9 63.4 29.961 7.26 0.7 371 0.12 0.00 0.30 0.00
05/05/26 5:28:31 PM 38 6.0 18.0 64 52 66.9 63.4 29.962 7.26 0.7 475 0.12 0.00 0.30 0.00
05/05/26 5:29:23 PM 31 6.0 18.0 64 52 66.9 63.5 29.962 7.26 0.7 503 0.12 0.00 0.30 0.00
05/05/26 5:30:58 PM 32 3.0 18.0 64 51 66.9 63.5 29.963 7.26 0.7 497 0.12 0.00 0.30 0.00
05/05/26 5:31:26 PM 37 4.0 18.0 64 52 67.0 63.5 29.963 7.26 0.6 492 0.12 0.00 0.30 0.00
05/05/26 5:32:36 PM 36 4.0 18.0 64 51 67.0 63.5 29.961 7.26 0.6 489 0.12 0.00 0.30 0.00
05/05/26 5:33:29 PM 37 3.0 18.0 64 51 67.0 63.6 29.960 7.26 0.6 478 0.12 0.00 0.30 0.00
05/05/26 5:34:21 PM 36 2.0 18.0 64 51 67.0 63.6 29.960 7.26 0.6 457 0.12 0.00 0.30 0.00
05/05/26 5:35:32 PM 34 2.0 18.0 64 52 66.9 63.6 29.963 7.26 0.6 364 0.12 0.00 0.30 0.00
05/05/26 5:36:24 PM 37 4.0 18.0 64 52 66.9 63.7 29.961 7.26 0.6 364 0.12 0.00 0.30 0.00
05/05/26 5:37:17 PM 36 3.0 18.0 64 52 66.9 63.8 29.960 7.26 0.6 438 0.12 0.00 0.30 0.00
05/05/26 5:38:24 PM 35 5.0 18.0 64 52 66.9 63.8 29.960 7.26 0.5 378 0.12 0.00 0.30 0.00
05/05/26 5:39:17 PM 32 12.0 18.0 64 52 66.9 63.9 29.963 7.26 0.5 378 0.12 0.00 0.30 0.00
05/05/26 5:40:30 PM 36 3.0 18.0 64 52 66.9 63.8 29.962 7.26 0.5 178 0.12 0.00 0.30 0.00
05/05/26 5:41:23 PM 30 4.0 18.0 64 52 67.0 63.8 29.962 7.26 0.0 176 0.12 0.00 0.30 0.00
05/05/26 5:42:33 PM 35 4.0 18.0 64 52 66.9 63.7 29.961 7.26 0.0 153 0.12 0.00 0.30 0.00
05/05/26 5:43:22 PM 37 5.0 18.0 64 51 66.9 63.6 29.962 7.26 0.0 153 0.12 0.00 0.30 0.00
05/05/26 5:44:33 PM 37 4.0 18.0 64 51 66.9 63.6 29.964 7.26 0.0 162 0.12 0.00 0.30 0.00
05/05/26 5:45:28 PM 37 5.0 18.0 64 52 66.9 63.5 29.964 7.26 0.0 167 0.12 0.00 0.30 0.00
05/05/26 5:46:18 PM 35 6.0 18.0 64 52 66.9 63.5 29.962 7.26 0.0 167 0.12 0.00 0.30 0.00
05/05/26 5:47:31 PM 34 4.0 18.0 64 51 66.9 63.3 29.963 7.26 0.0 167 0.12 0.00 0.30 0.00
05/05/26 5:48:18 PM 38 7.0 18.0 64 51 66.9 63.2 29.960 7.26 0.0 192 0.12 0.00 0.30 0.00
05/05/26 5:49:31 PM 34 8.0 18.0 64 51 66.8 63.1 29.963 7.26 0.0 192 0.12 0.00 0.30 0.00
05/05/26 5:50:24 PM 34 6.0 18.0 64 51 66.8 63.0 29.964 7.26 0.0 343 0.12 0.00 0.30 0.00
05/05/26 5:51:34 PM 35 7.0 18.0 64 52 66.8 62.9 29.962 7.26 0.0 378 0.12 0.00 0.30 0.00
05/05/26 5:52:26 PM 38 5.0 18.0 64 52 66.8 62.8 29.962 7.26 0.0 378 0.12 0.00 0.30 0.00
05/05/26 5:53:19 PM 39 10.0 18.0 64 52 66.8 62.7 29.963 7.26 0.0 149 0.12 0.00 0.30 0.00
05/05/26 5:54:26 PM 36 4.0 18.0 64 52 66.7 62.6 29.963 7.26 0.0 146 0.12 0.00 0.30 0.00
05/05/26 5:55:16 PM 37 6.0 18.0 64 52 66.8 62.5 29.963 7.26 0.0 141 0.12 0.00 0.30 0.00
05/05/26 5:56:32 PM 36 9.0 18.0 64 53 66.7 62.4 29.964 7.26 0.0 163 0.12 0.00 0.30 0.00
05/05/26 5:57:25 PM 38 2.0 18.0 64 52 66.7 62.3 29.963 7.26 0.0 181 0.12 0.00 0.30 0.00
05/05/26 5:58:17 PM 37 3.0 18.0 64 53 66.7 62.3 29.965 7.26 0.0 272 0.12 0.00 0.30 0.00
05/05/26 5:59:25 PM 35 4.0 18.0 64 53 66.7 62.2 29.965 7.26 0.0 315 0.12 0.00 0.30 0.00
05/05/26 6:00:39 PM 38 4.0 18.0 64 53 66.7 62.2 29.965 7.26 0.0 301 0.12 0.00 0.30 0.00
05/05/26 6:01:31 PM 38 5.0 18.0 64 53 66.6 62.2 29.965 7.26 0.0 292 0.12 0.00 0.30 0.00
05/05/26 6:02:23 PM 36 5.0 18.0 64 53 66.7 62.2 29.965 7.26 0.0 292 0.12 0.00 0.30 0.00
05/05/26 6:03:37 PM 32 4.0 18.0 64 53 66.7 62.1 29.963 7.26 0.0 262 0.12 0.00 0.30 0.00
05/05/26 6:04:29 PM 35 3.0 18.0 64 53 66.6 62.1 29.963 7.26 0.0 174 0.12 0.00 0.30 0.00
05/05/26 6:05:19 PM 38 3.0 18.0 64 53 66.6 62.1 29.962 7.26 0.0 135 0.12 0.00 0.30 0.00
05/05/26 6:06:29 PM 35 3.0 18.0 64 53 66.7 62.1 29.961 7.26 0.0 132 0.12 0.00 0.30 0.00
05/05/26 6:07:19 PM 38 5.0 18.0 64 53 66.6 62.1 29.964 7.26 0.0 218 0.12 0.00 0.30 0.00
05/05/26 6:08:41 PM 38 7.0 18.0 64 53 66.6 62.1 29.965 7.26 0.0 243 0.12 0.00 0.30 0.00
05/05/26 6:09:34 PM 38 4.0 18.0 64 52 66.6 62.1 29.964 7.26 0.0 243 0.12 0.00 0.30 0.00
05/05/26 6:10:23 PM 32 4.0 18.0 64 53 66.6 62.1 29.964 7.26 0.0 243 0.12 0.00 0.30 0.00
05/05/26 6:11:34 PM 38 9.0 18.0 64 53 66.6 62.1 29.963 7.26 0.0 265 0.12 0.00 0.30 0.00
05/05/26 6:12:23 PM 31 6.0 18.0 64 53 66.6 62.1 29.963 7.26 0.0 265 0.12 0.00 0.30 0.00
05/05/26 6:13:37 PM 37 3.0 18.0 64 53 66.6 62.1 29.963 7.26 0.0 267 0.12 0.00 0.30 0.00
05/05/26 6:14:26 PM 37 3.0 18.0 64 53 66.6 62.1 29.963 7.26 0.0 267 0.12 0.00 0.30 0.00
05/05/26 6:15:19 PM 34 2.0 18.0 64 53 66.6 62.2 29.965 7.26 0.0 267 0.12 0.00 0.30 0.00
05/05/26 6:16:26 PM 34 5.0 18.0 64 53 66.6 62.2 29.963 7.26 0.0 265 0.12 0.00 0.30 0.00
05/05/26 6:17:18 PM 35 4.0 18.0 64 53 66.6 62.2 29.962 7.26 0.0 258 0.12 0.00 0.30 0.00
05/05/26 6:18:32 PM 35 5.0 18.0 64 53 66.5 62.2 29.963 7.26 0.0 255 0.12 0.00 0.30 0.00
05/05/26 6:19:22 PM 31 4.0 18.0 64 52 66.5 62.2 29.961 7.26 0.0 255 0.12 0.00 0.30 0.00
05/05/26 6:20:35 PM 32 4.0 18.0 64 53 66.5 62.2 29.964 7.26 0.0 246 0.12 0.00 0.30 0.00
05/05/26 6:21:22 PM 34 4.0 18.0 64 53 66.5 62.3 29.962 7.26 0.0 230 0.12 0.00 0.30 0.00
05/05/26 6:22:35 PM 32 5.0 18.0 64 53 66.5 62.3 29.964 7.26 0.0 216 0.12 0.00 0.30 0.00
05/05/26 6:23:27 PM 38 5.0 18.0 64 53 66.5 62.3 29.961 7.26 0.0 216 0.12 0.00 0.30 0.00
05/05/26 6:24:20 PM 38 5.0 18.0 64 53 66.5 62.3 29.966 7.26 0.0 216 0.12 0.00 0.30 0.00
05/05/26 6:25:31 PM 35 4.0 18.0 64 53 66.5 62.3 29.965 7.26 0.0 204 0.12 0.00 0.30 0.00
05/05/26 6:26:20 PM 36 7.0 18.0 64 53 66.5 62.3 29.966 7.26 0.0 204 0.12 0.00 0.30 0.00
05/05/26 6:27:31 PM 32 5.0 18.0 64 53 66.5 62.3 29.964 7.26 0.0 195 0.12 0.00 0.30 0.00
05/05/26 6:28:23 PM 32 4.0 18.0 64 53 66.5 62.3 29.964 7.26 0.0 158 0.12 0.00 0.30 0.00
05/05/26 6:29:37 PM 38 5.0 18.0 64 53 66.5 62.3 29.966 7.26 0.0 134 0.12 0.00 0.30 0.00
05/05/26 6:30:29 PM 35 1.0 18.0 64 53 66.5 62.2 29.965 7.26 0.0 156 0.12 0.00 0.30 0.00
05/05/26 6:31:19 PM 38 3.0 18.0 64 53 66.5 62.2 29.966 7.26 0.0 155 0.12 0.00 0.30 0.00
05/05/26 6:32:26 PM 36 2.0 18.0 64 53 66.5 62.2 29.964 7.26 0.0 128 0.12 0.00 0.30 0.00
05/05/26 6:33:19 PM 34 5.0 18.0 64 53 66.5 62.2 29.964 7.26 0.0 128 0.12 0.00 0.30 0.00
05/05/26 6:34:33 PM 34 3.0 18.0 64 54 66.5 62.2 29.965 7.26 0.0 104 0.12 0.00 0.30 0.00
05/05/26 6:35:22 PM 34 4.0 18.0 64 54 66.5 62.2 29.967 7.26 0.0 104 0.12 0.00 0.30 0.00
05/05/26 6:36:17 PM 35 3.0 18.0 64 53 66.5 62.2 29.966 7.26 0.0 116 0.12 0.00 0.30 0.00
05/05/26 6:37:25 PM 38 5.0 18.0 64 53 66.5 62.2 29.966 7.26 0.0 127 0.12 0.00 0.30 0.00
05/05/26 6:38:36 PM 38 6.0 18.0 64 53 66.5 62.2 29.968 7.26 0.0 125 0.12 0.00 0.30 0.00
05/05/26 6:39:28 PM 34 9.0 18.0 64 53 66.5 62.2 29.968 7.26 0.0 125 0.12 0.00 0.30 0.00
05/05/26 6:40:21 PM 35 5.0 18.0 64 53 66.4 62.1 29.967 7.26 0.0 113 0.12 0.00 0.30 0.00
05/05/26 6:41:31 PM 34 5.0 18.0 64 53 66.5 62.0 29.968 7.26 0.0 77 0.12 0.00 0.30 0.00
05/05/26 6:42:21 PM 35 4.0 18.0 64 53 66.4 62.0 29.968 7.26 0.0 77 0.12 0.00 0.30 0.00
05/05/26 6:43:31 PM 38 6.0 18.0 64 53 66.4 62.0 29.968 7.26 0.0 62 0.12 0.00 0.30 0.00
05/05/26 6:44:24 PM 36 3.0 18.0 64 53 66.4 61.9 29.969 7.26 0.0 60 0.12 0.00 0.30 0.00
05/05/26 6:45:37 PM 32 6.0 18.0 64 54 66.4 61.8 29.970 7.26 0.0 77 0.12 0.00 0.30 0.00
05/05/26 6:46:27 PM 38 4.0 18.0 64 53 66.4 61.7 29.968 7.26 0.0 88 0.12 0.00 0.30 0.00
05/05/26 6:47:19 PM 34 4.0 18.0 64 54 66.3 61.7 29.970 7.26 0.0 76 0.12 0.00 0.30 0.00
05/05/26 6:48:27 PM 38 4.0 18.0 64 54 66.3 61.6 29.968 7.26 0.0 67 0.12 0.00 0.30 0.00
05/05/26 6:49:19 PM 38 2.0 18.0 64 54 66.3 61.5 29.967 7.26 0.0 63 0.12 0.00 0.30 0.00
05/05/26 6:50:33 PM 38 4.0 18.0 64 54 66.3 61.5 29.967 7.26 0.0 58 0.12 0.00 0.30 0.00
05/05/26 6:51:25 PM 32 4.0 18.0 64 54 66.3 61.4 29.971 7.26 0.0 53 0.12 0.00 0.30 0.00
05/05/26 6:52:18 PM 36 4.0 18.0 64 54 66.3 61.4 29.968 7.26 0.0 49 0.12 0.00 0.30 0.00
05/05/26 6:53:25 PM 34 3.0 18.0 64 55 66.3 61.4 29.969 7.26 0.0 47 0.12 0.00 0.30 0.00
05/05/26 6:54:36 PM 38 4.0 18.0 64 55 66.2 61.4 29.969 7.26 0.0 44 0.12 0.00 0.30 0.00
05/05/26 6:55:31 PM 38 4.0 18.0 64 55 66.3 61.4 29.971 7.26 0.0 42 0.12 0.00 0.30 0.00
05/05/26 6:56:21 PM 36 2.0 18.0 64 55 66.2 61.3 29.971 7.26 0.0 42 0.12 0.00 0.30 0.00
05/05/26 6:57:34 PM 34 5.0 18.0 64 55 66.2 61.4 29.971 7.26 0.0 37 0.12 0.00 0.30 0.00
05/05/26 6:58:21 PM 34 2.0 18.0 64 54 66.2 61.3 29.972 7.26 0.0 37 0.12 0.00 0.30 0.00
05/05/26 6:59:34 PM 38 9.0 18.0 64 54 66.2 61.3 29.971 7.26 0.0 37 0.12 0.00 0.30 0.00
05/05/26 7:00:48 PM 36 6.0 18.0 64 54 66.2 61.3 29.973 7.26 0.0 37 0.12 0.00 0.30 0.00
05/05/26 7:01:16 PM 38 6.0 18.0 64 55 66.2 61.3 29.972 7.26 0.0 33 0.12 0.00 0.30 0.00
05/05/26 7:02:30 PM 38 6.0 18.0 64 55 66.2 61.2 29.973 7.26 0.0 32 0.12 0.00 0.30 0.00
05/05/26 7:03:22 PM 36 3.0 18.0 64 54 66.2 61.2 29.974 7.26 0.0 30 0.12 0.00 0.30 0.00
05/05/26 7:04:30 PM 36 5.0 18.0 64 54 66.2 61.2 29.973 7.26 0.0 28 0.12 0.00 0.30 0.00
05/05/26 7:05:19 PM 36 3.0 18.0 64 54 66.2 61.1 29.976 7.26 0.0 28 0.12 0.00 0.30 0.00
05/05/26 7:06:33 PM 40 2.0 18.0 64 54 66.2 61.1 29.977 7.26 0.0 26 0.12 0.00 0.30 0.00
05/05/26 7:07:25 PM 35 3.0 18.0 64 54 66.1 61.1 29.974 7.26 0.0 25 0.12 0.00 0.30 0.00
05/05/26 7:08:33 PM 31 3.0 18.0 64 55 66.2 61.1 29.972 7.26 0.0 25 0.12 0.00 0.30 0.00
05/05/26 7:09:22 PM 36 2.0 18.0 64 55 66.1 61.0 29.973 7.26 0.0 23 0.12 0.00 0.30 0.00
05/05/26 7:10:33 PM 36 1.0 18.0 64 55 66.1 61.0 29.974 7.26 0.0 19 0.12 0.00 0.30 0.00
05/05/26 7:11:25 PM 34 4.0 18.0 64 55 66.1 61.0 29.976 7.26 0.0 19 0.12 0.00 0.30 0.00
05/05/26 7:12:18 PM 36 2.0 18.0 64 55 66.1 61.0 29.976 7.26 0.0 19 0.12 0.00 0.30 0.00
05/05/26 7:13:31 PM 35 2.0 18.0 64 55 66.1 61.0 29.973 7.26 0.0 16 0.12 0.00 0.30 0.00
05/05/26 7:14:24 PM 34 2.0 18.0 64 55 66.1 61.0 29.977 7.26 0.0 16 0.12 0.00 0.30 0.00
05/05/26 7:15:53 PM 36 3.0 18.0 64 55 66.1 61.0 29.978 7.26 0.0 14 0.12 0.00 0.30 0.00
05/05/26 7:16:24 PM 35 4.0 18.0 64 55 66.1 60.9 29.976 7.26 0.0 12 0.12 0.00 0.30 0.00
05/05/26 7:17:35 PM 37 5.0 18.0 64 55 66.0 60.9 29.977 7.26 0.0 12 0.12 0.00 0.30 0.00
05/05/26 7:18:30 PM 37 4.0 18.0 64 55 66.0 60.9 29.980 7.26 0.0 12 0.12 0.00 0.30 0.00
05/05/26 7:19:20 PM 31 6.0 18.0 64 55 66.0 60.8 29.979 7.26 0.0 11 0.12 0.00 0.30 0.00
05/05/26 7:20:30 PM 35 6.0 18.0 64 55 66.0 60.8 29.977 7.26 0.0 9 0.12 0.00 0.30 0.00
05/05/26 7:21:20 PM 36 5.0 18.0 64 55 66.0 60.8 29.979 7.26 0.0 9 0.12 0.00 0.30 0.00
05/05/26 7:22:34 PM 37 4.0 18.0 64 55 66.0 60.7 29.980 7.26 0.0 7 0.12 0.00 0.30 0.00
05/05/26 7:23:26 PM 34 5.0 18.0 64 55 66.0 60.7 29.978 7.26 0.0 7 0.12 0.00 0.30 0.00
05/05/26 7:24:19 PM 36 6.0 18.0 64 55 66.0 60.7 29.980 7.26 0.0 7 0.12 0.00 0.30 0.00
05/05/26 7:25:30 PM 35 6.0 18.0 64 55 66.0 60.6 29.981 7.26 0.0 5 0.12 0.00 0.30 0.00
05/05/26 7:26:16 PM 38 6.0 18.0 64 55 65.9 60.5 29.980 7.26 0.0 5 0.12 0.00 0.30 0.00
05/05/26 7:27:30 PM 36 5.0 18.0 64 55 65.9 60.5 29.982 7.26 0.0 0 0.12 0.00 0.30 0.00
05/05/26 7:28:22 PM 36 3.0 18.0 64 55 65.9 60.5 29.982 7.26 0.0 0 0.12 0.00 0.30 0.00
05/05/26 7:29:33 PM 35 2.0 18.0 64 55 65.9 60.4 29.983 7.26 0.0 0 0.12 0.00 0.30 0.00
05/05/26 7:30:25 PM 35 2.0 18.0 64 56 65.9 60.4 29.983 7.26 0.0 0 0.12 0.00 0.30 0.00
05/05/26 7:31:33 PM 38 2.0 18.0 64 56 65.8 60.4 29.982 7.26 0.0 0 0.12 0.00 0.30 0.00
05/05/26 7:32:25 PM 38 3.0 18.0 64 56 65.9 60.4 29.984 7.26 0.0 0 0.12 0.00 0.30 0.00
05/05/26 7:33:36 PM 36 1.0 18.0 64 56 65.8 60.4 29.984 7.26 0.0 0 0.12 0.00 0.30 0.00
05/05/26 7:34:29 PM 34 5.0 18.0 64 56 65.8 60.3 29.984 7.26 0.0 0 0.12 0.00 0.30 0.00
05/05/26 7:35:21 PM 35 2.0 18.0 64 56 65.7 60.3 29.982 7.26 0.0 0 0.12 0.00 0.30 0.00
05/05/26 7:36:29 PM 32 2.0 18.0 64 56 65.8 60.3 29.986 7.26 0.0 0 0.12 0.00 0.30 0.00
05/05/26 7:37:21 PM 36 3.0 18.0 64 56 65.8 60.3 29.987 7.26 0.0 0 0.12 0.00 0.30 0.00
05/05/26 7:38:32 PM 38 5.0 18.0 64 56 65.7 60.3 29.987 7.26 0.0 0 0.12 0.00 0.30 0.00
05/05/26 7:39:24 PM 36 5.0 18.0 64 57 65.7 60.3 29.986 7.26 0.0 0 0.12 0.00 0.30 0.00
05/05/26 7:40:35 PM 32 4.0 18.0 64 56 65.7 60.2 29.986 7.26 0.0 0 0.12 0.00 0.30 0.00
05/05/26 7:41:27 PM 38 2.0 18.0 64 56 65.7 60.2 29.986 7.26 0.0 0 0.12 0.00 0.30 0.00
05/05/26 7:42:35 PM 38 3.0 18.0 64 56 65.7 60.2 29.989 7.26 0.0 0 0.12 0.00 0.30 0.00
05/05/26 7:43:27 PM 36 3.0 18.0 64 56 65.7 60.2 29.988 7.26 0.0 0 0.12 0.00 0.30 0.00
05/05/26 7:44:20 PM 38 3.0 18.0 64 56 65.7 60.1 29.992 7.26 0.0 0 0.12 0.00 0.30 0.00
05/05/26 7:45:33 PM 38 2.0 18.0 64 56 65.7 60.1 29.990 7.26 0.0 0 0.12 0.00 0.30 0.00
05/05/26 7:46:26 PM 32 5.0 18.0 64 56 65.6 60.1 29.995 7.26 0.0 0 0.12 0.00 0.30 0.00
05/05/26 7:47:34 PM 38 7.0 18.0 64 57 65.6 60.1 29.992 7.26 0.0 0 0.12 0.00 0.30 0.00
05/05/26 7:48:23 PM 35 4.0 18.0 64 57 65.6 60.0 29.994 7.26 0.0 0 0.12 0.00 0.30 0.00
05/05/26 7:49:15 PM 36 3.0 18.0 64 56 65.6 60.0 29.992 7.26 0.0 0 0.12 0.00 0.30 0.00
05/05/26 7:50:29 PM 29 4.0 18.0 64 57 65.5 60.0 29.997 7.26 0.0 0 0.12 0.00 0.30 0.00
05/05/26 7:51:22 PM 36 6.0 18.0 64 57 65.5 60.0 29.996 7.26 0.0 0 0.12 0.00 0.30 0.00
05/05/26 7:52:29 PM 38 5.0 18.0 64 56 65.5 59.9 29.997 7.26 0.0 0 0.12 0.00 0.30 0.00
05/05/26 7:53:22 PM 35 2.0 18.0 64 56 65.5 59.9 29.996 7.26 0.0 0 0.12 0.00 0.30 0.00
05/05/26 7:54:33 PM 39 3.0 18.0 64 56 65.4 59.9 30.001 7.26 0.0 0 0.12 0.00 0.30 0.00
05/05/26 7:55:25 PM 36 5.0 18.0 64 57 65.5 59.9 29.997 7.26 0.0 0 0.12 0.00 0.30 0.00
05/05/26 7:56:17 PM 38 3.0 18.0 64 57 65.4 59.9 29.999 7.26 0.0 0 0.12 0.00 0.30 0.00
05/05/26 7:57:31 PM 38 3.0 18.0 64 57 65.4 59.9 29.998 7.26 0.0 0 0.12 0.00 0.30 0.00
05/05/26 7:58:20 PM 32 3.0 18.0 64 57 65.4 59.8 29.999 7.26 0.0 0 0.12 0.00 0.30 0.00
05/05/26 7:59:31 PM 34 1.0 18.0 64 57 65.4 59.8 29.999 7.26 0.0 0 0.12 0.00 0.30 0.00
05/05/26 8:00:24 PM 38 2.0 18.0 64 57 65.4 59.8 30.000 7.26 0.0 0 0.12 0.00 0.30 0.00
05/05/26 8:01:37 PM 35 1.0 18.0 64 57 65.4 59.8 29.999 7.26 0.0 0 0.12 0.00 0.30 0.00
05/05/26 8:02:30 PM 38 6.0 18.0 64 57 65.4 59.8 30.003 7.26 0.0 0 0.12 0.00 0.30 0.00
05/05/26 8:03:37 PM 32 2.0 18.0 64 57 65.4 59.8 29.999 7.26 0.0 0 0.12 0.00 0.30 0.00
05/05/26 8:04:27 PM 36 0.0 18.0 64 57 65.4 59.8 30.003 7.26 0.0 0 0.12 0.00 0.30 0.00
05/05/26 8:05:19 PM 39 2.0 18.0 64 56 65.4 59.8 30.002 7.26 0.0 0 0.12 0.00 0.30 0.00
05/05/26 8:06:33 PM 38 3.0 18.0 64 56 65.3 59.7 30.003 7.26 0.0 0 0.12 0.00 0.30 0.00
05/05/26 8:07:22 PM 38 3.0 18.0 64 56 65.3 59.7 30.002 7.26 0.0 0 0.12 0.00 0.30 0.00
05/05/26 8:08:42 PM 38 2.0 18.0 64 57 65.3 59.7 30.004 7.26 0.0 0 0.12 0.00 0.30 0.00
05/05/26 8:09:35 PM 30 1.0 18.0 64 57 65.3 59.7 30.004 7.26 0.0 0 0.12 0.00 0.30 0.00
05/05/26 8:10:27 PM 37 3.0 18.0 64 58 65.3 59.7 30.002 7.26 0.0 0 0.12 0.00 0.30 0.00
05/05/26 8:11:17 PM 38 0.0 18.0 64 58 65.3 59.7 30.004 7.26 0.0 0 0.12 0.00 0.30 0.00
05/05/26 8:12:30 PM 38 2.0 18.0 64 58 65.3 59.7 30.007 7.26 0.0 0 0.12 0.00 0.30 0.00
05/05/26 8:13:23 PM 38 2.0 18.0 64 58 65.3 59.7 30.003 7.26 0.0 0 0.12 0.00 0.30 0.00
05/05/26 8:14:30 PM 35 2.0 18.0 64 58 65.2 59.7 30.005 7.26 0.0 0 0.12 0.00 0.30 0.00
05/05/26 8:15:23 PM 38 1.0 18.0 64 59 65.2 59.7 30.005 7.26 0.0 0 0.12 0.00 0.30 0.00
05/05/26 8:16:34 PM 32 3.0 18.0 64 59 65.2 59.6 30.004 7.26 0.0 0 0.12 0.00 0.30 0.00
05/05/26 8:17:23 PM 36 2.0 18.0 64 58 65.2 59.6 30.006 7.26 0.0 0 0.12 0.00 0.30 0.00
05/05/26 8:18:37 PM 36 2.0 18.0 64 58 65.2 59.6 30.006 7.26 0.0 0 0.12 0.00 0.30 0.00
05/05/26 8:19:23 PM 36 2.0 18.0 64 58 65.2 59.5 30.006 7.26 0.0 0 0.12 0.00 0.30 0.00
05/05/26 8:20:37 PM 35 3.0 18.0 64 58 65.2 59.5 30.005 7.26 0.0 0 0.12 0.00 0.30 0.00
05/05/26 8:21:26 PM 37 1.0 18.0 64 58 65.2 59.5 30.008 7.26 0.0 0 0.12 0.00 0.30 0.00
05/05/26 8:22:19 PM 36 4.0 18.0 64 58 65.2 59.5 30.009 7.26 0.0 0 0.12 0.00 0.30 0.00
05/05/26 8:23:32 PM 37 5.0 18.0 64 58 65.1 59.4 30.008 7.26 0.0 0 0.12 0.00 0.30 0.00
05/05/26 8:24:25 PM 34 4.0 18.0 64 57 65.1 59.4 30.006 7.26 0.0 0 0.12 0.00 0.30 0.00
05/05/26 8:25:32 PM 34 2.0 18.0 64 57 65.1 59.3 30.009 7.26 0.0 0 0.12 0.00 0.30 0.00
05/05/26 8:26:25 PM 36 3.0 18.0 64 57 65.1 59.3 30.010 7.26 0.0 0 0.12 0.00 0.30 0.00
05/05/26 8:27:35 PM 35 2.0 18.0 64 58 65.0 59.3 30.011 7.26 0.0 0 0.12 0.00 0.30 0.00
05/05/26 8:28:28 PM 32 2.0 18.0 64 58 65.0 59.3 30.012 7.26 0.0 0 0.12 0.00 0.30 0.00
05/05/26 8:29:20 PM 35 5.0 18.0 64 59 65.0 59.3 30.011 7.26 0.0 0 0.12 0.00 0.30 0.00
05/05/26 8:30:31 PM 38 3.0 18.0 64 59 65.0 59.3 30.012 7.26 0.0 0 0.12 0.00 0.30 0.00
05/05/26 8:31:21 PM 36 3.0 18.0 64 59 65.0 59.2 30.012 7.26 0.0 0 0.12 0.00 0.30 0.00
05/05/26 8:32:31 PM 35 2.0 18.0 64 59 65.0 59.2 30.015 7.26 0.0 0 0.12 0.00 0.30 0.00
05/05/26 8:33:24 PM 38 1.0 18.0 64 59 64.9 59.1 30.015 7.26 0.0 0 0.12 0.00 0.30 0.00
05/05/26 8:34:16 PM 36 2.0 18.0 64 59 65.0 59.1 30.011 7.26 0.0 0 0.12 0.00 0.30 0.00
05/05/26 8:35:24 PM 39 4.0 18.0 64 59 65.0 59.0 30.015 7.26 0.0 0 0.12 0.00 0.30 0.00
05/05/26 8:36:16 PM 38 5.0 18.0 64 59 64.9 58.9 30.014 7.26 0.0 0 0.12 0.00 0.30 0.00
05/05/26 8:37:27 PM 35 4.0 18.0 64 60 64.9 58.9 30.016 7.26 0.0 0 0.12 0.00 0.30 0.00
05/05/26 8:38:20 PM 38 3.0 18.0 64 60 64.9 58.8 30.017 7.26 0.0 0 0.12 0.00 0.30 0.00
05/05/26 8:39:30 PM 36 3.0 18.0 64 60 64.9 58.8 30.016 7.26 0.0 0 0.12 0.00 0.30 0.00
05/05/26 8:40:23 PM 38 4.0 18.0 64 60 64.9 58.7 30.017 7.26 0.0 0 0.12 0.00 0.30 0.00
05/05/26 8:41:30 PM 36 3.0 18.0 64 60 64.8 58.6 30.018 7.26 0.0 0 0.12 0.00 0.30 0.00
05/05/26 8:42:23 PM 39 3.0 18.0 64 60 64.9 58.6 30.017 7.26 0.0 0 0.12 0.00 0.30 0.00
05/05/26 8:43:33 PM 38 3.0 18.0 64 61 64.8 58.5 30.018 7.26 0.0 0 0.12 0.00 0.30 0.00
05/05/26 8:44:26 PM 38 2.0 18.0 64 61 64.8 58.4 30.016 7.26 0.0 0 0.12 0.00 0.30 0.00
05/05/26 8:45:18 PM 38 3.0 18.0 64 61 64.7 58.4 30.017 7.26 0.0 0 0.12 0.00 0.30 0.00
05/05/26 8:46:26 PM 38 3.0 18.0 64 61 64.7 58.3 30.013 7.26 0.0 0 0.12 0.00 0.30 0.00
05/05/26 8:47:19 PM 38 4.0 18.0 64 61 64.7 58.2 30.017 7.26 0.0 0 0.12 0.00 0.30 0.00
05/05/26 8:48:29 PM 35 3.0 18.0 64 62 64.7 58.1 30.015 7.26 0.0 0 0.12 0.00 0.30 0.00
05/05/26 8:49:22 PM 39 2.0 18.0 64 62 64.6 58.0 30.017 7.26 0.0 0 0.12 0.00 0.30 0.00
05/05/26 8:50:33 PM 32 4.0 18.0 64 62 64.6 57.9 30.017 7.26 0.0 0 0.12 0.00 0.30 0.00
05/05/26 8:51:22 PM 36 4.0 18.0 64 62 64.6 57.8 30.018 7.26 0.0 0 0.12 0.00 0.30 0.00
05/05/26 8:52:33 PM 30 3.0 18.0 64 62 64.6 57.8 30.018 7.26 0.0 0 0.12 0.00 0.30 0.00
05/05/26 8:53:25 PM 35 3.0 18.0 64 62 64.5 57.7 30.020 7.26 0.0 0 0.12 0.00 0.30 0.00
05/05/26 8:54:18 PM 37 3.0 18.0 64 62 64.5 57.7 30.017 7.26 0.0 0 0.12 0.00 0.30 0.00
05/05/26 8:55:29 PM 35 2.0 18.0 64 62 64.5 57.6 30.019 7.26 0.0 0 0.12 0.00 0.30 0.00
05/05/26 8:56:21 PM 36 4.0 18.0 64 62 64.4 57.5 30.018 7.26 0.0 0 0.12 0.00 0.30 0.00
05/05/26 8:57:29 PM 36 3.0 18.0 64 62 64.4 57.5 30.022 7.26 0.0 0 0.12 0.00 0.30 0.00
05/05/26 8:58:22 PM 32 4.0 18.0 64 63 64.4 57.4 30.020 7.26 0.0 0 0.12 0.00 0.30 0.00
05/05/26 8:59:32 PM 39 4.0 18.0 64 63 64.3 57.4 30.024 7.26 0.0 0 0.12 0.00 0.30 0.00
05/05/26 9:00:28 PM 35 4.0 18.0 64 63 64.3 57.3 30.021 7.26 0.0 0 0.12 0.00 0.30 0.00
05/05/26 9:01:17 PM 38 3.0 18.0 64 63 64.3 57.2 30.024 7.26 0.0 0 0.12 0.00 0.30 0.00
05/05/26 9:02:25 PM 38 3.0 18.0 64 63 64.3 57.2 30.021 7.26 0.0 0 0.12 0.00 0.30 0.00
05/05/26 9:03:36 PM 35 2.0 18.0 64 63 64.2 57.1 30.021 7.26 0.0 0 0.12 0.00 0.30 0.00
05/05/26 9:04:28 PM 38 2.0 18.0 64 63 64.3 57.1 30.025 7.26 0.0 0 0.12 0.00 0.30 0.00
05/05/26 9:05:21 PM 36 1.0 18.0 64 63 64.3 57.1 30.023 7.26 0.0 0 0.12 0.00 0.30 0.00
05/05/26 9:06:32 PM 36 2.0 18.0 64 63 64.2 57.1 30.021 7.26 0.0 0 0.12 0.00 0.30 0.00
05/05/26 9:07:21 PM 32 2.0 18.0 64 63 64.2 57.0 30.024 7.26 0.0 0 0.12 0.00 0.30 0.00
05/05/26 9:08:32 PM 39 3.0 18.0 64 63 64.2 57.0 30.030 7.26 0.0 0 0.12 0.00 0.30 0.00
05/05/26 9:09:25 PM 38 3.0 18.0 64 63 64.1 57.0 30.025 7.26 0.0 0 0.12 0.00 0.30 0.00
05/05/26 9:10:17 PM 36 3.0 18.0 64 63 64.1 56.9 30.029 7.26 0.0 0 0.12 0.00 0.30 0.00
05/05/26 9:11:28 PM 39 2.0 18.0 64 63 64.1 56.9 30.029 7.26 0.0 0 0.12 0.00 0.30 0.00
05/05/26 9:12:24 PM 35 1.0 18.0 64 63 64.0 56.9 30.030 7.26 0.0 0 0.12 0.00 0.30 0.00
05/05/26 9:13:31 PM 38 0.0 18.0 64 63 64.0 56.8 30.030 7.26 0.0 0 0.12 0.00 0.30 0.00
05/05/26 9:14:24 PM 35 0.0 18.0 64 63 64.0 56.8 30.033 7.26 0.0 0 0.12 0.00 0.30 0.00
05/05/26 9:15:59 PM 37 0.0 18.0 64 63 64.0 56.8 30.033 7.26 0.0 0 0.12 0.00 0.30 0.00
05/05/26 9:16:28 PM 37 0.0 18.0 64 64 63.9 56.8 30.032 7.26 0.0 0 0.12 0.00 0.30 0.00
05/05/26 9:17:20 PM 37 0.0 18.0 64 63 63.9 56.7 30.033 7.26 0.0 0 0.12 0.00 0.30 0.00
05/05/26 9:18:28 PM 32 0.0 18.0 64 64 63.9 56.7 30.034 7.26 0.0 0 0.12 0.00 0.30 0.00
05/05/26 9:19:17 PM 32 0.0 18.0 64 64 63.9 56.6 30.035 7.26 0.0 0 0.12 0.00 0.30 0.00
05/05/26 9:20:28 PM 36 0.0 18.0 64 64 63.9 56.6 30.037 7.26 0.0 0 0.12 0.00 0.30 0.00
05/05/26 9:21:21 PM 38 0.0 18.0 64 64 63.8 56.5 30.038 7.26 0.0 0 0.12 0.00 0.30 0.00
05/05/26 9:22:34 PM 36 0.0 18.0 64 64 63.8 56.4 30.038 7.26 0.0 0 0.12 0.00 0.30 0.00
05/05/26 9:23:24 PM 38 0.0 18.0 64 64 63.8 56.4 30.037 7.26 0.0 0 0.12 0.00 0.30 0.00
05/05/26 9:24:32 PM 37 0.0 18.0 64 64 63.7 56.3 30.038 7.26 0.0 0 0.12 0.00 0.30 0.00
05/05/26 9:25:24 PM 38 0.0 18.0 64 65 63.7 56.3 30.039 7.26 0.0 0 0.12 0.00 0.30 0.00
05/05/26 9:26:17 PM 36 0.0 18.0 64 65 63.7 56.3 30.037 7.26 0.0 0 0.12 0.00 0.30 0.00
05/05/26 9:27:28 PM 39 0.0 18.0 64 65 63.6 56.2 30.038 7.26 0.0 0 0.12 0.00 0.30 0.00
05/05/26 9:28:20 PM 37 3.0 18.0 64 65 63.6 56.1 30.039 7.26 0.0 0 0.12 0.00 0.30 0.00
05/05/26 9:29:28 PM 32 1.0 18.0 64 65 63.6 56.1 30.039 7.26 0.0 0 0.12 0.00 0.30 0.00
05/05/26 9:30:21 PM 38 2.0 18.0 64 65 63.6 56.1 30.044 7.26 0.0 0 0.12 0.00 0.30 0.00
05/05/26 9:31:34 PM 38 1.0 18.0 64 65 63.5 56.0 30.040 7.26 0.0 0 0.12 0.00 0.30 0.00
05/05/26 9:32:27 PM 36 0.0 18.0 64 65 63.5 56.0 30.041 7.26 0.0 0 0.12 0.00 0.30 0.00

University Police wind advisory reference

For campus closure information please call the campus Emergency Hotline at (909) 537-5999

© All rights reserved. Unauthorized duplication or distribution is prohibited

Never base important decisions on this or any weather information obtained from the Internet

California State University, San Bernardino
5500 University Parkway, San Bernardino, CA. 92407
Phone: (909) 537-5108, Email: Weather Webmaster
Last Updated: